Find NLAA on Facebook
Follow NLAA on twitter
 
 
 
 
 


84th Annual Tely 10 Mile Road Race

8:00 a.m., Sunday, July 24, 2011
Paradise - Mt. Pearl - St. John´s, Newfoundland
Organized by the Newfoundland and Labrador Athletics Association (NLAA)

O'all                                 Gun       Class       Gender  Pace   Chip
Place  Bib         Name              Time      Placing       Place   /Mi   Time   City
----- ----- -----------------      ------- ----------------- ----- ----- ------- ----------
    1 2269  Colin Fewer              51:19 LM30-34    1/131      1  5:08   51:19   Paradise
    2 830   Graydon Snider           52:27 LM30-34    2/131      2  5:15   52:27   Montreal
    3 3067  Grant Handrigan          53:14 LM25-29    1/107      3  5:20   53:14   Marystown
    4 701   Michael King             54:38 LM25-29    2/107      4  5:28   54:36   St. John's
    5 1979  Peter Power              55:05 LM45-49    1/136      5  5:31   55:05   Paradise
    6 1464  Peter Bazeley            55:40 LM25-29    3/107      6  5:34   55:37   St. John's
    7 2093  Will Fitzgerald          55:58 LM30-34    3/131      7  5:36   55:55   Prince Charles
    8 2384  David Freake             55:59 LM25-29    4/107      8  5:36   55:59   St. John's
    9 943   Joseph Dunford           56:35 LM35-39    1/189      9  5:40   56:35   St. John's
   10 1955  Adam Snow                57:11 LM25-29    5/107     10  5:44   57:11   St. John's
   11 35    Edward Durnford          57:14 LM40-44    1/134     11  5:44   57:12   St. John's
   12 558   Deon Flynn               57:18 LM35-39    2/189     12  5:44   57:16   Fort Mcmurray
   13 1463  Kate Vaughan             57:43 LF25-29    1/222      1  5:47   57:43   St. John's
   14 1392  Jeff Penton              57:53 LM35-39    3/189     13  5:48   57:52   Paradise
   15 1140  Liam Delaney             57:54 LM-19      1/50      14  5:48   57:54   St. John's
   16 2994  Graham MacDonald         57:57 LM20-24    1/71      15  5:48   57:55   St. John's
   17 50    Mark Hayward (ane)       58:03 LM25-29    6/107     16  5:49   58:03   St. John's
   18 1828  Ian Royle                58:10 LM30-34    4/131     17  5:49   58:10   St. John's
   19 922   Shawn Miller             58:17 LM20-24    2/71      18  5:50   58:13   st. john's
   20 1684  Nicholas Snow            58:19 LM20-24    3/71      19  5:50   58:19   St. John's
   21 1378  Thomas Martin            58:35 LM25-29    7/107     20  5:52   58:33   St. Mary's
   22 2836  Stephan Adams            58:44 LM25-29    8/107     21  5:53   58:44   Stephenville
   23 707   Nathan Dancher           58:51 LM20-24    4/71      22  5:54   58:51   San Diego
   24 3005  Justin Murphy            58:52 LM25-29    9/107     23  5:54   58:49   St. John's
   25 204   Chris Pope               59:01 LM20-24    5/71      24  5:55   58:56   St.John's
   26 2060  Kassu Gebresellasie      59:07 LM30-34    5/131     25  5:55   59:07   St. John's
   27 955   Adam Dobri               59:07 LM20-24    6/71      26  5:55   59:04   Port Hope
   28 2712  Lisa Harvey              59:12 LF40-44    1/227      2  5:56   59:12   Calgary
   29 3035  Tyler Cole               59:13 LM25-29   10/107     27  5:56   59:08   St. John's
   30 2709  Chris Bellerby           59:33 LM35-39    4/189     28  5:58   59:30   Mississauga
   31 1755  Rudy Riedlsperger        59:51 LM25-29   11/107     29  6:00   59:47   St. John's
   32 699   Paul Fewer               59:59 LM50-54    1/145     30  6:00   59:59   Mount Pearl
   33 1774  Michael Pearce         1:00:01 LM40-44    2/134     31  6:01   59:57   Lewisporte
   34 863   Caroline McIlroy       1:00:03 LF40-44    2/227      3  6:01 1:00:01   St Philip's
   35 1359  Don Fagan              1:00:12 LM35-39    5/189     32  6:02 1:00:09   ST. JOHNS
   36 1181  Adam Dyke              1:00:29 LM20-24    7/71      33  6:03 1:00:24   St. John's
   37 874   Jason White            1:00:49 LM35-39    6/189     34  6:05 1:00:49   Torbay
   38 2161  Aaron Power            1:00:57 LM25-29   12/107     35  6:06 1:00:55   St. John's
   39 19    Darren Lee             1:01:12 LM35-39    7/189     36  6:08 1:01:12   Toronto
   40 2307  Ben Murphy             1:01:34 LM-19      2/50      37  6:10 1:01:32   Orangeville
   41 2621  Matthew Callaghan      1:01:40 LM25-29   13/107     38  6:10 1:01:36   Timberlea
   42 431   Bill Pomeroy           1:01:42 LM45-49    2/136     39  6:11 1:01:38   st. john's
   43 793   Alison Walsh           1:01:53 LF30-34    1/248      4  6:12 1:01:51   St. John's
   44 1132  Brian Norman           1:02:02 LM35-39    8/189     40  6:13 1:01:58   Halifax
   45 2079  Karen Stacey           1:02:03 LF30-34    2/248      5  6:13 1:02:03   paradise
   46 1446  Trevor Trahey          1:02:09 LM30-34    6/131     41  6:13 1:02:07   Harbour Main
   47 1368  Trent Burden           1:02:13 LM35-39    9/189     42  6:14 1:02:06   Corner Brook
   48 1278  Paul Bassler           1:02:31 LM35-39   10/189     43  6:16 1:02:24   St. John's
   49 2359  Jon Allan              1:02:34 LM20-24    8/71      44  6:16 1:02:26   Corner Brook
   50 2672  Wendy Turner           1:02:55 LF40-44    3/227      6  6:18 1:02:51   Mississauga
   51 1660  Andrew Bruce           1:03:00 LM30-34    7/131     45  6:18 1:02:54   St. John's
   52 2112  John Adams             1:03:08 LM45-49    3/136     46  6:19 1:03:04   St. John's
   53 1795  Craig Mullins          1:03:18 LM35-39   11/189     47  6:20 1:03:15   St. John's
   54 94    Melvin Layden          1:03:37 LM30-34    8/131     48  6:22 1:03:34   Mount Pearl
   55 1404  Derrick Roul           1:03:41 LM35-39   12/189     49  6:23 1:03:37   Lawn
   56 1806  Daniel Luberry         1:03:46 LM50-54    2/145     50  6:23 1:03:41   Saint-pierre
   57 447   Brian Dunphy           1:03:47 LM55-59    1/117     51  6:23 1:03:41   Stephenville Cr
   58 1509  Gord Nash              1:03:53 LM35-39   13/189     52  6:24 1:03:46   St. John's
   59 1617  Lloyd Brockerville     1:03:54 LM50-54    3/145     53  6:24 1:03:51   Marystown
   60 851   Paul Matthews          1:03:56 LM45-49    4/136     54  6:24 1:03:51   Mount Pearl
   61 2074  Adam Fitzgerald        1:03:56 LM25-29   14/107     55  6:24 1:03:52   St. John's
   62 1338  Donald Howell          1:04:01 LM55-59    2/117     56  6:25 1:04:01   Small Point
   63 1316  Susan Stacey           1:04:07 LF25-29    2/222      7  6:25 1:04:07   St.John's
   64 1765  Christian Dianon       1:04:18 LM45-49    5/136     57  6:26 1:04:14   Saint-pierre
   65 441   Derek Galway           1:04:20 LM45-49    6/136     58  6:26 1:04:13   St. John's
   66 1476  Scott Fitzgerald       1:04:21 LM40-44    3/134     59  6:27 1:04:17   St. John's
   67 2674  Bill Collins           1:04:23 LM50-54    4/145     60  6:27 1:03:25   St. John's
   68 2670  Dermot Holwell         1:04:25 LM55-59    3/117     61  6:27 1:04:21   Mississauga
   69 988   Tony Pike              1:04:27 LM45-49    7/136     62  6:27 1:04:16   St. John's
   70 2123  Jonathan Collins       1:04:30 LM25-29   15/107     63  6:27 1:04:30   Hr. Grace
   71 794   Mark Dillon            1:04:32 LM30-34    9/131     64  6:28 1:04:32   St. John's
   72 85    Scott Downey           1:04:39 LM50-54    5/145     65  6:28 1:04:36   St. John's
   73 1450  Christopher Jackman    1:04:43 LM35-39   14/189     66  6:29 1:04:40   St. John's
   74 2793  Scott Young            1:04:50 LM40-44    4/134     67  6:29 1:04:50   Fort Smith
   75 679   Eric Hanna-Quinn       1:04:57 LM-19      3/50      68  6:30 1:04:45   St. John's
   76 1211  Mike Rudofsky          1:04:59 LM30-34   10/131     69  6:30 1:04:54   St. John's
   77 1950  Terry Fleming          1:05:02 LM45-49    8/136     70  6:31 1:04:53   Conception Bay
   78 726   Steve Dawson           1:05:02 LM50-54    6/145     71  6:31 1:04:57   St John's
   79 165   John Walsh             1:05:08 LM35-39   15/189     72  6:31 1:04:58   St. John's
   80 2271  Tony Poole             1:05:11 LM40-44    5/134     73  6:31 1:05:06   CBS
   81 352   Lisa Sheppard          1:05:11 LF25-29    3/222      8  6:32 1:05:06   Paradise
   82 1984  Glen Noel              1:05:12 LM45-49    9/136     74  6:32 1:05:05   St. John's
   83 2044  Denys Ploughman        1:05:13 LM20-24    9/71      75  6:32 1:04:49   St. John's
   84 1461  Bill Donovan           1:05:14 LM40-44    6/134     76  6:32 1:05:09   St. John's
   85 2671  Terry McDonald         1:05:16 LM35-39   16/189     77  6:32 1:05:12   Edmonton
   86 2037  David Wight            1:05:18 LM45-49   10/136     78  6:32 1:05:18   Burnaby
   87 1186  Mark Barter            1:05:24 LM30-34   11/131     79  6:33 1:05:24   St. John's
   88 2136  Evan Lockyer           1:05:32 LM-19      4/50      80  6:34 1:05:27   cbs
   89 1681  Tracy Hussey           1:05:34 LF35-39    1/268      9  6:34 1:05:32   St. John's
   90 2501  Mark Shea              1:05:36 LM-19      5/50      81  6:34 1:05:26   Fogo
   91 890   Steve Lawlor           1:05:38 LM40-44    7/134     82  6:34 1:05:29   St. John's
   92 531   Richard Wilkins        1:05:39 LM35-39   17/189     83  6:34 1:05:32   PortCv-St.Phili
   93 1948  Craig Heffernan        1:05:45 LM40-44    8/134     84  6:35 1:05:38   St. John's
   94 2251  Jean-Bernard Gautier   1:05:50 LM50-54    7/145     85  6:35 1:05:37   Saint-Pierre Et
   95 1113  Blaine Pearce          1:05:57 LM40-44    9/134     86  6:36 1:05:52   clarenville
   96 1424  Michael Crummey        1:05:58 LM45-49   11/136     87  6:36 1:05:51   St. John's
   97 1957  Benoit Quedinet        1:06:00 LM55-59    4/117     88  6:36 1:05:55   Saint-Pierre et
   98 2351  Tim Barnes             1:06:18 LM-19      6/50      89  6:38 1:06:18   Summerford
   99 191   Bill Fanning           1:06:19 LM50-54    8/145     90  6:38 1:06:15   St. John's
  100 1513  Andre Engelbrecht      1:06:21 LM45-49   12/136     91  6:39 1:06:07   St. John's
  101 2237  Holly Grant            1:06:22 LF25-29    4/222     10  6:39 1:06:14   St. John's
  102 1670  Andrew Burgess         1:06:27 LM30-34   12/131     92  6:39 1:06:08   St. John's
  103 2924  Derrick McGrath        1:06:28 LM20-24   10/71      93  6:39 1:06:25   St. John's
  104 981   Paul Dillon            1:06:34 LM35-39   18/189     94  6:40 1:06:24   Portugal Cove -
  105 2115  Jordan Veenstra        1:06:37 LM25-29   16/107     95  6:40 1:06:37   Owen Sound
  106 1282  Jennifer Murphy        1:06:42 LF25-29    5/222     11  6:41 1:06:39   Paradise
  107 546   Joshua Hollett         1:06:57 LM25-29   17/107     96  6:42 1:06:22   Bloomfield
  108 2849  Louis Rumbolt          1:07:02 LM25-29   18/107     97  6:43 1:06:45   Logy Bay
  109 2940  Nathan Wilson          1:07:02 LM-19      7/50      98  6:43 1:06:53   St. John's
  110 1838  Raymond Collins        1:07:03 LM35-39   19/189     99  6:43 1:06:46   St. John's
  111 2704  Andrea Morrissey       1:07:04 LF25-29    6/222     12  6:43 1:06:28   St. John's
  112 1501  David Kelly            1:07:06 LM40-44   10/134    100  6:43 1:07:00   St. John's
  113 2357  Dean Simon             1:07:08 LM40-44   11/134    101  6:43 1:07:02   Flat Bay
  114 2433  Ray Cadigan            1:07:10 LM50-54    9/145    102  6:43 1:07:04   LOGY BAY
  115 970   Peter Gammon           1:07:10 LM55-59    5/117    103  6:43 1:07:07   St. John's
  116 2769  Sophie Gagnon          1:07:14 LF45-49    1/206     13  6:44 1:07:11   St. John's
  117 917   B.J. Creehan           1:07:20 LM30-34   13/131    104  6:44 1:07:07   Morrisville
  118 2154  Rod Bungay             1:07:20 LM40-44   12/134    105  6:44 1:07:11   CBS
  119 2403  Keith Lewis            1:07:21 LM40-44   13/134    106  6:45 1:07:16   St. John's
  120 1550  Richard Hickey         1:07:25 LM25-29   19/107    107  6:45 1:07:07   Outer Cove
  121 25    Johnny Foley           1:07:26 LM35-39   20/189    108  6:45 1:07:18   St. John's
  122 167   John Redpath           1:07:26 LM30-34   14/131    109  6:45 1:07:07   Garibaldi Highl
  123 2155  Sheldon Marsh          1:07:27 LM30-34   15/131    110  6:45 1:07:21   CBS
  124 557   Peter Soucy            1:07:28 LM50-54   10/145    111  6:45 1:07:22   St. John's
  125 1675  Sandy Greene           1:07:30 LM45-49   13/136    112  6:45 1:07:26   St. John's
  126 592   Katie Wadden           1:07:31 LF25-29    7/222     14  6:46 1:07:28   St. John's
  127 1052  Gerard Bennett         1:07:38 LM50-54   11/145    113  6:46 1:07:34   Kippens
  128 1582  Victoria Ralph         1:07:41 LF20-24    1/119     15  6:47 1:07:38   Mount Pearl
  129 1380  Tom Dunne              1:07:52 LM30-34   16/131    114  6:48 1:07:45   St. John's
  130 1126  Anthony Broders        1:07:53 LM45-49   14/136    115  6:48 1:07:43   St. John's
  131 1151  Kimberly Miller        1:07:56 LF35-39    2/268     16  6:48 1:07:47   Kimberley
  132 2787  Robert Brown           1:08:00 LM50-54   12/145    116  6:48 1:07:56   Goulds
  133 3039  Timothy Maher          1:08:03 LM-19      8/50     117  6:49 1:07:49   Goulds
  134 666   Gerry Galway           1:08:07 LM50-54   13/145    118  6:49 1:08:03   Outer Cove
  135 880   Gerry Dalton           1:08:09 LM45-49   15/136    119  6:49 1:08:01   Goulds
  136 1746  Janet Quick            1:08:12 LF45-49    2/206     17  6:50 1:08:05   St. John's
  137 2770  Chris Cavanagh         1:08:13 LM35-39   21/189    120  6:50 1:07:57   St. John's
  138 2168  Gordon Brockerville    1:08:16 LM55-59    6/117    121  6:50 1:08:08   Marystown
  139 1876  Stephen Dodge          1:08:16 LM45-49   16/136    122  6:50 1:08:06   St. John's
  140 2890  Rick St. Croix         1:08:20 LM55-59    7/117    123  6:50 1:08:15   St. John's
  141 963   Robert Barteau         1:08:20 LM35-39   22/189    124  6:50 1:08:09   Mount Pearl
  142 1401  Jeffrey Turner         1:08:22 LM35-39   23/189    125  6:51 1:08:16   St. John
  143 1232  Darren Pittman         1:08:23 LM45-49   17/136    126  6:51 1:08:07   Outer Cove
  144 1556  Barry Peters           1:08:24 LM35-39   24/189    127  6:51 1:08:17   St. John's
  145 2408  Jeff Courish           1:08:24 LM50-54   14/145    128  6:51 1:08:12   Halifax
  146 418   Andrew Smith (ane)     1:08:26 LM40-44   14/134    129  6:51 1:08:15   St. John's
  147 616   Rebecca Dunne          1:08:27 LF35-39    3/268     18  6:51 1:08:25   Fort McMurray
  148 1502  D'Arcy Hart            1:08:30 LM50-54   15/145    130  6:51 1:08:23   Mount Pearl
  149 639   Keith Glynn            1:08:31 LM45-49   18/136    131  6:52 1:08:21   Paradise
  150 2497  Andrew Gale            1:08:36 LM-19      9/50     132  6:52 1:07:54   Lewisporte
  151 2687  Jeremie Dufresne       1:08:39 LM25-29   20/107    133  6:52 1:08:33   St. John's
  152 8     Rod Walsh              1:08:41 LM35-39   25/189    134  6:53 1:08:35   St. John's
  153 1693  Nick Soper             1:08:46 LM55-59    8/117    135  6:53 1:08:40   Gander
  154 1856  Garry Monaghan         1:08:47 LM35-39   26/189    136  6:53 1:07:44   St. John's
  155 1367  Greg Smyth             1:08:48 LM25-29   21/107    137  6:53 1:08:33   St. John's
  156 2959  Ian Duffett            1:08:49 LM30-34   17/131    138  6:53 1:08:44   St. John's
  157 2691  Charles Stacey         1:08:51 LM45-49   19/136    139  6:54 1:08:42   St. John's
  158 2607  Blair White            1:08:52 LM35-39   27/189    140  6:54 1:08:44   Logy Bay
  159 1307  Patrick Royle          1:08:54 LM60-64    1/68     141  6:54 1:08:49   St. John's
  160 2272  Guy Beazley (aner)     1:09:10 LM50-54   16/145    142  6:55 1:09:03   St. John's
  161 2961  Keith Greene           1:09:10 LM30-34   18/131    143  6:55 1:09:02   St. John's
  162 997   Mark Carolan           1:09:18 LM35-39   28/189    144  6:56 1:09:03   Logy Bay
  163 750   Stephane Autin         1:09:19 LM40-44   15/134    145  6:56 1:09:05   Saint-pierre
  164 2984  Jeff Barnes            1:09:20 LM40-44   16/134    146  6:56 1:08:48   St. John's
  165 1639  Paul Moores            1:09:22 LM45-49   20/136    147  6:57 1:09:03   St. John's
  166 2450  Mark Noseworthy        1:09:24 LM50-54   17/145    148  6:57 1:09:19   St. John's
  167 211   David Pitcher          1:09:27 LM50-54   18/145    149  6:57 1:09:17   Burin
  168 2024  Tony Roche             1:09:28 LM35-39   29/189    150  6:57 1:09:17   St. Johns
  169 2852  Craig Gill             1:09:28 LM35-39   30/189    151  6:57 1:09:23   CBS
  170 1515  Reniel Engelbrecht     1:09:28 LM-19     10/50     152  6:57 1:09:28   St. John's
  171 2863  Gerard Nash            1:09:29 LM35-39   31/189    153  6:57 1:09:24   Mount Pearl
  172 1910  Bernardo Faragalli     1:09:29 LM30-34   19/131    154  6:57 1:09:24   St. John's
  173 2755  Neil Penney            1:09:30 LM20-24   11/71     155  6:57 1:09:11   St. John's
  174 2369  Adrienne Glover        1:09:31 LF25-29    8/222     19  6:58 1:08:55   St. John's
  175 1687  Kevin Foley            1:09:31 LM55-59    9/117    156  6:58 1:09:27   CBS
  176 2264  Michael Dawe           1:09:35 LM25-29   22/107    157  6:58 1:09:26   St. John's
  177 2747  Chris Cox              1:09:35 LM40-44   17/134    158  6:58 1:09:20   Paradise
  178 596   Lou Ryan               1:09:36 LM60-64    2/68     159  6:58 1:09:31   Marystown
  179 1290  Sheldon Quinton        1:09:40 LM45-49   21/136    160  6:58 1:09:29   St. John's
  180 2566  Bill Browne            1:09:41 LM30-34   20/131    161  6:59 1:09:27   St. John's
  181 2469  Robert MacKenzie       1:09:41 LM40-44   18/134    162  6:59 1:09:07   Gander
  182 2302  G Vaughan Paul         1:09:42 LM50-54   19/145    163  6:59 1:09:39   St. John's
  183 559   Colin Hiscock          1:09:44 LM45-49   22/136    164  6:59 1:09:32   Embree
  184 455   Chris Jermyn           1:09:47 LM70-74    1/13     165  6:59 1:09:38   Ottawa
  185 2491  Patrick Collins        1:09:48 LM55-59   10/117    166  6:59 1:09:39   Riverhead Hr. G
  186 1629  John Hanlon            1:09:52 LM55-59   11/117    167  7:00 1:09:44   Petty Hr./ Madd
  187 397   Derek Anderson         1:09:55 LM45-49   23/136    168  7:00 1:09:46   Corner Brook
  188 831   Darrel Flynn           1:09:57 LM35-39   32/189    169  7:00 1:09:53   Ft. McMurray
  189 2584  Bernard Kenny          1:09:59 LM35-39   33/189    170  7:00 1:09:52   Witless Bay
  190 354   Doug Trainor           1:10:00 LM30-34   21/131    171  7:00 1:09:45   St. John's
  191 695   Charles Young          1:10:15 LM60-64    3/68     172  7:02 1:10:08   St. John's
  192 3023  Peter Wilton           1:10:15 LM20-24   12/71     173  7:02 1:10:06   St. John's
  193 834   Jerry Ricketts         1:10:17 LM55-59   12/117    174  7:02 1:10:05   Portugal Cove
  194 816   Marc Saunders          1:10:18 LM35-39   34/189    175  7:02 1:09:54   St. john's
  195 2856  Mark Penney            1:10:19 LM35-39   35/189    176  7:02 1:10:10   St. John's
  196 1298  Rhonda Rideout Keough  1:10:21 LF40-44    4/227     20  7:02 1:10:14   mount pearl
  197 296   Tommy Jellinek         1:10:25 LM40-44   19/134    177  7:03 1:10:05   Orleans
  198 2559  Adam Peddle            1:10:26 LM20-24   13/71     178  7:03 1:10:10   Mount Pearl
  199 2243  Michelle Young         1:10:27 LF40-44    5/227     21  7:03 1:10:23   St Johns
  200 337   Michael O'Keefe        1:10:28 LM20-24   14/71     179  7:03 1:10:15   St. John's
  201 1909  Cj Nolan (ane)         1:10:30 LM30-34   22/131    180  7:03 1:10:25   St. John's
  202 349   Michael Gambin         1:10:33 LM30-34   23/131    181  7:04 1:10:05   Dunville
  203 2082  Chris Moran            1:10:34 LM20-24   15/71     182  7:04 1:10:34   Torbay
  204 2616  Duane Button           1:10:34 LM30-34   24/131    183  7:04 1:10:19   Portugal Cove
  205 2434  Melissa Hardy          1:10:36 LF20-24    2/119     22  7:04 1:10:20   Deer Lake
  206 75    Norman Bungay          1:10:36 LM40-44   20/134    184  7:04 1:10:15   St. John's
  207 1430  Blaine Edwards         1:10:36 LM25-29   23/107    185  7:04 1:10:11   St Johns
  208 2088  Aaron Ryan             1:10:38 LM20-24   16/71     186  7:04 1:10:31   St. John's
  209 1240  Gerard Griffin         1:10:41 LM45-49   24/136    187  7:05 1:10:32   St. John's
  210 2806  Colin Shaw             1:10:44 LM25-29   24/107    188  7:05 1:10:26   A1L 3N6
  211 1472  Desmond Ryan           1:10:45 LM30-34   25/131    189  7:05 1:10:21   St. John's
  212 1375  Joanne Samson          1:10:46 LF45-49    3/206     23  7:05 1:10:34   Torbay
  213 1529  Chelsea Marko          1:10:46 LF40-44    6/227     24  7:05 1:10:24   Mount Pearl
  214 2857  Steve Browne           1:10:48 LM35-39   36/189    190  7:05 1:10:38   Mount Pearl
  215 1321  Sheri-Lynn Burden      1:10:52 LF25-29    9/222     25  7:06 1:10:42   Mount Pearl
  216 2211  Iain Cowley            1:10:53 LM-19     11/50     191  7:06 1:10:26   St. John's
  217 2475  Trevor Forsey          1:10:56 LM40-44   21/134    192  7:06 1:10:52   Cornwall
  218 3013  Peter Thompson         1:10:56 LM35-39   37/189    193  7:06 1:10:35   St.John's
  219 1158  Kirk Farrell           1:10:58 LM35-39   38/189    194  7:06 1:10:49   Mount Pearl
  220 1244  Keith Barrington       1:11:01 LM55-59   13/117    195  7:07 1:10:51   Clarenville
  221 1901  Michael Reid           1:11:05 LM30-34   26/131    196  7:07 1:10:11   St. John's
  222 2636  Austin Collett         1:11:10 LM40-44   22/134    197  7:07 1:10:41   Cape Broyle
  223 2646  Greg Tricco            1:11:15 LM35-39   39/189    198  7:08 1:10:47   St. John's
  224 1473  Jonathan Penney        1:11:16 LM35-39   40/189    199  7:08 1:10:52   St. John's
  225 2595  Carson Anthony         1:11:17 LM-19     12/50     200  7:08 1:10:43   Mount Pearl
  226 1621  Nevin Weist            1:11:20 LM40-44   23/134    201  7:08 1:11:20   Torbay
  227 2362  Chris Martin           1:11:21 LM30-34   27/131    202  7:09 1:11:19   St.john's
  228 2668  Robert Powell          1:11:23 LM45-49   25/136    203  7:09 1:11:01   CBS
  229 2247  G. Bruce Dumaresque    1:11:23 LM45-49   26/136    204  7:09 1:11:02   St. John's
  230 836   Maurice Sheppard       1:11:25 LM50-54   20/145    205  7:09 1:11:21   St. John's
  231 663   Colin Howse            1:11:26 LM55-59   14/117    206  7:09 1:11:12   Mount Pearl
  232 532   Kelly Wilkins          1:11:26 LF35-39    4/268     26  7:09 1:11:17   PortCv-St.Phili
  233 3071  Jonathan Edwards       1:11:28 LM30-34   28/131    207  7:09 1:11:09   St. John's
  234 422   Cory St. Croix         1:11:28 LM35-39   41/189    208  7:09 1:10:58   Calgary
  235 1632  Thea Baird             1:11:28 LF30-34    3/248     27  7:09 1:11:08   CBS
  236 487   John Ryan              1:11:29 LM55-59   15/117    209  7:09 1:11:21   St. John's
  237 1500  Gene Quigley           1:11:35 LM45-49   27/136    210  7:10 1:11:29   St. John's
  238 2708  Steven Roach           1:11:36 LM35-39   42/189    211  7:10 1:10:21   Mount Pearl
  239 978   Lloyd Dawe             1:11:39 LM50-54   21/145    212  7:10 1:11:33   Goulds
  240 2477  Kim Larouche           1:11:39 LF45-49    4/206     28  7:10 1:11:33   St. John's
  241 1087  Paul Mooney            1:11:40 LM40-44   24/134    213  7:10 1:11:29   CBS
  242 1946  Janice Mullins         1:11:40 LF30-34    4/248     29  7:10 1:11:30   St. John's
  243 461   Will Small             1:11:41 LM55-59   16/117    214  7:11 1:11:27   St.John's
  244 1015  Paul Shea              1:11:43 LM45-49   28/136    215  7:11 1:11:31   St. John's
  245 2782  Noel Strapp            1:11:53 LM25-29   25/107    216  7:12 1:11:46   Harbour Main
  246 428   Jiankang Wang          1:11:54 LM30-34   29/131    217  7:12 1:11:01   St. John's
  247 537   Chris White            1:11:55 LM35-39   43/189    218  7:12 1:11:35   la crete
  248 3060  George Michelin        1:11:56 LM20-24   17/71     219  7:12 1:11:31   St. John's
  249 1999  Jeffrey Pardy          1:12:03 LM30-34   30/131    220  7:13 1:11:32   St. John's
  250 1840  Brendan Veitch         1:12:03 LM55-59   17/117    221  7:13 1:11:57   Holyrood
  251 2505  James Meaney           1:12:04 LM35-39   44/189    222  7:13 1:11:45   Paradise
  252 1974  Stephen Hearn          1:12:06 LM20-24   18/71     223  7:13 1:11:51   Paradise
  253 1726  Don Fry                1:12:07 LM50-54   22/145    224  7:13 1:11:53   Paradise
  254 387   Fred Walsh             1:12:07 LM50-54   23/145    225  7:13 1:11:43   St. John's
  255 368   Michael Murphy         1:12:07 LM30-34   31/131    226  7:13 1:12:00   CBS
  256 2634  Greg Pearcey           1:12:10 LM20-24   19/71     227  7:13 1:11:55   Pasadena
  257 821   Gregg Robertson        1:12:15 LM45-49   29/136    228  7:14 1:11:58   St. John's
  258 2126  Todd Ralph             1:12:15 LM40-44   25/134    229  7:14 1:11:38   Paradise
  259 442   Craig Vokey            1:12:21 LM35-39   45/189    230  7:15 1:12:10   Clarenville
  260 1459  John Foley             1:12:22 LM55-59   18/117    231  7:15 1:12:05   St. John's
  261 361   Courtney Sparkes       1:12:22 LF20-24    3/119     30  7:15 1:12:06   Bay Roberts
  262 1314  Rodger Primmer         1:12:25 LM40-44   26/134    232  7:15 1:12:07   Gander
  263 2043  Tony Young             1:12:29 LM40-44   27/134    233  7:15 1:12:08   St. John's
  264 728   Justin Noseworthy      1:12:30 LM20-24   20/71     234  7:15 1:11:49   Spaniard's Bay
  265 1335  Eugene Noble           1:12:31 LM55-59   19/117    235  7:16 1:12:21   St. John's
  266 309   Brad Ball              1:12:32 LM40-44   28/134    236  7:16 1:12:25   CBS
  267 2391  Stephen Blackwood      1:12:32 LM20-24   21/71     237  7:16 1:12:17   CBS
  268 2320  Nick Colbert           1:12:33 LM20-24   22/71     238  7:16 1:11:50   Fort McMurray
  269 1263  Robert Henderson       1:12:34 LM50-54   24/145    239  7:16 1:12:06   St. John's
  270 1713  Rosemary Hatfield      1:12:34 LF45-49    5/206     31  7:16 1:12:27   St. John's
  271 2902  Richard Scott          1:12:37 LM35-39   46/189    240  7:16 1:12:18   Limoges
  272 187   Murdock Hiscock        1:12:37 LM65-69    1/30     241  7:16 1:12:26   Fortune
  273 1825  Joshua Gillard         1:12:38 LM30-34   32/131    242  7:16 1:12:03   St. John's
  274 2693  Jeffrey C Nearing      1:12:39 LM45-49   30/136    243  7:16 1:12:31   Hatchet Lake
  275 693   Blair Lewis            1:12:40 LM35-39   47/189    244  7:16 1:12:40   Holyrood
  276 762   Johnny Peters          1:12:40 LM25-29   26/107    245  7:16 1:12:31   St. John's
  277 761   Erick Stirler          1:12:40 LM20-24   23/71     246  7:16 1:12:31   St. John's
  278 588   Kevin Fagan            1:12:41 LM50-54   25/145    247  7:17 1:12:33   St. john's
  279 2240  Garett Brown           1:12:42 LM25-29   27/107    248  7:17 1:12:20   st. john's
  280 1762  John King              1:12:43 LM35-39   48/189    249  7:17 1:12:09   Gander
  281 236   Keri Rodden-Kemp       1:12:44 LF35-39    5/268     32  7:17 1:12:36   Oakville
  282 2152  Regan O'Rielly         1:12:44 LM20-24   24/71     250  7:17 1:11:50   Witless Bay
  283 667   Hynes Elroy            1:12:45 LM65-69    2/30     251  7:17 1:12:38   Ferryland
  284 1557  Jocelyn Chapados       1:12:45 LM45-49   31/136    252  7:17 1:12:38   PARADISE
  285 1805  Ken Porter             1:12:48 LM45-49   32/136    253  7:17 1:12:32   St. John's
  286 1027  Michael Penney         1:12:49 LM30-34   33/131    254  7:17 1:12:36   Southern Harbou
  287 2177  Joanna Harris          1:12:54 LF45-49    6/206     33  7:18 1:12:43   St. John's
  288 463   Timothy Turner         1:12:56 LM50-54   26/145    255  7:18 1:12:36   St. John's
  289 1462  Trevor Gill            1:12:56 LM40-44   29/134    256  7:18 1:12:43   Botwood
  290 95    Jim Royal              1:13:00 LM45-49   33/136    257  7:18 1:12:44   St. John's
  291 2245  Zachary Wheeler        1:13:00 LM20-24   25/71     258  7:18 1:12:50   St. John's
  292 1117  Keith Pike             1:13:08 LM30-34   34/131    259  7:19 1:12:53   St. John's
  293 1738  Eugene Muller          1:13:10 LM60-64    4/68     260  7:19 1:12:57   St. John's
  294 1470  Don Kelly              1:13:10 LM55-59   20/117    261  7:19 1:13:10   Mount Pearl
  295 2033  Jennifer Kryszak       1:13:11 LF25-29   10/222     34  7:20 1:12:59   St. John's
  296 1490  Susan Kennedy          1:13:13 LF35-39    6/268     35  7:20 1:12:52   Conception Bay
  297 1818  Mike Peddle            1:13:15 LM35-39   49/189    262  7:20 1:12:56   St. John's
  298 1890  Richard Charron        1:13:16 LM50-54   27/145    263  7:20 1:13:03   St. John's
  299 1088  Jason Coombs           1:13:16 LM35-39   50/189    264  7:20 1:12:57   St John's
  300 2711  Ellie Desousa          1:13:18 LF50-54    1/171     36  7:20 1:13:13   Mississauga
  301 1855  Charles Dyke           1:13:18 LM35-39   51/189    265  7:20 1:13:06   St. John's
  302 801   Randy Morris           1:13:18 LM50-54   28/145    266  7:20 1:13:10   St. John's
  303 582   Justin Adams           1:13:19 LM25-29   28/107    267  7:20 1:13:08   St. John's
  304 2322  Paul Green             1:13:21 LM55-59   21/117    268  7:21 1:12:21   dartmouth
  305 2729  Kelda Farrell          1:13:22 LF35-39    7/268     37  7:21 1:13:13   Killbride
  306 2139  John Furlong           1:13:23 LM20-24   26/71     269  7:21 1:13:17   Mount Pearl
  307 2786  Joseph Burry           1:13:23 LM35-39   52/189    270  7:21 1:13:05   St. John's
  308 2889  Barry Ploughman        1:13:24 LM50-54   29/145    271  7:21 1:13:04   St. John's
  309 1566  Jesse Frampton         1:13:25 LM25-29   29/107    272  7:21 1:13:08   Torbay
  310 769   Donovan McNeil         1:13:26 LM20-24   27/71     273  7:21 1:13:16   st. Johns
  311 2651  Deon Cuza              1:13:26 LM30-34   35/131    274  7:21 1:13:26   St. John's
  312 3032  David Sharpe           1:13:26 LM20-24   28/71     275  7:21 1:13:18   St. Phillips
  313 402   Matthew Wells          1:13:28 LM25-29   30/107    276  7:21 1:13:04   St John's
  314 1146  Douglas Skinner        1:13:28 LM35-39   53/189    277  7:21 1:13:05   St. John's
  315 1848  Derek Pearcey          1:13:29 LM45-49   34/136    278  7:21 1:12:34   Clarenville
  316 2370  Jeannie Pardy          1:13:29 LF40-44    7/227     38  7:21 1:13:16   appleton
  317 1454  Perry Bonnell          1:13:31 LM50-54   30/145    279  7:22 1:13:02   St. John's
  318 2549  Gary Burden            1:13:32 LM60-64    5/68     280  7:22 1:13:20   St. John's
  319 6     Stewart Hughes         1:13:33 LM35-39   54/189    281  7:22 1:13:19   Mount Pearl
  320 1512  Courtnay Pooley        1:13:34 LM-19     13/50     282  7:22 1:13:24   St. Johns
  321 1074  Barry Hicks            1:13:36 LM45-49   35/136    283  7:22 1:12:57   Gander
  322 913   Paul Cunningham        1:13:38 LM35-39   55/189    284  7:22 1:13:29   Paradise
  323 339   Wade King              1:13:38 LM35-39   56/189    285  7:22 1:13:22   St. John's
  324 3042  William Stokes         1:13:39 LM20-24   29/71     286  7:22 1:12:38   St. John's
  325 1354  Todd Barbour           1:13:39 LM25-29   31/107    287  7:22 1:13:15   St. John's
  326 1935  Fred Colbourne         1:13:41 LM55-59   22/117    288  7:23 1:13:12   St. John's
  327 2765  Janelle Simmons        1:13:42 LF30-34    5/248     39  7:23 1:13:39   Paradise
  328 189   Yvonne Martin          1:13:45 LF50-54    2/171     40  7:23 1:13:38   St. Mary's
  329 2761  Tommy Hawco            1:13:46 LM25-29   32/107    289  7:23 1:13:15   St.John's
  330 2402  Christopher Mallard    1:13:46 LM-19     14/50     290  7:23 1:13:40   St. Philips
  331 1766  David Morrissey        1:13:46 LM50-54   31/145    291  7:23 1:13:16   Mount Pearl
  332 1969  Jody Worthman          1:13:49 LM40-44   30/134    292  7:23 1:13:26   St. John's
  333 1304  Gary Harnum            1:13:49 LM45-49   36/136    293  7:23 1:13:37   St. John's
  334 3031  Patrick O'Toole        1:13:50 LM45-49   37/136    294  7:23 1:13:40   Carbonear
  335 2374  Joshua Parmiter        1:13:50 LM20-24   30/71     295  7:23 1:13:41   St.John's
  336 2905  Nj Pearson             1:13:53 LM45-49   38/136    296  7:24 1:13:45   St. John's
  337 803   Sid Burry              1:13:55 LM65-69    3/30     297  7:24 1:13:45   St John's
  338 730   Charles Luther         1:13:56 LM25-29   33/107    298  7:24 1:13:37   St. John's
  339 564   Gary Kennell           1:13:56 LM35-39   57/189    299  7:24 1:13:35   PARADISE
  340 1555  Joanne McNeil          1:13:57 LF30-34    6/248     41  7:24 1:13:43   St. John's
  341 2242  Christopher Mong       1:13:58 LM20-24   31/71     300  7:24 1:13:33   st john's
  342 2335  Noel Keough            1:13:58 LM50-54   32/145    301  7:24 1:13:23   Calgary
  343 2630  Mark Peters            1:13:59 LM40-44   31/134    302  7:24 1:13:23   St. John's
  344 1050  Otto Smith             1:14:00 LM50-54   33/145    303  7:24 1:13:50   Sunnyside
  345 1194  Brian Harnett          1:14:02 LM-19     15/50     304  7:25 1:13:43   St. John's
  346 1235  Josee Hotton           1:14:03 LF45-49    7/206     42  7:25 1:13:52   st.John`s
  347 1896  Keith Maynard          1:14:04 LM30-34   36/131    305  7:25 1:13:36   Flatrock
  348 328   Stephen Edison         1:14:04 LM35-39   58/189    306  7:25 1:13:42   St. John's
  349 2145  Scott Andrews          1:14:05 LM35-39   59/189    307  7:25 1:13:58   St. John's
  350 1614  Elliott Rowe           1:14:08 LM55-59   23/117    308  7:25 1:13:53   Labrador City
  351 120   Dan Crawford           1:14:08 LM35-39   60/189    309  7:25 1:13:55   Ottawa
  352 2555  Amy Butt               1:14:11 LF30-34    7/248     43  7:26 1:13:43   St. John's
  353 224   Tony Cadigan           1:14:13 LM50-54   34/145    310  7:26 1:13:48   Corner Brook
  354 2056  Donald Ash             1:14:17 LM50-54   35/145    311  7:26 1:13:39   St. John's
  355 1018  Paul Oake              1:14:18 LM30-34   37/131    312  7:26 1:14:08   Paradise
  356 290   Daniel Mercer          1:14:18 LM30-34   38/131    313  7:26 1:14:07   Gatineau (Hull)
  357 2923  Adam Mercer            1:14:19 LM25-29   34/107    314  7:26 1:14:07   CBS
  358 923   Roger Melendy          1:14:22 LM50-54   36/145    315  7:27 1:14:08   Gander
  359 1059  Geoff Budden           1:14:24 LM45-49   39/136    316  7:27 1:14:04   st John's
  360 1295  Marc Alivio            1:14:26 LM30-34   39/131    317  7:27 1:14:04   Mount Pearl
  361 2859  Shawn Arnold           1:14:27 LM30-34   40/131    318  7:27 1:14:13   St. John's
  362 2360  Alexander Morris       1:14:28 LM-19     16/50     319  7:27 1:14:09   Halifax
  363 986   Joan Hartery           1:14:30 LF55-59    1/96      44  7:27 1:14:30   St. John's
  364 984   Stephen Delaney        1:14:32 LM50-54   37/145    320  7:28 1:14:17   St. John's
  365 2570  Aidan Coleman          1:14:33 LM25-29   35/107    321  7:28 1:13:53   Corner Brook
  366 1267  Glenn Sullivan         1:14:34 LM40-44   32/134    322  7:28 1:14:24   St. John's
  367 93    Craig Pike             1:14:35 LM40-44   33/134    323  7:28 1:14:22   Paradise
  368 962   Bruce Gellately        1:14:35 LM50-54   38/145    324  7:28 1:14:29   St. John's
  369 2789  Michael Stone          1:14:36 LM25-29   36/107    325  7:28 1:14:33   Portugal Cove S
  370 823   Randy Follett          1:14:37 LM35-39   61/189    326  7:28 1:14:25   Paradise
  371 1262  Randy Kelland          1:14:37 LM45-49   40/136    327  7:28 1:14:17   MT PEARL
  372 2080  Terry Walsh            1:14:38 LM35-39   62/189    328  7:28 1:14:15   mount pearl
  373 1498  William Kieley         1:14:38 LM50-54   39/145    329  7:28 1:14:08   Mount Pearl
  374 1021  Michael Hollahan       1:14:40 LM40-44   34/134    330  7:28 1:14:28   St. John's
  375 2299  Michael W. Taylor Sr.  1:14:40 LM50-54   40/145    331  7:28 1:14:23   St. John's
  376 1571  Andrew Rossiter        1:14:42 LM35-39   63/189    332  7:29 1:14:10   CBS
  377 2364  Brody Peddle           1:14:42 LM30-34   41/131    333  7:29 1:14:34   Kingston
  378 2268  Ed Long                1:14:42 LM50-54   41/145    334  7:29 1:14:36   Paradise
  379 450   Michelle Mesh          1:14:44 LF40-44    8/227     45  7:29 1:14:04   Appleton
  380 3027  Elizabeth Rose         1:14:44 LF40-44    9/227     46  7:29 1:14:30   Forteau
  381 2063  Sherry Grewal          1:14:46 LF45-49    8/206     47  7:29 1:14:39   Paradise
  382 229   Jason Letto            1:14:51 LM35-39   64/189    335  7:30 1:14:39   Paradise
  383 2133  Neil Lockyer           1:14:51 LM45-49   41/136    336  7:30 1:14:04   cbs
  384 2333  Howard Evans           1:14:51 LM40-44   35/134    337  7:30 1:14:00   Edmonton
  385 1098  Alan Cheriyan          1:14:56 LM30-34   42/131    338  7:30 1:14:24   Paradise
  386 778   Daren Tremblett        1:14:56 LM40-44   36/134    339  7:30 1:14:45   Clarenville
  387 2185  Katheryn Cochrane      1:14:57 LF20-24    4/119     48  7:30 1:14:40   Pasadena
  388 2125  Parag Jani             1:14:58 LM20-24   32/71     340  7:30 1:14:58   St.john's
  389 1143  Aaron Siller           1:14:59 LM25-29   37/107    341  7:30 1:14:31   St. John's
  390 1081  Bill Goulding          1:15:00 LM45-49   42/136    342  7:30 1:14:52   St. John's
  391 2695  Kerry Hann             1:15:01 LM40-44   37/134    343  7:31 1:14:56   St. John's
  392 622   Mary Beth Farrell      1:15:03 LF45-49    9/206     49  7:31 1:14:28   Marystown
  393 1559  Paul Dancey            1:15:04 LM40-44   38/134    344  7:31 1:14:55   St. John's
  394 926   Calvin Crant           1:15:04 LM55-59   24/117    345  7:31 1:14:56   Mount Pearl
  395 2287  Adam Burke             1:15:06 LM25-29   38/107    346  7:31 1:14:12   St. John's
  396 1862  Kenneth Bonnell        1:15:07 LM45-49   43/136    347  7:31 1:14:50   St. John's
  397 1761  Brad Lambe             1:15:09 LM35-39   65/189    348  7:31 1:14:51   Corner Brook
  398 2710  Ron Peddle             1:15:10 LM50-54   42/145    349  7:31 1:15:05   Mississauga
  399 3047  Jimmy Hann             1:15:11 LM25-29   39/107    350  7:32 1:14:54   St. John's
  400 112   Greg Lovett            1:15:13 LM25-29   40/107    351  7:32 1:14:24   St. John's
  401 2662  Darlene Parrott        1:15:13 LF40-44   10/227     50  7:32 1:14:41   St. John's
  402 882   Erin Sullivan          1:15:13 LF30-34    8/248     51  7:32 1:14:58   St. John's
  403 883   Joe Ryan               1:15:14 LM60-64    6/68     352  7:32 1:14:59   St. John's
  404 3006  Mark Constantine       1:15:16 LM-19     17/50     353  7:32 1:14:49   St. John's
  405 1941  Laura Lawes            1:15:20 LF20-24    5/119     52  7:32 1:15:17   St. John's
  406 1745  Tammy Brenton          1:15:20 LF35-39    8/268     53  7:32 1:14:44   St.John's
  407 1009  Tonja Leach            1:15:20 LF35-39    9/268     54  7:32 1:15:20   Ottawa
  408 2929  Jacinta Loder          1:15:23 LF25-29   11/222     55  7:33 1:14:51   Paradise
  409 1206  Michael Strickland     1:15:24 LM40-44   39/134    354  7:33 1:14:57   st.alban's
  410 2743  Edward Hawkins         1:15:25 LM25-29   41/107    355  7:33 1:15:14   CBS
  411 2513  Ken McKinnon           1:15:32 LM55-59   25/117    356  7:34 1:15:12   St. John's
  412 1489  Bill Aylward           1:15:33 LM65-69    4/30     357  7:34 1:15:12   St. John's
  413 1466  Ed Kennedy             1:15:33 LM40-44   40/134    358  7:34 1:15:24   St. John's
  414 2128  Mitchell Peddle        1:15:37 LM20-24   33/71     359  7:34 1:15:00   St.John's
  415 877   Chris Murphy           1:15:38 LM55-59   26/117    360  7:34 1:15:16   St. John's
  416 2459  Andrew Smith           1:15:38 LM35-39   66/189    361  7:34 1:14:58   St. John's
  417 533   Peter Warren           1:15:39 LM-19     18/50     362  7:34 1:15:15   St. John's
  418 172   Scott Stevenson        1:15:39 LM25-29   42/107    363  7:34 1:14:58   St Johns
  419 434   Sherrie Myers          1:15:40 LF35-39   10/268     56  7:34 1:15:17   St. John's
  420 714   Dan Bobbett            1:15:41 LM45-49   44/136    364  7:35 1:15:24   Paradise
  421 1630  Jason Tobin            1:15:41 LM35-39   67/189    365  7:35 1:15:41   Paradise
  422 1010  Mike White             1:15:43 LM40-44   41/134    366  7:35 1:14:55   Ottawa
  423 1320  Jennifer Burden        1:15:44 LF20-24    6/119     57  7:35 1:15:34   Mount Pearl
  424 2596  Yana Volodarets        1:15:44 LF20-24    7/119     58  7:35 1:15:18   Gander
  425 1760  Wendi Elms             1:15:45 LF30-34    9/248     59  7:35 1:15:37   St. John's
  426 2348  Brian Walsh            1:15:51 LM50-54   43/145    367  7:36 1:15:35   Paradise
  427 1548  Christopher Carter     1:15:51 LM45-49   45/136    368  7:36 1:15:28   St. John's
  428 1539  Thomas Yee             1:15:52 LM35-39   68/189    369  7:36 1:15:46   Honolulu
  429 469   Alice Lee Simms        1:15:53 LF50-54    3/171     60  7:36 1:15:44   St. John's
  430 1293  Ian Crane              1:15:55 LM35-39   69/189    370  7:36 1:15:22   St.John's
  431 1718  David McKinnon         1:15:56 LM50-54   44/145    371  7:36 1:15:44   St. John's
  432 819   James Long             1:15:57 LM35-39   70/189    372  7:36 1:15:41   St. John's
  433 1471  Marie Stoyles          1:15:57 LF35-39   11/268     61  7:36 1:15:27   Mount Pearl
  434 322   Sarah Burrage          1:15:58 LF20-24    8/119     62  7:36 1:15:26   St. John's
  435 2541  Geoff Winsor           1:15:59 LM-19     19/50     373  7:36 1:15:45   St. John's
  436 2275  Steve Crant            1:16:00 LM30-34   43/131    374  7:36 1:15:50   Mount Pearl
  437 3019  Gerry Coady            1:16:03 LM60-64    7/68     375  7:37 1:15:41   St. John's
  438 920   John Outerbridge       1:16:04 LM45-49   46/136    376  7:37 1:15:41   St. John's
  439 453   Valerie Walsh          1:16:05 LF40-44   11/227     63  7:37 1:15:29   St. John's
  440 230   Bill McEachern         1:16:07 LM40-44   42/134    377  7:37 1:15:19   Ottawa
  441 1154  Barry Cadigan          1:16:10 LM45-49   47/136    378  7:37 1:15:55   Logy Bay
  442 919   Kirk Smith             1:16:12 LM40-44   43/134    379  7:38 1:16:12   St. Philip's
  443 1794  Carolyn Cook           1:16:13 LF35-39   12/268     64  7:38 1:15:51   St. John's
  444 2640  Brad Earle             1:16:13 LM20-24   34/71     380  7:38 1:15:41   St. John's
  445 2925  Robin Saldanha         1:16:13 LM35-39   71/189    381  7:38 1:15:31   Torbay
  446 895   Rodney Ralph           1:16:14 LM45-49   48/136    382  7:38 1:16:10   Grand Falls
  447 2870  Scott Gibbons          1:16:15 LM30-34   44/131    383  7:38 1:15:23   St. John's
  448 139   Ray Clarke             1:16:16 LM40-44   44/134    384  7:38 1:15:58   TORBAY
  449 568   John Guzzwell          1:16:17 LM55-59   27/117    385  7:38 1:16:11   st. johns
  450 2524  Joe Burns              1:16:17 LM50-54   45/145    386  7:38 1:15:36   Gander
  451 539   Jamie Kelley           1:16:19 LM35-39   72/189    387  7:38 1:16:08   Paradise
  452 2431  Kenny Budgell          1:16:20 LM25-29   43/107    388  7:38 1:16:08   St. John's
  453 468   Peter Whitridge        1:16:20 LM45-49   49/136    389  7:38 1:15:29   St. John's
  454 2430  Lesley O'Neill         1:16:20 LF25-29   12/222     65  7:38 1:16:09   St. John's
  455 2376  Frederick Jardine      1:16:22 LM60-64    8/68     390  7:39 1:16:05   Paradise
  456 1562  Howard Brown           1:16:22 LM55-59   28/117    391  7:39 1:15:53   Arnolds Cove
  457 2119  Adam Coffin            1:16:23 LM20-24   35/71     392  7:39 1:15:46   St.John's
  458 2479  Eric Crane             1:16:28 LM40-44   45/134    393  7:39 1:15:43   Portugal Cove-S
  459 1699  Rick Audas             1:16:28 LM40-44   46/134    394  7:39 1:15:44   St. John's
  460 1606  Tony Lye               1:16:29 LM45-49   50/136    395  7:39 1:16:25   St. John's
  461 517   Aubrey Whiffen         1:16:29 LM60-64    9/68     396  7:39 1:15:52   RUSHOON
  462 692   Deborah Walsh          1:16:30 LF55-59    2/96      66  7:39 1:16:23   Mt. Pearl
  463 1109  Debbie Hiscock         1:16:30 LF45-49   10/206     67  7:39 1:16:09   Clarenville
  464 1598  Zachary Tilley         1:16:32 LM-19     20/50     397  7:40 1:14:44   Conception Bay
  465 650   Elaine Follett         1:16:33 LF40-44   12/227     68  7:40 1:16:10   St. John's
  466 1592  Garry Romaine          1:16:34 LM55-59   29/117    398  7:40 1:16:14   Musgravetown
  467 275   Joanne Taylor          1:16:34 LF40-44   13/227     69  7:40 1:15:44   Torbay
  468 1990  Christopher Payne      1:16:37 LM25-29   44/107    399  7:40 1:15:30   St. John's
  469 575   Rory Cashin            1:16:38 LM25-29   45/107    400  7:40 1:16:06   Mount Pearkl
  470 2     Scott Keeping          1:16:40 LM40-44   47/134    401  7:40 1:16:02   Timberlea
  471 1416  Michael Harding        1:16:42 LM45-49   51/136    402  7:41 1:16:20   Logy Bay
  472 1265  Mike Sullivan          1:16:43 LM35-39   73/189    403  7:41 1:16:32   Calgary
  473 2379  Darrell Oram           1:16:44 LM55-59   30/117    404  7:41 1:16:04   Corner Brook
  474 2380  Neal Oram              1:16:44 LM25-29   46/107    405  7:41 1:16:02   Corner Brook
  475 1012  Don Pinksen            1:16:45 LM55-59   31/117    406  7:41 1:16:09   Guelph
  476 496   Gerry Sharpe           1:16:45 LM25-29   47/107    407  7:41 1:16:15   Kilbride
  477 964   Steve Moody            1:16:46 LM40-44   48/134    408  7:41 1:16:06   Mount Pearl
  478 147   Joseph Brown           1:16:47 LM50-54   46/145    409  7:41 1:16:12   GRAND BANK
  479 2574  Angus Chisholm         1:16:49 LM35-39   74/189    410  7:41 1:15:52   St. John's
  480 1940  Adrien Doucet          1:16:49 LM25-29   48/107    411  7:41 1:16:18   St. John's
  481 2523  Rod Healey             1:16:50 LM40-44   49/134    412  7:41 1:16:09   Paradise
  482 1669  Stuart Ogilvie         1:16:52 LM35-39   75/189    413  7:42 1:16:28   St. John's
  483 1543  Jim Sampson            1:16:52 LM55-59   32/117    414  7:42 1:16:27   St. John's
  484 2935  Shannon Making         1:16:53 LM30-34   45/131    415  7:42 1:14:54   Paradise
  485 2756  Matthew Dixon          1:16:54 LF25-29   13/222     70  7:42 1:16:36   CBS
  486 2790  Neal Philpott          1:16:55 LM25-29   49/107    416  7:42 1:16:37   Paradise
  487 636   Daniel Burry           1:16:56 LM35-39   76/189    417  7:42 1:16:27   St.John's
  488 2303  Wayne Baggs            1:16:56 LM55-59   33/117    418  7:42 1:16:20   St. John's
  489 2385  Erika Clarke           1:16:57 LF30-34   10/248     71  7:42 1:16:10   Torbay
  490 2794  Gerry Butler           1:17:01 LM50-54   47/145    419  7:43 1:16:39   St.John's
  491 1863  Gary Warren            1:17:01 LM55-59   34/117    420  7:43 1:16:35   St. John's
  492 1216  Matt Elliott           1:17:03 LM25-29   50/107    421  7:43 1:16:02   portugal cove
  493 1065  Jennifer Legrow        1:17:03 LF30-34   11/248     72  7:43 1:16:31   St. John's
  494 103   Jim Parsons            1:17:05 LM45-49   52/136    422  7:43 1:16:52   St. John's
  495 2883  Dan Ficken             1:17:05 LM30-34   46/131    423  7:43 1:16:20   St. John's
  496 2952  Brad Wilkins           1:17:06 LM25-29   51/107    424  7:43 1:15:32   St. John's
  497 2041  Paul Traverse          1:17:06 LM45-49   53/136    425  7:43 1:16:40   paradise
  498 2990  Colleen Woodrow        1:17:07 LF30-34   12/248     73  7:43 1:16:16   Mount Pearl
  499 2342  Miki Lee               1:17:08 LF35-39   13/268     74  7:43 1:16:34   St. John's
  500 1541  Brian Croft            1:17:11 LM50-54   48/145    426  7:44 1:16:31   Mount Pearl
  501 1266  Joe Parrell            1:17:13 LM35-39   77/189    427  7:44 1:17:13   Edmonton
  502 144   Matt Pumphrey          1:17:13 LM30-34   47/131    428  7:44 1:17:13   Calgary
  503 2685  David Keats            1:17:15 LM35-39   78/189    429  7:44 1:16:34   Port Aux Basque
  504 1618  Damien Coombs          1:17:15 LM30-34   48/131    430  7:44 1:16:48   Bay Roberts
  505 1110  Darryl Day             1:17:16 LM-19     21/50     431  7:44 1:16:50   Mt. Pearl
  506 2120  Jillian Arany          1:17:17 LF20-24    9/119     75  7:44 1:16:37   Ottawa
  507 1057  Shannon Brushett       1:17:18 LM30-34   49/131    432  7:44 1:15:46   burin
  508 1063  Blair Trainor          1:17:19 LM25-29   52/107    433  7:44 1:15:52   St. John's
  509 1583  Clem Gibbons           1:17:19 LM45-49   54/136    434  7:44 1:16:54   paradise
  510 967   Liam McErlean          1:17:20 LM50-54   49/145    435  7:44 1:16:33   St. John;s
  511 1830  Greg Snow              1:17:20 LM40-44   50/134    436  7:44 1:16:51   St Johns
  512 2599  Scott Antle            1:17:21 LM35-39   79/189    437  7:45 1:16:47   Paradise
  513 1816  Paula Newhook          1:17:23 LF40-44   14/227     76  7:45 1:17:05   St. John's
  514 1292  Diana Quinton          1:17:23 LF45-49   11/206     77  7:45 1:16:38   St. John's
  515 1826  John Cadigan           1:17:24 LM35-39   80/189    438  7:45 1:16:18   St. John's
  516 2819  Richard Spencer        1:17:24 LM25-29   53/107    439  7:45 1:16:41   St. John's
  517 2373  Melanie Hynes          1:17:24 LF30-34   13/248     78  7:45 1:16:41   New Port Richey
  518 2032  James O'Brien          1:17:24 LM60-64   10/68     440  7:45 1:16:56   St. John's
  519 1741  Joan Baker             1:17:25 LF45-49   12/206     79  7:45 1:17:00   Mt. Pearl
  520 1914  Duane Haley            1:17:27 LM45-49   55/136    441  7:45 1:16:52   Placentia
  521 2316  David Shedd            1:17:28 LM45-49   56/136    442  7:45 1:16:50   Toronto
  522 2649  Michael Vilimek        1:17:31 LM25-29   54/107    443  7:46 1:16:44   St. John's
  523 1136  Jill Henderson         1:17:33 LF20-24   10/119     80  7:46 1:17:12   St. John's
  524 3059  Trevor Lawson          1:17:34 LM35-39   81/189    444  7:46 1:17:09   Toronto
  525 281   Paul Coxworthy         1:17:34 LM45-49   57/136    445  7:46 1:16:44   St. John's
  526 908   Bruce Fancy            1:17:35 LM50-54   50/145    446  7:46 1:17:07   St. John's
  527 685   Ron Earles             1:17:41 LM50-54   51/145    447  7:47 1:17:16   St. John's
  528 1281  Glen Brown             1:17:42 LM35-39   82/189    448  7:47 1:17:24   Torbay
  529 2546  Ryan Fancey            1:17:43 LM25-29   55/107    449  7:47 1:17:20   St. John's
  530 1938  Megan Jones            1:17:43 LF35-39   14/268     81  7:47 1:17:06   St. John's
  531 1577  Ryan Harris            1:17:43 LM25-29   56/107    450  7:47 1:17:06   gander
  532 2919  Trevor Cluett          1:17:44 LM35-39   83/189    451  7:47 1:17:13   Mount Pearl
  533 1549  Monica Kidd            1:17:46 LF35-39   15/268     82  7:47 1:16:18   St. John's
  534 1215  Donnie Riggs           1:17:46 LM35-39   84/189    452  7:47 1:17:36   Paradise
  535 1159  Rob Power              1:17:47 LM40-44   51/134    453  7:47 1:16:35   St. John's
  536 2325  Sarah Lester           1:17:47 LF35-39   16/268     83  7:47 1:17:14   Windsor
  537 1148  Russell Vardy          1:17:50 LM35-39   85/189    454  7:47 1:17:27   Paradise
  538 1177  Harold Fillier         1:17:50 LM55-59   35/117    455  7:47 1:17:29   St. John's
  539 443   Reuben Rogers          1:17:51 LM65-69    5/30     456  7:48 1:17:24   Creston South
  540 1757  Frank Maynard          1:17:54 LM60-64   11/68     457  7:48 1:17:32   St. John's
  541 2432  Douglas Granter        1:17:57 LM40-44   52/134    458  7:48 1:17:07   Gambo
  542 2358  Kay Singleton          1:17:58 LF55-59    3/96      84  7:48 1:17:38   Halifax
  543 2498  Robert Comerford       1:18:00 LM30-34   50/131    459  7:48 1:17:16   Paradise
  544 1758  Noleen King            1:18:02 LF35-39   17/268     85  7:49 1:17:27   Gander
  545 2979  Brandon Snook          1:18:03 LM20-24   36/71     460  7:49 1:16:37   Marystown
  546 1944  Rick Lawes             1:18:04 LM55-59   36/117    461  7:49 1:17:55   St. John's
  547 1197  Gregory Saunders       1:18:06 LM55-59   37/117    462  7:49 1:17:33   St. John's
  548 2647  Colin Edwards          1:18:07 LM30-34   51/131    463  7:49 1:17:21   St John's
  549 430   Anthony Paul           1:18:08 LM40-44   53/134    464  7:49 1:17:23   St. John's
  550 835   Susan Abbott           1:18:09 LF30-34   14/248     86  7:49 1:17:38   St. John's
  551 2805  Carey Bonnell          1:18:09 LM35-39   86/189    465  7:49 1:17:39   St. Philips
  552 2280  Anne Mack              1:18:13 LF45-49   13/206     87  7:50 1:17:31   St. John's
  553 218   Ken Scott              1:18:13 LM50-54   52/145    466  7:50 1:17:56   St John's
  554 770   Steve Gosse            1:18:15 LM30-34   52/131    467  7:50 1:17:48   St.John's
  555 2703  Andrew Morrissey       1:18:16 LM25-29   57/107    468  7:50 1:17:39   St. John's
  556 1035  Johnathan McDonald     1:18:17 LM20-24   37/71     469  7:50 1:17:56   Carbonear
  557 1939  Cara Drover            1:18:17 LF20-24   11/119     88  7:50 1:17:56   North Harbour
  558 687   Brad Beckett           1:18:17 LM35-39   87/189    470  7:50 1:17:34   St. John's
  559 2930  Scott Smith            1:18:21 LM40-44   54/134    471  7:51 1:17:50   St.Philips
  560 2797  Katherine Macbay       1:18:21 LF25-29   14/222     89  7:51 1:18:00   St. John's
  561 2749  Kristy Hynes           1:18:21 LF25-29   15/222     90  7:51 1:17:59   Torbay
  562 1040  Jim Hawco              1:18:22 LM60-64   12/68     472  7:51 1:17:47   St. John's
  563 1322  Nathan John Burden     1:18:22 LM55-59   38/117    473  7:51 1:18:13   Mount Pearl
  564 239   Leah Ash               1:18:23 LF30-34   15/248     91  7:51 1:18:03   Massey Drive
  565 796   Greg Hiscock           1:18:23 LM45-49   58/136    474  7:51 1:17:43   St. John's
  566 2532  Michelle Audas         1:18:25 LF35-39   18/268     92  7:51 1:17:41   Fredericton
  567 2620  Heather Lee-Callaghan  1:18:26 LF30-34   16/248     93  7:51 1:18:20   Timberlea
  568 1474  Frank Connors          1:18:30 LM50-54   53/145    475  7:51 1:18:13   St. John's
  569 77    Trina Bussey           1:18:31 LF30-34   17/248     94  7:52 1:17:42   Pasadena
  570 395   Nancy Jewer            1:18:31 LF35-39   19/268     95  7:52 1:17:41   Corner Brook
  571 2159  William Mitchell       1:18:32 LM25-29   58/107    476  7:52 1:17:54   Marystown
  572 2564  Melissa Saunders       1:18:34 LF25-29   16/222     96  7:52 1:17:48   st. john's
  573 2551  Grant Saunders         1:18:38 LM-19     22/50     477  7:52 1:17:10   Mount Pearl
  574 1591  Michael Harris         1:18:39 LM25-29   59/107    478  7:52 1:18:00   St. John's
  575 1357  Helena Strickland      1:18:43 LF35-39   20/268     97  7:53 1:18:17   st.alban's
  576 2071  Carla Myrick           1:18:46 LF35-39   21/268     98  7:53 1:18:15   St. John's
  577 815   Katie Saunders         1:18:46 LF35-39   22/268     99  7:53 1:18:21   St. John's
  578 2317  Colleen Kirby          1:18:47 LF35-39   23/268    100  7:53 1:18:22   St. John's
  579 223   Heather MacKenzie      1:18:49 LF50-54    4/171    101  7:53 1:18:22   St. John's
  580 571   W George Smith         1:18:51 LM50-54   54/145    479  7:54 1:18:26   St. John's
  581 419   Douglas Howse          1:18:51 LM35-39   88/189    480  7:54 1:18:32   Torbay
  582 2111  Greg Bonia             1:18:54 LM45-49   59/136    481  7:54 1:18:43   Conception Bay
  583 1135  Charles O'Keefe        1:18:57 LM25-29   60/107    482  7:54 1:18:35   St. John's
  584 891   Christopher Seary      1:18:57 LM50-54   55/145    483  7:54 1:18:33   Conception Bay
  585 3010  Stephen Taylor         1:18:58 LM40-44   55/134    484  7:54 1:17:26   Oakville
  586 260   Erica Kelly            1:18:59 LF20-24   12/119    102  7:54 1:17:57   Grand Falls- Wi
  587 333   Craig Dwyer            1:19:00 LM45-49   60/136    485  7:54 1:18:46   Etobicoke
  588 2329  Michaela Roebothan     1:19:01 LF40-44   15/227    103  7:55 1:18:34   St. John's
  589 2606  William Greene         1:19:01 LM65-69    6/30     486  7:55 1:18:26   Port Saunders
  590 46    Lauren McNiven         1:19:05 LF25-29   17/222    104  7:55 1:15:55   Waterloo
  591 677   Jim Woodrow            1:19:06 LM55-59   39/117    487  7:55 1:18:45   St. John's
  592 2105  Matthew Bown           1:19:06 LM25-29   61/107    488  7:55 1:18:13   St. John's
  593 820   Michael Griffin        1:19:08 LM60-64   13/68     489  7:55 1:18:43   Grand Falls-Win
  594 1859  Andrew Bonnell         1:19:08 LM-19     23/50     490  7:55 1:18:51   St. John's
  595 928   Denise Lawlor          1:19:08 LF55-59    4/96     105  7:55 1:18:52   St. John's
  596 276   Trevor Porter          1:19:11 LM35-39   89/189    491  7:56 1:18:22   St. John's
  597 2283  Bill Saunders          1:19:12 LM65-69    7/30     492  7:56 1:18:52   Mount Pearl
  598 369   Jonathan Goodridge     1:19:13 LM-19     24/50     493  7:56 1:18:28   St. John's
  599 1402  Cathy Savidan          1:19:14 LF35-39   24/268    106  7:56 1:18:32   St. John's
  600 2575  Nora Chisholm          1:19:14 LF35-39   25/268    107  7:56 1:18:17   St. John's
  601 115   Dean Keefe             1:19:17 LM40-44   56/134    494  7:56 1:17:27   La Crete
  602 1943  Adam Noseworthy        1:19:18 LM30-34   53/131    495  7:56 1:18:39   St. John's
  603 162   Clifford Trend         1:19:19 LM35-39   90/189    496  7:56 1:18:34   Conception bay
  604 859   Joseph Singleton       1:19:23 LM60-64   14/68     497  7:57 1:19:02   St. John's
  605 561   Patrick Nowotczynski   1:19:24 LM40-44   57/134    498  7:57 1:18:47   Torbay
  606 896   Keith Wade             1:19:27 LM45-49   61/136    499  7:57 1:19:01   Portugal Cove
  607 2515  Bob Hart               1:19:27 LM40-44   58/134    500  7:57 1:18:01   St John's
  608 2907  Scott Antle            1:19:32 LM40-44   59/134    501  7:58 1:18:58   St. John's
  609 1712  Kimberley Robertson    1:19:35 LF35-39   26/268    108  7:58 1:19:04   St. John's
  610 954   Sandra Burden          1:19:35 LF40-44   16/227    109  7:58 1:19:15   St. John's
  611 2273  Brian Whiteway         1:19:38 LM40-44   60/134    502  7:58 1:19:18   St. John's
  612 2484  Milt Crewe             1:19:38 LM55-59   40/117    503  7:58 1:19:11   Pasadena
  613 2612  Mel Gilbert            1:19:40 LM50-54   56/145    504  7:58 1:19:26   Halifax
  614 2330  Jessica Banfield       1:19:41 LF30-34   18/248    110  7:59 1:18:57   St.John's
  615 2059  Greg Gill              1:19:42 LM35-39   91/189    505  7:59 1:19:02   St. Johns
  616 1044  Jason Counsel          1:19:42 LM35-39   92/189    506  7:59 1:19:14   Placentia
  617 2494  George Ledrew          1:19:42 LM65-69    8/30     507  7:59 1:19:28   Hopeall
  618 2416  Priscilla Rideout      1:19:44 LF20-24   13/119    111  7:59 1:19:31   Conception Bay
  619 1411  Kris Poduska           1:19:44 LF35-39   27/268    112  7:59 1:19:26   St. John's
  620 161   Rodi Snow              1:19:45 LM30-34   54/131    508  7:59 1:19:45   Torbay
  621 2970  Kyle Downer            1:19:46 LM20-24   38/71     509  7:59 1:19:08   68 Jasper St
  622 116   Karen Keefe            1:19:46 LF40-44   17/227    113  7:59 1:17:56   La Crete
  623 485   Donna Thistle          1:19:47 LF50-54    5/171    114  7:59 1:19:23   St. John's
  624 2775  Travis Mercer          1:19:47 LM20-24   39/71     510  7:59 1:19:39   St. John's
  625 2160  Sara McKinnon          1:19:51 LF25-29   18/222    115  8:00 1:18:44   Mount Pearl
  626 353   Bernard Ryan           1:19:52 LM20-24   40/71     511  8:00 1:18:57   St. John's
  627 1503  Gary Bruce             1:19:56 LM55-59   41/117    512  8:00 1:19:34   CBS
  628 1276  Chris Verge            1:19:57 LM30-34   55/131    513  8:00 1:19:25   Paradise
  629 2221  Zachary Meaney         1:19:58 LM20-24   41/71     514  8:00 1:19:04   St. John's
  630 105   Tim Buchanan           1:19:58 LM20-24   42/71     515  8:00 1:19:05   St. John's
  631 841   Steph Davis            1:19:58 LF20-24   14/119    116  8:00 1:19:05   St. John's
  632 961   Donald Prince          1:19:58 LM55-59   42/117    516  8:00 1:19:35   St. John's
  633 709   Danielle Hussey        1:20:00 LF35-39   28/268    117  8:00 1:19:26   Gander
  634 1222  Kelda Ghaney           1:20:00 LF25-29   19/222    118  8:00 1:19:35   Mt. Pearl
  635 1922  Bradley King           1:20:00 LM35-39   93/189    517  8:00 1:19:26   CBS
  636 355   Jennifer Young         1:20:00 LF30-34   19/248    119  8:00 1:19:16   Calgary
  637 2493  Walter Martin          1:20:00 LM40-44   61/134    518  8:00 1:19:22   Mount Pearl
  638 2547  Shannon Hart           1:20:02 LF-19      1/42     120  8:01 1:19:11   Mount Pearl
  639 1406  Jason MacDonald        1:20:03 LM35-39   94/189    519  8:01 1:20:03   St. John's
  640 866   Donna Warren           1:20:04 LF50-54    6/171    121  8:01 1:19:33   St. John's
  641 2504  Deila Young            1:20:04 LF35-39   29/268    122  8:01 1:19:18   GFW
  642 1484  Danny Dodd             1:20:07 LM55-59   43/117    520  8:01 1:19:55   St. John's
  643 1364  Steve Winsor           1:20:07 LM35-39   95/189    521  8:01 1:19:39   St. John's
  644 1537  Juanita Butler         1:20:09 LF40-44   18/227    123  8:01 1:19:13   Conception Bay
  645 2669  Craig Lynch            1:20:09 LM20-24   43/71     522  8:01 1:19:32   St. John's
  646 2763  Tyler Thompson         1:20:11 LM20-24   44/71     523  8:02 1:19:54   St.John's
  647 723   Rita Burke             1:20:11 LF50-54    7/171    124  8:02 1:19:38   Tilting Fogo Is
  648 1328  Cyril Doyle            1:20:12 LM55-59   44/117    524  8:02 1:19:55   St. John's
  649 1820  Chris Young            1:20:13 LM30-34   56/131    525  8:02 1:18:45   Paradise
  650 505   Andrew Collins         1:20:14 LM25-29   62/107    526  8:02 1:19:27   St. John's
  651 1976  Sharon Trainor         1:20:16 LF45-49   14/206    125  8:02 1:20:03   Paradise
  652 1804  Trudy Porter           1:20:19 LF45-49   15/206    126  8:02 1:20:03   St. John's
  653 484   Edward Hillier         1:20:20 LM55-59   45/117    527  8:02 1:20:06   Fortune
  654 1956  Zachary Pomeroy        1:20:21 LM20-24   45/71     528  8:03 1:18:56   St. John's
  655 183   Susan Flanagan         1:20:23 LF40-44   19/227    127  8:03 1:20:02   St. John`s
  656 467   Jenny Arbuckle         1:20:23 LF25-29   20/222    128  8:03 1:19:56   paradise
  657 2676  Ian Crewe              1:20:23 LM40-44   62/134    529  8:03 1:19:53   St. John's
  658 1108  Donna Power            1:20:24 LF45-49   16/206    129  8:03 1:20:11   Paradise
  659 2021  Kristie Cochrane-Phill 1:20:24 LF25-29   21/222    130  8:03 1:20:04   St. John's
  660 1440  Lisa Spurrell          1:20:26 LF30-34   20/248    131  8:03 1:20:26   St. John
  661 384   Betty McKenna          1:20:26 LF55-59    5/96     132  8:03 1:20:14   St. John's
  662 2828  Lori Hickey            1:20:26 LF45-49   17/206    133  8:03 1:19:31   St. John's
  663 2529  Derek King             1:20:28 LM60-64   15/68     530  8:03 1:20:12   Flatrock
  664 2779  Colin Barry            1:20:29 LM25-29   63/107    531  8:03 1:20:00   St. John's
  665 1221  Tracy Riggs            1:20:30 LF30-34   21/248    134  8:03 1:20:06   Paradise
  666 1811  Brian Carrigan         1:20:30 LM50-54   57/145    532  8:03 1:20:01   Torbay
  667 2666  Shawn Best             1:20:32 LM45-49   62/136    533  8:04 1:19:29   Clarenville
  668 1771  James Snow             1:20:33 LM30-34   57/131    534  8:04 1:19:38   Bay Roberts
  669 44    Marilyn Warren         1:20:33 LF40-44   20/227    135  8:04 1:20:13   Ottawa
  670 2344  Andrew Grimes          1:20:33 LM40-44   63/134    535  8:04 1:20:33   Toronto
  671 370   Ryan Hunt              1:20:34 LM30-34   58/131    536  8:04 1:19:14   Grand Falls - W
  672 176   Leah Vardy             1:20:34 LF-19      2/42     136  8:04 1:19:57   st.john's
  673 465   Alfred Power           1:20:37 LM50-54   58/145    537  8:04 1:20:11   St. John's
  674 2558  Lisa Odriscoll         1:20:37 LF40-44   21/227    137  8:04 1:19:37   cbs
  675 82    Mike Dove              1:20:38 LM40-44   64/134    538  8:04 1:20:23   St. Thomas
  676 1448  Melanie Rose           1:20:44 LF35-39   30/268    138  8:05 1:20:20   Outer Cove
  677 175   Gail Price             1:20:45 LF45-49   18/206    139  8:05 1:20:07   st.john's
  678 640   Heather Barrett        1:20:45 LF40-44   22/227    140  8:05 1:20:12   St. John's
  679 1169  Mayo Vrba              1:20:47 LM30-34   59/131    539  8:05 1:20:12   St. John's
  680 2817  Gregory Baker          1:20:47 LM50-54   59/145    540  8:05 1:20:19   Mount Pearl
  681 2010  Doug Bishop            1:20:49 LM50-54   60/145    541  8:05 1:20:11   Pt. Laye Haye
  682 433   Patrick Dalton         1:20:51 LM35-39   96/189    542  8:06 1:20:08   St. John's
  683 2814  Michael Curran         1:20:52 LM20-24   46/71     543  8:06 1:20:34   St. John's
  684 388   Ivi Hermanto           1:20:52 LM45-49   63/136    544  8:06 1:20:40   mount pearl
  685 2331  Steve Routledge        1:20:52 LM30-34   60/131    545  8:06 1:18:47   St. John's
  686 1954  Devonne Ryan           1:20:53 LF20-24   15/119    141  8:06 1:19:31   St. John's
  687 2908  Paul Churchill         1:20:53 LM55-59   46/117    546  8:06 1:20:41   Paradise
  688 1066  Don Stapleton          1:20:56 LM50-54   61/145    547  8:06 1:20:01   Paradise
  689 912   Paula Tucker           1:20:56 LF40-44   23/227    142  8:06 1:20:32   Mount Pearl
  690 2887  Kari Jenkins           1:20:57 LF20-24   16/119    143  8:06 1:19:55   St. John's
  691 184   Peter Alyward          1:20:57 LM40-44   65/134    548  8:06 1:20:50   St. John's
  692 110   Cheryl Jefford         1:20:57 LF35-39   31/268    144  8:06 1:20:25   Conception Bay
  693 1297  Kathryn Vardy          1:20:58 LF20-24   17/119    145  8:06 1:20:06   St. John's
  694 1837  Victoria Healey        1:21:00 LF-19      3/42     146  8:06 1:20:38   Holyrood
  695 1287  Stephanie Pomeroy      1:21:01 LF-19      4/42     147  8:07 1:19:38   St. Johns
  696 1371  Anthony Upwards        1:21:01 LM30-34   61/131    549  8:07 1:19:46   St. John's
  697 2421  Michael Lynk           1:21:02 LM25-29   64/107    550  8:07 1:20:52   Paradise
  698 1742  Mike Ludwicki          1:21:02 LM30-34   62/131    551  8:07 1:19:12   paradise
  699 1238  John MacKenzie         1:21:02 LM45-49   64/136    552  8:07 1:20:35   Mount Pearl
  700 2832  Unknown See Timer      1:21:03 LMNOAGE    1/1      553  8:07 1:19:44
  701 865   Shirley Ryder          1:21:05 LF55-59    6/96     148  8:07 1:20:53   MOUNT PEARL
  702 1724  Shannon Sullivan       1:21:06 LM35-39   97/189    554  8:07 1:19:35   St. John's
  703 2492  Robert Pond            1:21:07 LM20-24   47/71     555  8:07 1:19:43   Clarenville
  704 712   John Robinson          1:21:09 LM55-59   47/117    556  8:07 1:20:19   St John's
  705 2039  David Burke            1:21:10 LM45-49   65/136    557  8:07 1:20:24   Goulds
  706 1659  Robert Jenkins         1:21:12 LM45-49   66/136    558  8:08 1:20:46   Mount Pearl
  707 811   Jennifer Fagan         1:21:14 LF25-29   22/222    149  8:08 1:20:41   CBS
  708 424   George Butt            1:21:14 LM50-54   62/145    559  8:08 1:20:09   Carbonear
  709 2963  Kandy Lane             1:21:15 LF30-34   22/248    150  8:08 1:19:25   St. John's
  710 1892  Rinaldo Stefan         1:21:16 LM45-49   67/136    560  8:08 1:19:59   Mount Pearl
  711 2855  Brad Hollett           1:21:16 LM35-39   98/189    561  8:08 1:20:42   St. John's
  712 1553  Skye Fisher            1:21:16 LF20-24   18/119    151  8:08 1:20:45   St. John's
  713 1260  Travis Wooley          1:21:18 LM30-34   63/131    562  8:08 1:20:51   St. John's
  714 2291  Connie Pilgrim         1:21:19 LF35-39   32/268    152  8:08 1:20:09   Paradise
  715 1155  Barry Griffiths        1:21:21 LM35-39   99/189    563  8:09 1:20:37   st.john.s
  716 2180  Adam Oliver            1:21:21 LM20-24   48/71     564  8:09 1:19:36   Blackhead
  717 3038  Darin Steeves          1:21:22 LM40-44   66/134    565  8:09 1:20:11   St. John's
  718 1835  Gordon Delaney         1:21:24 LM30-34   64/131    566  8:09 1:19:56   St. John's
  719 2868  Perry Wiseman          1:21:25 LM50-54   63/145    567  8:09 1:20:01   St. Johns
  720 713   Josie Swyer            1:21:25 LF40-44   24/227    153  8:09 1:20:25   Corner Brook
  721 892   Joanne Hunt            1:21:27 LF40-44   25/227    154  8:09 1:20:16   Paradise
  722 2000  Wayne Kelly            1:21:27 LM50-54   64/145    568  8:09 1:20:39   paradise
  723 2577  Erlangga Septama       1:21:29 LM40-44   67/134    569  8:09 1:20:17   St. John's
  724 528   Fergal Lawless         1:21:32 LM35-39  100/189    570  8:10 1:20:36   Ireland
  725 1787  Brian Hodder           1:21:32 LM45-49   68/136    571  8:10 1:20:13   St. John's
  726 2355  Jodi Card              1:21:32 LF25-29   23/222    155  8:10 1:20:52   Mount Pearl
  727 436   Bill Carter            1:21:34 LM45-49   69/136    572  8:10 1:21:34   Harbour Breton
  728 380   Shelley Moores         1:21:35 LF30-34   23/248    156  8:10 1:21:02   Conception Bay
  729 2608  Trevor Harnum          1:21:35 LM30-34   65/131    573  8:10 1:20:10   St. John's
  730 2576  Stephen Grimes         1:21:36 LM45-49   70/136    574  8:10 1:21:06   St. John's
  731 2190  Sandra Pope            1:21:37 LF40-44   26/227    157  8:10 1:20:34   St. John's
  732 2452  Stephanie Nevin        1:21:37 LF20-24   19/119    158  8:10 1:20:21   Gander
  733 2340  Keith Rideout          1:21:38 LM40-44   68/134    575  8:10 1:20:42   St. John's
  734 2440  Gord Hibbs             1:21:38 LM40-44   69/134    576  8:10 1:20:52   St. Phillips
  735 122   Rebecca Long           1:21:39 LF20-24   20/119    159  8:10 1:20:43   St. John's
  736 1977  Shalane Spurrell       1:21:39 LF20-24   21/119    160  8:10 1:18:52   St. John's
  737 538   Sam Saunders           1:21:39 LM60-64   16/68     577  8:10 1:21:13   Brookside
  738 386   Marina Owens           1:21:40 LF50-54    8/171    161  8:10 1:21:15   St. John's
  739 669   Carol Hynes            1:21:40 LF45-49   19/206    162  8:10 1:20:57   Ferryland
  740 1729  Dan Gulliver           1:21:42 LM35-39  101/189    578  8:11 1:21:01   St. John's
  741 2304  Marie Baggs            1:21:43 LF50-54    9/171    163  8:11 1:21:30   St. John's
  742 40    Wanda Barnes           1:21:43 LF50-54   10/171    164  8:11 1:20:58   Napanee
  743 14    Elam Barnes            1:21:43 LM55-59   48/117    579  8:11 1:21:08   Napanee
  744 2603  Shannon Best           1:21:43 LM35-39  102/189    580  8:11 1:20:20   St. John's
  745 2841  David McNeil           1:21:45 LM35-39  103/189    581  8:11 1:21:05   St. John's
  746 2975  Brent Pittman          1:21:46 LM35-39  104/189    582  8:11 1:21:11   CBS
  747 1595  Jim Doyle              1:21:48 LM45-49   71/136    583  8:11 1:20:48   St. John's
  748 2556  Donny Lannon           1:21:50 LM55-59   49/117    584  8:11 1:21:37   Placentia
  749 375   David Squires          1:21:53 LM45-49   72/136    585  8:12 1:21:09   Harbour Grace
  750 1524  Grace Russell          1:21:53 LF35-39   33/268    165  8:12 1:21:10   Goulds
  751 300   Pam Fagan              1:21:53 LF30-34   24/248    166  8:12 1:21:53   CBS
  752 2332  Debbie Martin          1:21:54 LF30-34   25/248    167  8:12 1:21:17   Lower Sackville
  753 10    Shaunna Johnston       1:21:55 LF20-24   22/119    168  8:12 1:21:23   Stephenville
  754 1217  Shirley Shea           1:21:56 LF40-44   27/227    169  8:12 1:21:42   Glenwood
  755 1399  Steve Butler           1:21:57 LM30-34   66/131    586  8:12 1:21:12   Mount Pearl
  756 1075  Keith Bailey           1:21:57 LM35-39  105/189    587  8:12 1:21:17   St. John's
  757 2400  Tony O'Leary           1:21:59 LM45-49   73/136    588  8:12 1:20:28   Western Bay
  758 668   Julie Vaillancourt     1:21:59 LF30-34   26/248    170  8:12 1:21:16   Ferryland
  759 1175  Eoin Mulcahy           1:21:59 LM25-29   65/107    589  8:12 1:20:34   St. John's
  760 1187  Harold Williams        1:22:01 LM60-64   17/68     590  8:12 1:21:31   Bay Bulls
  761 1866  Kris Connors           1:22:01 LM30-34   67/131    591  8:13 1:21:28   Conception Bay
  762 2478  Roger Rogers           1:22:03 LM40-44   70/134    592  8:13 1:20:38   st. john's
  763 1522  Matt Hayden            1:22:03 LM25-29   66/107    593  8:13 1:21:18   Goulds
  764 1258  Dean Nicolle           1:22:03 LM40-44   71/134    594  8:13 1:20:27   St. John's
  765 3043  Madonna Sharpe         1:22:04 LF40-44   28/227    171  8:13 1:21:57   St. Philips
  766 1100  Jeremy Whittle         1:22:04 LM35-39  106/189    595  8:13 1:21:38   St johns
  767 1037  Valerie Morgan         1:22:07 LF25-29   24/222    172  8:13 1:21:15   Coley's Point
  768 2312  Bill Warren            1:22:07 LM65-69    9/30     596  8:13 1:21:24   MOUNT PEARL
  769 520   Amy Flynn              1:22:08 LF25-29   25/222    173  8:13 1:21:24   St. John's
  770 2356  Stephen Bartlett       1:22:08 LM50-54   65/145    597  8:13 1:21:05   Ottwa
  771 1815  Sharon Branton         1:22:08 LF45-49   20/206    174  8:13 1:21:43   Mount Pearl
  772 2012  Lesley Cowan           1:22:08 LF35-39   34/268    175  8:13 1:21:35   St. John's
  773 2772  Terry Humber           1:22:10 LM45-49   74/136    598  8:13 1:21:20   St. John's
  774 1115  Christine Aubrey-Bassl 1:22:10 LF35-39   35/268    176  8:13 1:22:02   St. John's
  775 1303  Laurent Hebert         1:22:10 LM60-64   18/68     599  8:13 1:21:57   Quebec
  776 1627  Claire Price           1:22:11 LF20-24   23/119    177  8:14 1:20:14   St john's
  777 2812  Trudy Smith            1:22:13 LF35-39   36/268    178  8:14 1:21:55   Dildo
  778 2219  Sandra Estevez         1:22:13 LF35-39   37/268    179  8:14 1:20:27   Paradise
  779 1650  David Lundrigan        1:22:16 LM40-44   72/134    600  8:14 1:21:19   Outer Cove
  780 2767  Terri-Lynn Hand        1:22:18 LF30-34   27/248    180  8:14 1:21:52   St.John's
  781 847   Justine O'Leary        1:22:18 LF20-24   24/119    181  8:14 1:20:49   Carbonear
  782 2086  Darcie Cohen           1:22:19 LF25-29   26/222    182  8:14 1:21:14   Portugal Cove-S
  783 2267  Neh Pinsent            1:22:20 LM45-49   75/136    601  8:14 1:21:33   Grand Falls Win
  784 2281  Kelly Knott            1:22:20 LF45-49   21/206    183  8:14 1:21:33   St.Johns
  785 2533  Jane Rendell           1:22:21 LF50-54   11/171    184  8:15 1:20:51   ST. JOHN'S
  786 1667  Gavon Russell Russell  1:22:23 LM20-24   49/71     602  8:15 1:20:55   St. John's
  787 258   Samantha Smith         1:22:24 LF20-24   25/119    185  8:15 1:21:30   St. John's
  788 43    Shane Fitzgerald       1:22:26 LM20-24   50/71     603  8:15 1:21:46   St. John's
  789 2517  Brendan Barron         1:22:26 LM45-49   76/136    604  8:15 1:20:58   ST Johns
  790 332   Hilary Mellor          1:22:26 LF50-54   12/171    186  8:15 1:21:18   Ottawa
  791 766   Geoff Stevens          1:22:26 LM25-29   67/107    605  8:15 1:20:52   Wabush
  792 1657  Lana Hartson           1:22:26 LF35-39   38/268    187  8:15 1:22:04   Burin Bay Arm
  793 2114  Gail Simms             1:22:28 LF50-54   13/171    188  8:15 1:22:08   Port aux Basque
  794 1799  David Pitman           1:22:28 LM30-34   68/131    606  8:15 1:21:43   CBS
  795 1803  Connie Davis           1:22:32 LF35-39   39/268    189  8:16 1:21:33   CBS
  796 1149  Secina Cokes           1:22:32 LF50-54   14/171    190  8:16 1:21:50   St. John's
  797 1698  Moira Finn             1:22:33 LF40-44   29/227    191  8:16 1:21:19   St. John's
  798 2898  Brad Milne             1:22:34 LM40-44   73/134    607  8:16 1:20:45   London
  799 2003  Gerald Warren          1:22:34 LM55-59   50/117    608  8:16 1:21:00   Grand Falls Win
  800 1013  Bill Kilfoy            1:22:35 LM45-49   77/136    609  8:16 1:21:40   Conception Bay
  801 1885  Laura Fitzgerald       1:22:35 LF30-34   28/248    192  8:16 1:21:52   St. John's
  802 2456  Neda Hunt              1:22:38 LF40-44   30/227    193  8:16 1:22:02   Clarenville
  803 1101  Eric May               1:22:38 LM55-59   51/117    610  8:16 1:21:40   St. John's
  804 2744  Vincent Dawson         1:22:40 LM35-39  107/189    611  8:16 1:22:07   Cupids
  805 234   George Tapper          1:22:42 LM60-64   19/68     612  8:17 1:22:22   St John's
  806 1128  John Angel             1:22:42 LM55-59   52/117    613  8:17 1:22:27   St. John's
  807 1734  Millie Brown           1:22:43 LF45-49   22/206    194  8:17 1:21:59   Mount Pearl
  808 929   Clyde Thornhill        1:22:45 LM55-59   53/117    614  8:17 1:22:24   Mount Pearl
  809 2229  Spencer Winsor         1:22:46 LM35-39  108/189    615  8:17 1:21:34   paradise
  810 1917  Kevin Peddle           1:22:47 LM55-59   54/117    616  8:17 1:22:31   Carbonear
  811 2099  Andrew Bown            1:22:47 LM25-29   68/107    617  8:17 1:21:53   St. John's
  812 991   Danny Reid             1:22:48 LM25-29   69/107    618  8:17 1:21:15   Grand Falls- Wi
  813 392   Joe Thompson           1:22:48 LM30-34   69/131    619  8:17 1:21:29   St. John's
  814 2250  Tana Green             1:22:49 LF45-49   23/206    195  8:17 1:21:51   St. John's
  815 231   Brian Reddick          1:22:50 LM50-54   66/145    620  8:17 1:22:29   G.F.-Windsor
  816 2778  Kevin Moulton          1:22:52 LM30-34   70/131    621  8:18 1:20:54   St. John's
  817 69    Natasha Rees           1:22:53 LF35-39   40/268    196  8:18 1:22:33   Mount Pearl
  818 2017  James Lacey            1:22:55 LM40-44   74/134    622  8:18 1:22:14   St. John's
  819 27    Andrea Duguid          1:22:56 LF35-39   41/268    197  8:18 1:22:27   St.John's
  820 918   Gerald O'Neill         1:22:56 LM25-29   70/107    623  8:18 1:22:56   Fermeuse
  821 113   David Taylor           1:22:56 LM45-49   78/136    624  8:18 1:22:33   St. John's
  822 2622  Carl Dohey             1:22:57 LM35-39  109/189    625  8:18 1:21:51   St. John's
  823 2823  Maurice Tuff           1:22:59 LM30-34   71/131    626  8:18 1:22:40   Mount Pearl
  824 358   Glenn Russell          1:22:59 LM45-49   79/136    627  8:18 1:22:59   Bolton
  825 2143  Jodi Prosser           1:23:00 LF40-44   31/227    198  8:18 1:21:36   Clarenville
  826 773   Justin Kennedy         1:23:01 LM35-39  110/189    628  8:19 1:21:08   St John's
  827 1534  Sean Churchill         1:23:01 LM30-34   72/131    629  8:19 1:21:09   Conception Bay
  828 1319  Proton Rahman          1:23:02 LM45-49   80/136    630  8:19 1:22:34   st. John's
  829 2110  Neil Kelly             1:23:03 LM55-59   55/117    631  8:19 1:22:31   Paradise
  830 626   Kenneth Hollett        1:23:04 LM45-49   81/136    632  8:19 1:21:47   St. John's
  831 336   Michael Noseworthy     1:23:04 LM20-24   51/71     633  8:19 1:22:47   Mount Pearl
  832 1006  Joe Greene             1:23:05 LM30-34   73/131    634  8:19 1:22:23   Paradise
  833 1248  Jason Ryan             1:23:05 LM35-39  111/189    635  8:19 1:21:57   Bonavista
  834 1737  Annie Mpiana           1:23:06 LF35-39   42/268    199  8:19 1:22:50   Mount Pearl
  835 741   Kevin Ryan             1:23:07 LM55-59   56/117    636  8:19 1:22:11   Mount Pearl
  836 449   Nicole Woodman         1:23:09 LF40-44   32/227    200  8:19 1:22:31   New Harbour
  837 2109  Garrett Wells          1:23:10 LM20-24   52/71     637  8:19 1:22:10   St. John's
  838 159   Cheryl Smith           1:23:10 LF35-39   43/268    201  8:19 1:22:53   Calgary
  839 2572  Douglas Mesher         1:23:11 LM35-39  112/189    638  8:20 1:21:43   grand falls win
  840 1283  Kevin Glynn            1:23:12 LM60-64   20/68     639  8:20 1:22:42   Bay Bulls
  841 2664  Roschella Legrow       1:23:13 LF30-34   29/248    202  8:20 1:21:30   St. John's
  842 631   Susan Green            1:23:13 LF20-24   26/119    203  8:20 1:20:27   Stephenville
  843 2193  Billy Moran            1:23:14 LM30-34   74/131    640  8:20 1:22:35   Witless Bay
  844 1923  Andrew Sinclair        1:23:14 LM30-34   75/131    641  8:20 1:21:59   St. John's
  845 2663  Jenelle Grandy         1:23:15 LF30-34   30/248    204  8:20 1:21:00   Grand Falls-Win
  846 1651  Greg O'Leary           1:23:15 LM40-44   75/134    642  8:20 1:22:18   Mount Pearl
  847 1898  Paul Loder             1:23:16 LM45-49   82/136    643  8:20 1:22:42   St. John's
  848 2601  Susan Gallant          1:23:17 LF40-44   33/227    205  8:20 1:23:17   Pasadena
  849 1561  Heather Picco          1:23:18 LF20-24   27/119    206  8:20 1:22:38   Gander
  850 2958  Connie Duffett         1:23:18 LF30-34   31/248    207  8:20 1:22:39   St. John's
  851 1564  Colleen Crane          1:23:19 LF40-44   34/227    208  8:20 1:22:31   Ottawa
  852 1610  German Perez Arango    1:23:22 LM40-44   76/134    644  8:21 1:22:32   Mount Pearl
  853 1540  Michelle Jenkins       1:23:23 LF35-39   44/268    209  8:21 1:22:44   St. John's
  854 1895  Randy Turpin           1:23:24 LM35-39  113/189    645  8:21 1:21:35   Torbay
  855 1301  Gwen Evans             1:23:24 LF25-29   27/222    210  8:21 1:22:59   St. John's
  856 1134  Deborah Butt           1:23:25 LF55-59    7/96     211  8:21 1:21:38   Clarenville
  857 1679  Cassie Burt            1:23:26 LF25-29   28/222    212  8:21 1:22:19   St. John's
  858 777   Beth Snow Snow         1:23:26 LF40-44   35/227    213  8:21 1:22:14   Paradise
  859 2528  Natalie Godden         1:23:28 LF45-49   24/206    214  8:21 1:22:58   St.John's
  860 1030  Dylan Thomas           1:23:28 LM20-24   53/71     646  8:21 1:23:03   St. John's
  861 3055  Hollie Dawson          1:23:28 LF35-39   45/268    215  8:21 1:22:29   St. John's
  862 2957  Len Leriche            1:23:30 LM55-59   57/117    647  8:21 1:23:18   St. John's
  863 858   Darren Hunt            1:23:31 LM35-39  114/189    648  8:22 1:20:32   Paradise
  864 261   Peter Buckley          1:23:32 LM25-29   71/107    649  8:22 1:23:05   St. John's
  865 2404  Sarah Wall             1:23:32 LF20-24   28/119    216  8:22 1:21:50   Mount Pearl
  866 268   Gary Hart              1:23:33 LM35-39  115/189    650  8:22 1:22:55   CBS
  867 201   Mark Fahey             1:23:34 LM35-39  116/189    651  8:22 1:22:56   Mount Pearl
  868 1972  Andrew Young           1:23:34 LM25-29   72/107    652  8:22 1:23:17   St. John's
  869 1085  Michel Le Carduner     1:23:36 LM55-59   58/117    653  8:22 1:21:55   Saint-Pierre
  870 805   Michelle Porter        1:23:37 LF40-44   36/227    217  8:22 1:23:07   Conception Bay
  871 1437  Diane Wiseman          1:23:38 LF40-44   37/227    218  8:22 1:23:07   Conception Bay
  872 2766  Ann Haynes             1:23:39 LF45-49   25/206    219  8:22 1:23:13   St. John's
  873 1122  Randy Knight           1:23:41 LM50-54   67/145    654  8:23 1:22:54   St Johns
  874 608   Andrew Gosse           1:23:41 LM40-44   77/134    655  8:23 1:22:11   Paradise
  875 1381  Jackie Cabot           1:23:45 LF45-49   26/206    220  8:23 1:23:12   cbs
  876 1318  Jessica Steffler       1:23:46 LF30-34   32/248    221  8:23 1:23:14   St. John's
  877 979   Mike Foley             1:23:46 LM30-34   76/131    656  8:23 1:22:31   St. John's
  878 166   Jason Brown            1:23:46 LM35-39  117/189    657  8:23 1:23:32   Kitchener
  879 2521  Gillian Kelland        1:23:48 LF30-34   33/248    222  8:23 1:22:38   St. JOhn's
  880 1195  Eilish Walsh           1:23:49 LF50-54   15/171    223  8:23 1:23:10   St. John's
  881 1131  Ryan Antle             1:23:50 LM20-24   54/71     658  8:23 1:22:58   Mount Pearl
  882 1247  Robert Ring            1:23:50 LM25-29   73/107    659  8:23 1:22:18   St. John's
  883 574   Donna Wadden           1:23:51 LF55-59    8/96     224  8:24 1:23:25   St. John's
  884 1958  Trevor Fleming         1:23:51 LM-19     25/50     660  8:24 1:23:10   Conception Bay
  885 511   Cyril Pumphrey         1:23:52 LM45-49   83/136    661  8:24 1:22:09   St. John's
  886 2645  Jenny Austin           1:23:52 LF25-29   29/222    225  8:24 1:22:40   St. John's
  887 776   Bradley Tremblett      1:23:53 LM-19     26/50     662  8:24 1:23:31   Clarenville
  888 1587  Katie Doyle            1:23:57 LF-19      5/42     226  8:24 1:22:57   St. John
  889 451   Jenny Hall             1:23:58 LF40-44   38/227    227  8:24 1:22:10   St. John's
  890 2270  Rebecca Fewer          1:23:59 LF30-34   34/248    228  8:24 1:23:37   Paradise
  891 2854  Sylvie Mitford         1:23:59 LF25-29   30/222    229  8:24 1:22:36   St. John's
  892 1791  Jerry Dunphy           1:24:00 LM40-44   78/134    663  8:24 1:23:42   Torbay
  893 2499  Donna Burt             1:24:01 LF45-49   27/206    230  8:25 1:22:57   St. John's
  894 1641  Angela Dalton          1:24:02 LF20-24   29/119    231  8:25 1:22:24   St. John's
  895 1567  Susan Collins          1:24:02 LF35-39   46/268    232  8:25 1:22:48   St. John's
  896 2084  Tim Cohen              1:24:03 LM50-54   68/145    664  8:25 1:22:56   Portugal Cove-S
  897 363   Robert Jenkins         1:24:06 LM55-59   59/117    665  8:25 1:23:24   St. John's
  898 1264  Glen Soper             1:24:08 LM40-44   79/134    666  8:25 1:23:16   CBS
  899 1520  Andrew Hynes           1:24:11 LM20-24   55/71     667  8:26 1:24:08   St. John's
  900 1808  Keith Lacour           1:24:11 LM45-49   84/136    668  8:26 1:23:34   Mount Pearl
  901 1147  Michelle Strang        1:24:16 LF30-34   35/248    233  8:26 1:23:52   Burin Bay Arm
  902 1492  Billy Bidgood          1:24:17 LM45-49   85/136    669  8:26 1:23:17   Goulds
  903 1611  Melissa Downing        1:24:18 LF20-24   30/119    234  8:26 1:23:01   St. John's
  904 385   Luce Landry            1:24:18 LF35-39   47/268    235  8:26 1:23:12   Pouch Cove
  905 1127  Ann Angel              1:24:19 LF55-59    9/96     236  8:26 1:23:53   St. john's
  906 2095  Andrea Murray          1:24:19 LF40-44   39/227    237  8:26 1:23:47   St.John's
  907 1560  Glenn Smith            1:24:19 LM45-49   86/136    670  8:26 1:23:58   St.John's
  908 1369  Janet Oliver           1:24:20 LF50-54   16/171    238  8:26 1:23:16   St. John's
  909 1966  Brian Barnes           1:24:21 LM50-54   69/145    671  8:27 1:23:25   Mount Pearl
  910 1039  Mary Clarke            1:24:22 LF45-49   28/206    239  8:27 1:23:31   Goulds
  911 2563  Sylvia Druken          1:24:23 LF35-39   48/268    240  8:27 1:23:49   C.B.S
  912 79    Jason Ransom           1:24:24 LM35-39  118/189    672  8:27 1:23:34   Mount Pearl
  913 2738  Fred Wight             1:24:25 LM75-79    1/3      673  8:27 1:23:58   St. John's
  914 121   Michael Sheppard       1:24:25 LM35-39  119/189    674  8:27 1:23:23   Paradise
  915 1613  Dave Jones             1:24:25 LM45-49   87/136    675  8:27 1:23:43   St. John's
  916 1552  Adrian Walsh           1:24:26 LM60-64   21/68     676  8:27 1:23:33   Paradise
  917 1778  Jaime Cooper - Brown   1:24:26 LF30-34   36/248    241  8:27 1:23:24   St john's
  918 1596  Dawn Perry             1:24:27 LF35-39   49/268    242  8:27 1:23:31   Gander
  919 2354  Cesar Forero           1:24:27 LM35-39  120/189    677  8:27 1:23:24   St. John's
  920 518   Lisa Ryan              1:24:28 LF35-39   50/268    243  8:27 1:23:43   St John's
  921 1988  Justin Garrett         1:24:28 LM25-29   74/107    678  8:27 1:23:46   St. John's
  922 2345  Allison Fox            1:24:28 LF30-34   37/248    244  8:27 1:23:08   Toronto
  923 1422  Clarence O'Neill       1:24:29 LM50-54   70/145    679  8:27 1:23:40   St. John's
  924 1536  Connie Hancock         1:24:29 LF40-44   40/227    245  8:27 1:24:15   Gander
  925 1341  Marlene Smith          1:24:30 LF30-34   38/248    246  8:27 1:23:55   Mount Pearl
  926 3003  Flora Seymour          1:24:31 LF45-49   29/206    247  8:28 1:22:54   Torbay
  927 435   Margo Murphy           1:24:32 LF30-34   39/248    248  8:28 1:24:07   St.John's
  928 452   Laura Murphy           1:24:32 LF25-29   31/222    249  8:28 1:23:37   CBS
  929 2893  Jaclyn Sullivan        1:24:32 LF30-34   40/248    250  8:28 1:23:44   St. John's
  930 1868  Leona Rockwood         1:24:34 LF40-44   41/227    251  8:28 1:24:01   ST. John's
  931 1832  Kendra Wright          1:24:35 LF35-39   51/268    252  8:28 1:23:35   St. John's
  932 1725  Jackie Linehan         1:24:35 LF45-49   30/206    253  8:28 1:23:53   St. John's
  933 3056  Stephen Smyth          1:24:36 LM45-49   88/136    680  8:28 1:22:02   Halifax
  934 2956  Craig Andrews          1:24:37 LM45-49   89/136    681  8:28 1:23:59   CBS
  935 1028  Gillian Brown          1:24:37 LF25-29   32/222    254  8:28 1:21:43   Arnold's Cove
  936 690   Susanne Murphy         1:24:38 LF35-39   52/268    255  8:28 1:23:43   Kingston
  937 2326  Kevin Lester           1:24:38 LM35-39  121/189    682  8:28 1:23:15   Windsor
  938 2346  Doug Lewis             1:24:39 LM45-49   90/136    683  8:28 1:24:11   St. John's
  939 1246  Paul Lahey             1:24:40 LM55-59   60/117    684  8:28 1:24:21   St. John's
  940 2198  Dave Royle             1:24:40 LM55-59   61/117    685  8:28 1:23:48   St. John's
  941 61    Arch Rose              1:24:41 LM45-49   91/136    686  8:29 1:24:01   St. John's
  942 1720  Dan Fry                1:24:43 LM-19     27/50     687  8:29 1:23:41   Goulds
  943 403   Roger Clarke           1:24:43 LM45-49   92/136    688  8:29 1:23:35   salmon cove
  944 1959  Donna Murphy           1:24:45 LF40-44   42/227    256  8:29 1:24:36   Logy Bay
  945 1219  Keith Barrett          1:24:47 LM40-44   80/134    689  8:29 1:24:08   St. John's
  946 2210  Ann Cowley             1:24:48 LF50-54   17/171    257  8:29 1:24:01   St. John's
  947 1801  Pam Russell            1:24:49 LF35-39   53/268    258  8:29 1:23:18   Clarkes Beach
  948 3062  Matt Pealey            1:24:49 LM20-24   56/71     690  8:29 1:23:37   St. John's
  949 1517  John Hale              1:24:49 LM50-54   71/145    691  8:29 1:23:37   Ottawa
  950 2548  Judy Sheppard          1:24:50 LF60-64    1/56     259  8:29 1:24:38   Mount Pearl
  951 861   Keeran Bonia           1:24:51 LM-19     28/50     692  8:30 1:22:33   ST. JOHN'S
  952 2305  Rick Hodder            1:24:51 LM55-59   62/117    693  8:30 1:24:09   Paradise
  953 729   Catherine Brazil       1:24:52 LF20-24   31/119    260  8:30 1:23:57   Bay Roberts
  954 2004  Anne Pardy             1:24:52 LF55-59   10/96     261  8:30 1:24:15   St. John's
  955 1410  Karen Bussey           1:24:56 LF30-34   41/248    262  8:30 1:23:51   St. John's
  956 179   Beulah Drake           1:24:56 LF40-44   43/227    263  8:30 1:24:51   Harbour Breton
  957 1883  Scott Wood             1:24:58 LM40-44   81/134    694  8:30 1:22:48   Kamloops
  958 145   Nick Flynn             1:24:59 LM40-44   82/134    695  8:30 1:24:30   Mt. Pearl
  959 1947  Geriann Dillon         1:25:00 LF35-39   54/268    264  8:30 1:24:07   St. John's
  960 2259  Charlotte Hann         1:25:00 LF40-44   44/227    265  8:30 1:24:10   Paradise
  961 627   Bill Lundrigan         1:25:01 LM35-39  122/189    696  8:31 1:24:10   Paradise
  962 1646  Jackie Wells           1:25:02 LF30-34   42/248    266  8:31 1:24:27   Paradise
  963 248   Stephanie Barbon       1:25:03 LF20-24   32/119    267  8:31 1:23:58   London
  964 1767  Annette Thibeau        1:25:04 LF50-54   18/171    268  8:31 1:23:51   Stephenville
  965 393   Allison Luther         1:25:04 LF25-29   33/222    269  8:31 1:23:43   Thunder Bay
  966 742   Arlene Sweet           1:25:06 LF30-34   43/248    270  8:31 1:24:22   Paradise
  967 2166  Rob McLennan           1:25:07 LM40-44   83/134    697  8:31 1:23:55   St. John's
  968 2083  Dave Shea              1:25:12 LM30-34   77/131    698  8:32 1:23:59   Fogo Island
  969 2349  Kevin Barnes           1:25:12 LM45-49   93/136    699  8:32 1:23:28   Summerford
  970 1201  Kristin Clarke         1:25:12 LF25-29   34/222    271  8:32 1:23:36   Lewisporte
  971 1199  Carla Clarke           1:25:12 LF30-34   44/248    272  8:32 1:23:37   Lewisporte
  972 2150  Tara Evans             1:25:15 LF30-34   45/248    273  8:32 1:24:24   Torbay
  973 5     Trevor Kearsey         1:25:16 LM30-34   78/131    700  8:32 1:24:42   Mount Pearl
  974 1934  Douglas Grouchy        1:25:21 LM45-49   94/136    701  8:33 1:24:21   St. John's
  975 2045  Nathan McLachlan       1:25:22 LM30-34   79/131    702  8:33 1:25:22   St. John's
  976 3026  Martin Ward            1:25:24 LM20-24   57/71     703  8:33 1:25:01   Conception Bay
  977 2064  Emily Gannon           1:25:26 LF-19      6/42     274  8:33 1:24:56   Toronto
  978 935   Elizabeth Milne        1:25:26 LF40-44   45/227    275  8:33 1:24:11   St. John's
  979 3066  Dean King              1:25:28 LM45-49   95/136    704  8:33 1:24:23   Gander
  980 2487  Joe Stratton           1:25:30 LM50-54   72/145    705  8:33 1:24:31   Goulds
  981 1781  Steve Mercer           1:25:32 LM40-44   84/134    706  8:34 1:25:06   St. John's
  982 2140  Stephen Baker          1:25:32 LM25-29   75/107    707  8:34 1:25:32   Marystown
  983 1721  Carl Fry               1:25:33 LM-19     29/50     708  8:34 1:24:31   Goulds
  984 1340  Louisa Gillespie       1:25:33 LF40-44   46/227    276  8:34 1:24:32   St. John's
  985 285   Roxanne George         1:25:33 LF35-39   55/268    277  8:34 1:24:33   CBS
  986 2053  Adam Doyle             1:25:35 LM25-29   76/107    709  8:34 1:24:43   Goulds
  987 556   Sandra Elliott         1:25:35 LF45-49   31/206    278  8:34 1:22:56   Clarenville
  988 996   Karen Osmond           1:25:35 LF45-49   32/206    279  8:34 1:22:57   CLARENVILLE
  989 1049  Susan Kavanagh         1:25:36 LF35-39   56/268    280  8:34 1:25:00   St. John's
  990 2641  Denise Allain          1:25:36 LF45-49   33/206    281  8:34 1:22:49   Corner Brook
  991 1317  Tanis Adey             1:25:36 LF45-49   34/206    282  8:34 1:25:05   st. John's
  992 735   Dove Nadine            1:25:37 LF35-39   57/268    283  8:34 1:22:21   Gander
  993 2972  Glenda Reddick         1:25:37 LF40-44   47/227    284  8:34 1:25:04   CBS
  994 1144  Mercedes Rose          1:25:37 LF45-49   35/206    285  8:34 1:24:24   Marystown
  995 1568  Judy Cahill            1:25:38 LF35-39   58/268    286  8:34 1:25:14   Witless Bay
  996 498   Lisa Badcock           1:25:38 LF45-49   36/206    287  8:34 1:23:43   St. John's
  997 2944  Lindsey Margaret Reddy 1:25:40 LF25-29   35/222    288  8:34 1:25:26   CBS
  998 1046  Deanne Hiscock         1:25:41 LF35-39   59/268    289  8:35 1:25:01   Brigus
  999 152   Matthew Cross          1:25:41 LM25-29   77/107    710  8:35 1:23:37   St. John's
 1000 312   Trina Molloy           1:25:42 LF35-39   60/268    290  8:35 1:25:42   CBS
 1001 3058  Leo Power              1:25:42 LM50-54   73/145    711  8:35 1:24:40   St. John's
 1002 168   Cindy Primmer          1:25:42 LF35-39   61/268    291  8:35 1:24:11   Lewisporte
 1003 501   Sutherland Claire      1:25:44 LF35-39   62/268    292  8:35 1:24:31   St. John's
 1004 1220  Charmaine Snelgrove    1:25:45 LF30-34   46/248    293  8:35 1:25:08   Appleton
 1005 2526  Ian Rowsell            1:25:49 LM30-34   80/131    712  8:35 1:24:30   Paradise
 1006 1812  Jason Cole             1:25:52 LM35-39  123/189    713  8:36 1:24:44   Mount Pearl
 1007 2052  Kathryn Ash            1:25:55 LF20-24   33/119    294  8:36 1:24:55   St. John's
 1008 624   Fred Christian-Quinton 1:25:56 LM45-49   96/136    714  8:36 1:24:25   Portugal Cove-S
 1009 1978  Leah Hann              1:25:56 LF25-29   36/222    295  8:36 1:25:09   St. John's
 1010 186   Jane Parsons           1:25:57 LF40-44   48/227    296  8:36 1:24:29   Kingston
 1011 1968  Jennifer Pope          1:25:58 LF25-29   37/222    297  8:36 1:25:10   St. John's
 1012 2821  Joe Piercey            1:25:59 LM30-34   81/131    715  8:36 1:25:27   Paradise
 1013 2097  Jean Cook              1:26:00 LF40-44   49/227    298  8:36 1:25:24   St. John's
 1014 2019  Liam O'Leary           1:26:01 LM-19     30/50     716  8:37 1:24:57   St. John's
 1015 2705  Chad Benteau           1:26:01 LM30-34   82/131    717  8:37 1:22:45   Grand Bank
 1016 1645  Dianne Penney          1:26:01 LF40-44   50/227    299  8:37 1:25:25   St. John's
 1017 2130  Andy Poole             1:26:01 LM30-34   83/131    718  8:37 1:24:49   Glovertown
 1018 1055  Coleen Mifflin         1:26:02 LF30-34   47/248    300  8:37 1:25:14   St. John's
 1019 2298  Chris Dawson           1:26:06 LM50-54   74/145    719  8:37 1:24:14   St. John's
 1020 36    Darlene Lewis          1:26:07 LF30-34   48/248    301  8:37 1:24:36   Holyrood
 1021 313   Glen Molloy            1:26:09 LM35-39  124/189    720  8:37 1:25:41   CBS
 1022 249   Andrea Sparkes         1:26:10 LF30-34   49/248    302  8:37 1:25:37   St. John's
 1023 2171  Cynthia McLoughlan     1:26:10 LF50-54   19/171    303  8:37 1:25:18   labrador city
 1024 2462  Noel Roy               1:26:11 LM65-69   10/30     721  8:38 1:25:50   St. John's
 1025 347   Karen Honeygold        1:26:13 LF35-39   63/268    304  8:38 1:24:35   St. John's
 1026 2046  Frances Ash            1:26:13 LF50-54   20/171    305  8:38 1:25:15   St. John's
 1027 1932  Aune Colbourne         1:26:14 LF50-54   21/171    306  8:38 1:25:33   St. John's
 1028 560   Emily Gushue           1:26:15 LF25-29   38/222    307  8:38 1:25:32   St. John's
 1029 2361  Andrew Wright          1:26:15 LM30-34   84/131    722  8:38 1:24:58   St. John's
 1030 1145  Brendan Murphy         1:26:15 LM60-64   22/68     723  8:38 1:24:49   Conception Bay
 1031 1288  Gillian Davidge        1:26:16 LF40-44   51/227    308  8:38 1:25:08   St. John's
 1032 2213  Shane Hoskins          1:26:17 LM30-34   85/131    724  8:38 1:25:05   Biloxi
 1033 2182  Lori Peddle            1:26:19 LF40-44   52/227    309  8:38 1:25:17   Clarenville
 1034 2706  Ilya Brotzky           1:26:19 LM20-24   58/71     725  8:38 1:25:02   Toronto
 1035 1270  Craig Smith            1:26:20 LM35-39  125/189    726  8:38 1:26:20   Paradise
 1036 215   Marlene Furlong        1:26:20 LF30-34   50/248    310  8:38 1:25:10   st john's
 1037 680   Terry Day              1:26:20 LM45-49   97/136    727  8:38 1:25:33   St. John's
 1038 2233  Nancy Robbins          1:26:21 LF35-39   64/268    311  8:39 1:25:46   Clarenville
 1039 367   Gordon Smith           1:26:21 LM55-59   63/117    728  8:39 1:26:21   Trinity Bay
 1040 2062  Daniel Conway          1:26:21 LM-19     31/50     729  8:39 1:23:40   St.John's
 1041 2204  David Bartlett         1:26:23 LM20-24   59/71     730  8:39 1:24:27   St. John's
 1042 2445  David O'Mahony         1:26:23 LM35-39  126/189    731  8:39 1:24:26   St. John's
 1043 3040  Amy O'Rielly           1:26:24 LF30-34   51/248    312  8:39 1:24:38   St. John's
 1044 2818  Megan Burke            1:26:24 LF20-24   34/119    313  8:39 1:25:22   St. John's
 1045 1680  Tanya Finlay           1:26:25 LF35-39   65/268    314  8:39 1:25:06   St. John's
 1046 297   Erin Jellinek          1:26:25 LF35-39   66/268    315  8:39 1:25:46   Orleans
 1047 584   Robert Rees            1:26:25 LM25-29   78/107    732  8:39 1:25:04   St. John's
 1048 573   Andrea Kennedy         1:26:25 LF25-29   39/222    316  8:39 1:25:04   Portugal Cove
 1049 1719  Bob Fry                1:26:27 LM55-59   64/117    733  8:39 1:25:25   Paradise
 1050 708   Alison Drover          1:26:27 LF35-39   67/268    317  8:39 1:24:41   St. John's
 1051 2104  Robyn O'Rielly         1:26:28 LF20-24   35/119    318  8:39 1:25:34   Witless Bay
 1052 808   Scott Smith            1:26:29 LM35-39  127/189    734  8:39 1:24:21   Blaketown
 1053 13    Chelsea Barnes         1:26:29 LF20-24   36/119    319  8:39 1:25:45   Napanee
 1054 437   Carolyn Bruss          1:26:30 LF45-49   37/206    320  8:39 1:25:34   St. John's
 1055 1118  Justin Blackwood       1:26:30 LM20-24   60/71     735  8:39 1:25:36   CBS
 1056 1622  Stephanie Roberts      1:26:31 LF25-29   40/222    321  8:40 1:26:31   St. John's
 1057 691   Jason Yee              1:26:35 LM30-34   86/131    736  8:40 1:21:44   St. John's
 1058 2684  Brian Whalen           1:26:36 LM60-64   23/68     737  8:40 1:25:17   St. John's
 1059 1326  Christopher Vincent    1:26:37 LM55-59   65/117    738  8:40 1:25:40   Lewisporte
 1060 555   Brian Cusack           1:26:37 LM30-34   87/131    739  8:40 1:21:46   St. John's
 1061 1349  Alicia Dill            1:26:39 LF50-54   22/171    322  8:40 1:25:14   ottawa
 1062 2879  Diane Roche            1:26:39 LF50-54   23/171    323  8:40 1:26:09   St. John's
 1063 351   Karen Hudson           1:26:41 LF40-44   53/227    324  8:41 1:25:24   ST. JOHN'S
 1064 2065  Jessica Browne         1:26:41 LF20-24   37/119    325  8:41 1:25:28   St. John's
 1065 2178  Frankie Ralph          1:26:42 LF45-49   38/206    326  8:41 1:26:13   Mount Pearl
 1066 2701  Paul Newhook           1:26:43 LM45-49   98/136    740  8:41 1:25:21   St. John's
 1067 2175  Lisa Woodruff          1:26:46 LF40-44   54/227    327  8:41 1:26:20   St John's
 1068 480   David Howse            1:26:47 LM50-54   75/145    741  8:41 1:26:27   St. John's
 1069 2447  Francisco Acevedo      1:26:48 LM35-39  128/189    742  8:41 1:25:38   St. John's
 1070 2075  Lisa Andrews           1:26:49 LF30-34   52/248    328  8:41 1:25:23   Portugal Cove
 1071 269   Ewen Jones             1:26:51 LM55-59   66/117    743  8:42 1:26:04   st.john's
 1072 1284  Kevin Deveau           1:26:52 LM40-44   85/134    744  8:42 1:24:59   Kippens
 1073 2258  Marcie Smith           1:26:53 LF25-29   41/222    329  8:42 1:25:19   CBS
 1074 245   Tracey Carter          1:26:53 LF35-39   68/268    330  8:42 1:26:48   CBS
 1075 3065  Tom Clark              1:26:54 LM50-54   76/145    745  8:42 1:25:48   Gander
 1076 1949  Kevin Tobin            1:26:55 LM50-54   77/145    746  8:42 1:25:41   CBS
 1077 1831  Karen O'Leary          1:26:56 LF45-49   39/206    331  8:42 1:25:52   St. John's
 1078 2783  Russell King           1:26:56 LM40-44   86/134    747  8:42 1:26:23   Musgravetown
 1079 210   Mike Dooling           1:26:57 LM25-29   79/107    748  8:42 1:24:37   St. John's
 1080 222   Wade Greeley           1:26:58 LM45-49   99/136    749  8:42 1:25:50   st. john's
 1081 2618  Bill O'Reilly          1:26:59 LM50-54   78/145    750  8:42 1:26:31   Placentia
 1082 1447  David Lacey            1:27:00 LM50-54   79/145    751  8:42 1:26:23   St. John's
 1083 752   Krista Matthews        1:27:00 LF35-39   69/268    332  8:42 1:26:16   St. John's
 1084 390   Kent Aitken            1:27:03 LM40-44   87/134    752  8:43 1:25:56   Gander
 1085 3030  Patricia Button        1:27:05 LF50-54   24/171    333  8:43 1:26:27   Grand Falls
 1086 2409  David Peddle           1:27:05 LM60-64   24/68     753  8:43 1:25:39   Eastport
 1087 1973  Randy Purchase         1:27:07 LM55-59   67/117    754  8:43 1:26:01   St. John's
 1088 42    Denise Holloway        1:27:08 LF35-39   70/268    334  8:43 1:26:35   Bloomfield
 1089 1435  Heidi Morris           1:27:09 LF20-24   38/119    335  8:43 1:26:37   St. John's
 1090 2461  Kerri Bojman           1:27:09 LF20-24   39/119    336  8:43 1:25:29   St. John's
 1091 2534  Tracey Glasgow         1:27:09 LF35-39   71/268    337  8:43 1:25:27   TORBAY
 1092 2453  Kim Legge              1:27:09 LF40-44   55/227    338  8:43 1:26:00   WITLESS BAY
 1093 2507  Stephanie Fung         1:27:10 LF25-29   42/222    339  8:43 1:25:30   Lower Sackville
 1094 1788  Michelle Brophy        1:27:11 LF40-44   56/227    340  8:44 1:25:52   St. John's
 1095 2414  Bevin Ledrew           1:27:13 LM65-69   11/30     755  8:44 1:26:58   St. John's
 1096 989   Lisa Lovelady          1:27:14 LF35-39   72/268    341  8:44 1:26:34   Conception Bay
 1097 1480  Rachel Peveril         1:27:15 LF20-24   40/119    342  8:44 1:25:59   St. John's
 1098 2894  Malcom Sheppard        1:27:15 LM20-24   61/71     756  8:44 1:27:00   Paradise
 1099 2006  Charlene Dunn          1:27:17 LF30-34   53/248    343  8:44 1:26:12   Portugal Cove
 1100 2892  Scott MacKay           1:27:18 LM50-54   80/145    757  8:44 1:24:58   St. Mary's
 1101 879   Linda Demott           1:27:20 LF50-54   25/171    344  8:44 1:26:34   Airdrie
 1102 2169  Dean Shano             1:27:21 LM45-49  100/136    758  8:45 1:27:03   St. John's
 1103 1236  Carla Pearce           1:27:21 LF40-44   57/227    345  8:45 1:26:10   Kippens
 1104 813   Loretta Johnson        1:27:24 LF50-54   26/171    346  8:45 1:26:35   Conception Bay
 1105 151   Clint Roberts          1:27:25 LM30-34   88/131    759  8:45 1:25:49   St. John's
 1106 1351  Bruce Smith            1:27:27 LM25-29   80/107    760  8:45 1:26:38   Witless Bay
 1107 898   Melvin Skiffington     1:27:29 LM35-39  129/189    761  8:45 1:26:35   st. john's
 1108 1299  Elizabeth Simms        1:27:30 LF35-39   73/268    347  8:45 1:25:56   St. John's
 1109 1782  Tina Lawlor            1:27:30 LF40-44   58/227    348  8:45 1:27:15   Paradise
 1110 827   Sonia Wiseman          1:27:31 LF35-39   74/268    349  8:46 1:25:59   musgravetown
 1111 1114  John McLean            1:27:32 LM55-59   68/117    762  8:46 1:26:21   St. John's
 1112 360   Michelle Williams      1:27:34 LF45-49   40/206    350  8:46 1:26:31   St. John's
 1113 303   Craig Cooze            1:27:35 LM40-44   88/134    763  8:46 1:26:46   Conception Bay
 1114 2642  Brittany Baril         1:27:36 LF20-24   41/119    351  8:46 1:24:50   Corner Brook
 1115 308   James Brookes          1:27:36 LM25-29   81/107    764  8:46 1:26:15   St. John's
 1116 1383  Cheryl Jacobs          1:27:37 LF35-39   75/268    352  8:46 1:27:11   Torbay
 1117 619   Diane Legrow           1:27:38 LF50-54   27/171    353  8:46 1:26:55   St. John's
 1118 483   Russell Francis        1:27:39 LM45-49  101/136    765  8:46 1:26:34   Ottawa
 1119 2844  Mark Doyle             1:27:39 LM-19     32/50     766  8:46 1:26:46   Goulds
 1120 1257  Vicki Lush             1:27:39 LF35-39   76/268    354  8:46 1:27:07   C.B.S.
 1121 519   Chris Kelloway         1:27:39 LM30-34   89/131    767  8:46 1:26:09   Mount Pearl
 1122 2736  Tammy Tiller           1:27:39 LF40-44   59/227    355  8:46 1:26:45   St. John's
 1123 1093  Janet Byrnes           1:27:40 LF25-29   43/222    356  8:46 1:24:54   Stephenville
 1124 1277  Darlene Martin         1:27:41 LF45-49   41/206    357  8:47 1:27:07   CBS
 1125 1048  Eileen O'Brien         1:27:42 LF45-49   42/206    358  8:47 1:25:17   Conception Bay
 1126 1784  Kyle White             1:27:42 LM-19     33/50     768  8:47 1:31:42   Witless Bay
 1127 1785  Tom Stack              1:27:43 LM45-49  102/136    769  8:47 1:31:43   Witless Bay
 1128 71    Jeff Pawley            1:27:43 LM35-39  130/189    770  8:47 1:26:44   Paradise
 1129 2557  Ron Murphy             1:27:46 LM50-54   81/145    771  8:47 1:27:08   Orangeville
 1130 2809  Gillian Pridham        1:27:47 LF50-54   28/171    359  8:47 1:26:31   St. John's
 1131 609   Angie Dalley           1:27:47 LF35-39   77/268    360  8:47 1:26:51   Gander
 1132 1332  Barry Goulding         1:27:47 LM40-44   89/134    772  8:47 1:27:05   Paradise
 1133 2914  Robyn Knott            1:27:48 LF45-49   43/206    361  8:47 1:27:10   Ottawa
 1134 2527  Anderson Noel          1:27:49 LM30-34   90/131    773  8:47 1:26:09   Mount Pearl
 1135 2992  Sarah Yetman           1:27:49 LF30-34   54/248    362  8:47 1:27:09   St. John's
 1136 676   Bob Alcock             1:27:54 LM55-59   69/117    774  8:48 1:26:46   Holyrood
 1137 585   Debbie Oakley          1:27:54 LF55-59   11/96     363  8:48 1:26:34   St. John's
 1138 1379  David Coffin           1:27:55 LM45-49  103/136    775  8:48 1:27:55   CBS
 1139 53    Joy Petch              1:27:58 LF50-54   29/171    364  8:48 1:26:38   Belleville
 1140 789   Ruby Penney            1:27:58 LF35-39   78/268    365  8:48 1:26:43   Burgeo
 1141 54    Bill Petch             1:27:59 LM50-54   82/145    776  8:48 1:26:39   Belleville
 1142 2804  Diane Pretty           1:28:01 LF55-59   12/96     366  8:49 1:27:42   Dildo
 1143 118   Stephanie Fitzpatrick  1:28:01 LF30-34   55/248    367  8:49 1:26:55   Paradise
 1144 2470  Shelley Greene-Cornick 1:28:01 LF40-44   60/227    368  8:49 1:26:38   Pasadena
 1145 3024  David Hannon           1:28:01 LM-19     34/50     777  8:49 1:26:35   St. John's
 1146 2845  Lori O'Brien           1:28:07 LF35-39   79/268    369  8:49 1:27:18   Bonavista
 1147 3036  Sharon Newman          1:28:08 LF45-49   44/206    370  8:49 1:27:38   St. John's
 1148 2757  Nathan Conway          1:28:08 LM-19     35/50     778  8:49 1:26:05   St.John's
 1149 323   Leah Bartlett          1:28:08 LF30-34   56/248    371  8:49 1:25:42   St. Philips
 1150 1685  Jordan Power           1:28:10 LM20-24   62/71     779  8:49 1:27:04   Torbay
 1151 959   Kevin McAleese         1:28:11 LM55-59   70/117    780  8:50 1:25:58   st. john's
 1152 1111  Tony Power             1:28:13 LM55-59   71/117    781  8:50 1:26:58   Mt Pearl
 1153 2027  Anthony Kearsey        1:28:13 LM50-54   83/145    782  8:50 1:27:19   St. John's
 1154 872   Cathy Andrews          1:28:14 LF60-64    2/56     372  8:50 1:27:35   St. john's
 1155 1130  Gerry Wade             1:28:16 LM55-59   72/117    783  8:50 1:27:04   St.John's
 1156 273   Victoria (tory) Greey  1:28:20 LF25-29   44/222    373  8:50 1:27:36   St. John's
 1157 1690  Gary Hancock           1:28:20 LM50-54   84/145    784  8:50 1:27:06   St. John's
 1158 1275  Wade Lambert           1:28:21 LM35-39  131/189    785  8:51 1:26:42   Paradise
 1159 2628  Anthony Stack          1:28:22 LM50-54   85/145    786  8:51 1:27:36   St. John's
 1160 1268  Bethany Saunders       1:28:23 LF20-24   42/119    374  8:51 1:27:38   St.John's
 1161 1327  Darrin Penney          1:28:24 LM30-34   91/131    787  8:51 1:26:29   Paradise
 1162 1661  Brad Norman            1:28:24 LM20-24   63/71     788  8:51 1:26:59   St. John's
 1163 1254  Heather Eveleigh       1:28:25 LF30-34   57/248    375  8:51 1:27:34   Lewisporte
 1164 270   David Percy            1:28:26 LM65-69   12/30     789  8:51 1:27:05   St. John's
 1165 221   Tom Fowler             1:28:27 LM40-44   90/134    790  8:51 1:27:01   Bay Roberts
 1166 782   Tracy Gillingham       1:28:27 LF40-44   61/227    376  8:51 1:27:36   Lewisporte
 1167 2338  Christina Loveless     1:28:28 LF30-34   58/248    377  8:51 1:27:06   St. John's
 1168 2223  Carla Humes            1:28:29 LF30-34   59/248    378  8:51 1:27:00   Burin Bay Arm
 1169 621   Sean O'Grady           1:28:31 LM40-44   91/134    791  8:52 1:27:52   st.john's
 1170 2683  Rosemary Sveinson      1:28:31 LF30-34   60/248    379  8:52 1:27:06   Greenwood
 1171 2428  Martin Hickey          1:28:32 LM40-44   92/134    792  8:52 1:27:13   Halifax
 1172 2363  William Goodridge      1:28:34 LM50-54   86/145    793  8:52 1:27:48   Corner Brook
 1173 3049  Jackie Kane            1:28:35 LF50-54   30/171    380  8:52 1:27:26   Renews
 1174 1209  Linda Leonard          1:28:37 LF55-59   13/96     381  8:52 1:26:56   Paradise
 1175 1455  Laura Brazil           1:28:37 LF25-29   45/222    382  8:52 1:26:40   St. John's
 1176 565   Brandon Honore         1:28:40 LM25-29   82/107    794  8:52 1:27:35   Mount Pearl
 1177 2877  Robert Harvey          1:28:41 LM60-64   25/68     795  8:53 1:27:50   St. John's
 1178 1082  Barb Westlake-Power    1:28:43 LF40-44   62/227    383  8:53 1:28:09   Hensall
 1179 2051  Elizabeth Murphy Smith 1:28:44 LF35-39   80/268    384  8:53 1:28:03   Mount Pearl
 1180 3021  John Seymour           1:28:44 LM50-54   87/145    796  8:53 1:27:07   Mount Pearl
 1181 1740  Ray Wadman             1:28:45 LM35-39  132/189    797  8:53 1:26:58   St. John's
 1182 490   Florence Barron        1:28:47 LF70-74    1/4      385  8:53 1:28:31   St. John's
 1183 2912  Kim George             1:28:47 LF30-34   61/248    386  8:53 1:27:47   Gander
 1184 1572  Denise Brinston        1:28:48 LF50-54   31/171    387  8:53 1:28:23   Witless Bay
 1185 2392  Warren Martin          1:28:48 LM35-39  133/189    798  8:53 1:27:46   St. John's
 1186 1185  Sarah Quinlan/powell   1:28:49 LF25-29   46/222    388  8:53 1:27:20   Bay Roberts
 1187 1789  Beverly Myles          1:28:49 LF35-39   81/268    389  8:53 1:27:24   St. John's
 1188 2824  Ken Vickers            1:28:51 LM55-59   73/117    799  8:54 1:28:30   Witless Bay
 1189 1574  Roxanne Bonnell        1:28:52 LF40-44   63/227    390  8:54 1:27:39   creston
 1190 743   Cynthia Ryan           1:28:53 LF50-54   32/171    391  8:54 1:27:50   Mount Pearl
 1191 1431  Trevor Greeley         1:28:54 LM35-39  134/189    800  8:54 1:27:55   CBS
 1192 2811  Peter Rogers           1:28:54 LM35-39  135/189    801  8:54 1:26:39   Portugal Cove -
 1193 2394  Brendan O'Connell      1:28:55 LM55-59   74/117    802  8:54 1:28:55   St. John's
 1194 2418  Shannon Higdon         1:28:56 LF20-24   43/119    392  8:54 1:26:58   Mount Pearl
 1195 2536  Rachael Facey          1:28:56 LF30-34   62/248    393  8:54 1:28:07   St. John's
 1196 833   Elaine Hynick          1:28:58 LF45-49   45/206    394  8:54 1:26:54   Portugal Cove-S
 1197 2815  Alicia Strapp          1:28:58 LF25-29   47/222    395  8:54 1:28:10   Paradise
 1198 383   James Bowden           1:28:59 LM55-59   75/117    803  8:54 1:28:45   St. John's
 1199 233   David Tanton           1:28:59 LM35-39  136/189    804  8:54 1:27:56   Gander
 1200 1180  Gerry Colbert          1:29:00 LM55-59   76/117    805  8:54 1:26:42   St. John's
 1201 1888  Tiffany Connors        1:29:01 LF20-24   44/119    396  8:55 1:27:49   Torbay
 1202 909   Erik Charron (aner)    1:29:06 LM25-29   83/107    806  8:55 1:27:08   Portugal Cove -
 1203 630   Renee Bonia            1:29:07 LF30-34   63/248    397  8:55 1:28:01   St. John's
 1204 1104  Juston King            1:29:08 LM30-34   92/131    807  8:55 1:27:23   St. John's
 1205 889   Dennis Flynn           1:29:08 LM40-44   93/134    808  8:55 1:26:47   Colliers
 1206 2720  Shawn Lewis            1:29:08 LM50-54   88/145    809  8:55 1:27:24   St. John's
 1207 1735  Sarah Furkalo          1:29:09 LF25-29   48/222    398  8:55 1:26:47   Mount Pearl
 1208 2179  Nadine Penton          1:29:09 LF35-39   82/268    399  8:55 1:28:26   Paradise
 1209 1899  Nancy Whittle          1:29:09 LF30-34   64/248    400  8:55 1:28:18   St. John's
 1210 2762  Colleen Taylor-Gosse   1:29:10 LF45-49   46/206    401  8:55 1:27:54   Paradise
 1211 3025  Amelia Clarke          1:29:13 LF20-24   45/119    402  8:56 1:28:42   St. John's
 1212 284   Eric Colbourne         1:29:13 LM65-69   13/30     810  8:56 1:27:38   Beaumont
 1213 1563  Todd Woodland          1:29:13 LM40-44   94/134    811  8:56 1:28:00   Mt. Pearl
 1214 1881  Sara Akin              1:29:13 LF25-29   49/222    403  8:56 1:27:51   Wolfville
 1215 2942  Sharon Sharpe          1:29:13 LF45-49   47/206    404  8:56 1:28:26   CBS
 1216 2874  Sylvia Howse           1:29:13 LF55-59   14/96     405  8:56 1:27:34   Glovertown
 1217 1045  Ewen Cameron           1:29:14 LM35-39  137/189    812  8:56 1:26:39   St. John's
 1218 2153  Tenille Slade          1:29:15 LF25-29   50/222    406  8:56 1:27:23   St.John's
 1219 1198  Matthew Foley          1:29:15 LM50-54   89/145    813  8:56 1:27:37   placentia
 1220 2833  Lisa Cook              1:29:16 LF45-49   48/206    407  8:56 1:28:24   St.John's
 1221 932   Gloria Brown           1:29:19 LF50-54   33/171    408  8:56 1:28:57   Goulds
 1222 2896  Adam Sheppard          1:29:20 LM20-24   64/71     814  8:56 1:29:04   Paradise
 1223 148   Katherine Hynes        1:29:21 LF20-24   46/119    409  8:57 1:28:05   St. John's
 1224 977   Tara Templeman         1:29:22 LF25-29   51/222    410  8:57 1:28:42   Torbay
 1225 2718  Renee Smith            1:29:22 LF25-29   52/222    411  8:57 1:27:59   St. John's
 1226 2788  Donna Mills            1:29:26 LF40-44   64/227    412  8:57 1:28:33   St. John's
 1227 848   Clyde Hillier          1:29:30 LM50-54   90/145    815  8:57 1:27:49   St. John's
 1228 849   Brenda Hillier         1:29:31 LF45-49   49/206    413  8:58 1:27:50   St. John's
 1229 1871  William Jameson        1:29:34 LM55-59   77/117    816  8:58 1:28:41   Harbour Main
 1230 897   Barbara Brenton        1:29:37 LF40-44   65/227    414  8:58 1:28:24   St. John
 1231 408   Samuel Russell         1:29:38 LM30-34   93/131    817  8:58 1:28:13   Paradise
 1232 2070  Joel O'Keefe           1:29:38 LM35-39  138/189    818  8:58 1:28:36   Toronto
 1233 2810  Julie Labonte          1:29:38 LF30-34   65/248    415  8:58 1:28:20   St. John's
 1234 1023  Lisa Edison            1:29:40 LF40-44   66/227    416  8:58 1:28:25   Springdale
 1235 1833  Richard Donnan         1:29:40 LM30-34   94/131    819  8:58 1:27:58   St. John's
 1236 2802  Byron Mercer           1:29:41 LF50-54   34/171    417  8:59 1:28:22   St. Phillips
 1237 586   Arlene Garchinski      1:29:41 LF35-39   83/268    418  8:59 1:28:44   BEAUMONT
 1238 550   Shirley Fagan          1:29:41 LF45-49   50/206    419  8:59 1:28:43   St.John's
 1239 2448  Joseph Gillam          1:29:43 LM30-34   95/131    820  8:59 1:27:01   St. John's
 1240 635   Robert Hyslop          1:29:44 LM60-64   26/68     821  8:59 1:28:33   St. John's
 1241 2146  Lori O'Keefe           1:29:45 LF40-44   67/227    420  8:59 1:28:49   Mt. Pearl
 1242 1860  Ashley Bonnell         1:29:47 LF20-24   47/119    421  8:59 1:29:32   St. John's
 1243 2629  Robyn Bishop           1:29:48 LF25-29   53/222    422  8:59 1:27:42   St. John's
 1244 325   Neal Tremblett         1:29:52 LM30-34   96/131    822  9:00 1:29:52   St. John's
 1245 2644  Kelly Matthews         1:29:52 LM35-39  139/189    823  9:00 1:28:51   Gander
 1246 2257  Donna Smith            1:29:53 LF50-54   35/171    423  9:00 1:28:18   CBS
 1247 2090  Heidi Tucker           1:29:54 LF25-29   54/222    424  9:00 1:28:46   Baie Verte
 1248 1533  Barry Jenkins          1:29:55 LM50-54   91/145    824  9:00 1:29:19   Conception Bay
 1249 672   Dave Dawe              1:29:58 LM65-69   14/30     825  9:00 1:28:42   Mount Pearl
 1250 2020  Christa Willar         1:29:58 LF30-34   66/248    425  9:00 1:27:56   Conception Bay
 1251 2798  Tim Warren             1:29:59 LM25-29   84/107    826  9:00 1:29:28   St. John's
 1252 900   Jennifer Howse         1:29:59 LF35-39   84/268    426  9:00 1:28:41   Gambo
 1253 1518  Mary-Beth Eason        1:30:00 LF20-24   48/119    427  9:00 1:29:07   St. john's
 1254 1519  Megan Eason            1:30:00 LF20-24   49/119    428  9:00 1:29:06   St. john's
 1255 604   Elizabeth Skanes       1:30:02 LF50-54   36/171    429  9:01 1:28:53   St. John's
 1256 1743  Ed Brenton             1:30:04 LM35-39  140/189    827  9:01 1:30:04   St.John's
 1257 302   Sandra Cable           1:30:05 LF55-59   15/96     430  9:01 1:28:48   C.B.S.
 1258 129   Janice Chin            1:30:07 LF30-34   67/248    431  9:01 1:28:47   Portugal Cove
 1259 2214  Colette Tuck5          1:30:08 LF40-44   68/227    432  9:01 1:28:53   springdale
 1260 938   Calvin Hunt            1:30:11 LM60-64   27/68     828  9:02 1:29:39   Paradise
 1261 969   Tina Timmons           1:30:11 LF35-39   85/268    433  9:02 1:28:53   Appleton
 1262 1963  Jack Hickman           1:30:12 LM50-54   92/145    829  9:02 1:29:12   St. John's
 1263 102   Gerry Penney           1:30:13 LM60-64   28/68     830  9:02 1:29:52   St. John's
 1264 844   Carl Johnson           1:30:14 LM55-59   78/117    831  9:02 1:28:45   Ferryland
 1265 213   Leeann O'Brien         1:30:15 LF35-39   86/268    434  9:02 1:29:06   St. John's
 1266 1579  Donald Decker          1:30:16 LM50-54   93/145    832  9:02 1:29:48   St. John's
 1267 1601  Conrad Freake          1:30:16 LM35-39  141/189    833  9:02 1:28:20   Conception Bay
 1268 618   Mary Davis             1:30:18 LF45-49   51/206    435  9:02 1:29:19   St.John's
 1269 1310  Natalie Holden         1:30:21 LF25-29   55/222    436  9:02 1:29:07   St. John's
 1270 611   Sonya Ivany            1:30:21 LF20-24   50/119    437  9:03 1:28:15   Gander
 1271 2773  Beverly Bromley        1:30:22 LF35-39   87/268    438  9:03 1:28:50   Paradise
 1272 2597  Lisa Dobbin            1:30:23 LF35-39   88/268    439  9:03 1:28:50   Pasadena
 1273 471   Kevin Pardy            1:30:23 LM70-74    2/13     834  9:03 1:30:05   St John's
 1274 2938  Sarah Smellie          1:30:23 LF30-34   68/248    440  9:03 1:28:57   St. John's
 1275 1042  Robert McDonald        1:30:23 LM45-49  104/136    835  9:03 1:28:39   Georgetown
 1276 625   Ruby Strang            1:30:24 LF45-49   52/206    441  9:03 1:29:00   Creston South
 1277 2822  Bill O'Keefe           1:30:24 LM50-54   94/145    836  9:03 1:27:37   St. John's
 1278 2655  Dana Tucker            1:30:28 LF30-34   69/248    442  9:03 1:28:51   Port Cove-St. P
 1279 1374  David Colford          1:30:29 LM50-54   95/145    837  9:03 1:29:15   St. John's
 1280 1852  Carly Hutchings        1:30:32 LF20-24   51/119    443  9:04 1:28:18   St. John's
 1281 1853  Colleen Beson          1:30:32 LF45-49   53/206    444  9:04 1:28:18   St. John's
 1282 2846  Daniel O'Brien         1:30:34 LM40-44   95/134    838  9:04 1:29:44   Bonavista
 1283 2023  Glenn Davis            1:30:36 LM40-44   96/134    839  9:04 1:29:09   St. John's
 1284 2686  Lindsay Kennedy        1:30:37 LF25-29   56/222    445  9:04 1:28:42   St. John's
 1285 2851  Michelle Corbett       1:30:37 LF25-29   57/222    446  9:04 1:28:41   St. John's
 1286 904   Monty Butt             1:30:38 LM35-39  142/189    840  9:04 1:29:39   Conception Bay
 1287 2137  Jim Eagan              1:30:41 LM50-54   96/145    841  9:04 1:29:19   Mount Pearl
 1288 583   Kellie Sim             1:30:41 LF20-24   52/119    447  9:05 1:29:02   St. John's
 1289 1389  Jean Bishop            1:30:42 LF45-49   54/206    448  9:05 1:28:30   Conception Bay
 1290 1     Rodney Parsons         1:30:43 LM45-49  105/136    842  9:05 1:29:07   Scarborough
 1291 1964  Joanne Hickman         1:30:43 LF45-49   55/206    449  9:05 1:29:44   St. John's
 1292 867   Mike Hayward           1:30:43 LM35-39  143/189    843  9:05 1:29:09   Mount Pearl
 1293 2949  Mark Stanford          1:30:44 LM35-39  144/189    844  9:05 1:29:51   St.John's
 1294 2489  Rhonda Valone          1:30:45 LF35-39   89/268    450  9:05 1:29:54   St. John's
 1295 1398  Janice Chaulk          1:30:46 LF50-54   37/171    451  9:05 1:30:21   St. John's
 1296 876   Patricia Murphy        1:30:47 LF60-64    3/56     452  9:05 1:30:23   St. John's
 1297 628   Sara West              1:30:47 LF25-29   58/222    453  9:05 1:29:09   St. John's
 1298 1022  Kimberly Williams      1:30:49 LF20-24   53/119    454  9:05 1:29:01   St. Philip's
 1299 1809  Donna Hauser           1:30:49 LF30-34   70/248    455  9:05 1:29:31   Logy Bay
 1300 2611  Jasmine Furlong        1:30:50 LF20-24   54/119    456  9:05 1:30:08   Mount Pearl
 1301 1123  Melissa Wheeler        1:30:51 LF20-24   55/119    457  9:06 1:29:43   st. John's
 1302 365   Nanette Power Goodridg 1:30:53 LF50-54   38/171    458  9:06 1:29:42   St. John's
 1303 1182  Randolph Churchill     1:30:53 LM60-64   29/68     845  9:06 1:30:29   CBS
 1304 1339  Bernadette Jerrett     1:30:55 LF55-59   16/96     459  9:06 1:29:39   St.John's
 1305 2974  Derek Peddle           1:30:56 LM40-44   97/134    846  9:06 1:26:25   Torbay
 1306 1535  Bill Sceviour          1:30:58 LM70-74    3/13     847  9:06 1:30:02   Lewisporte
 1307 802   Karen Linfield         1:30:59 LF45-49   56/206    460  9:06 1:29:38   Torbay
 1308 2939  Stephanie Genge        1:31:00 LF45-49   57/206    461  9:06 1:28:21   St. John's
 1309 1306  Chris Furey            1:31:01 LM35-39  145/189    848  9:07 1:30:08   St. John's
 1310 2427  Kari Brown             1:31:02 LF40-44   69/227    462  9:07 1:29:58   St.John's
 1311 2816  Cheryl Cullen          1:31:03 LF30-34   71/248    463  9:07 1:29:43   St. John's
 1312 2542  Susette Farrell        1:31:06 LF45-49   58/206    464  9:07 1:29:32   Corner Brook
 1313 1076  Michelle Perchard      1:31:06 LF35-39   90/268    465  9:07 1:30:26   Mount Pearl
 1314 974   Christine Reid         1:31:08 LF40-44   70/227    466  9:07 1:27:56   Glenwood
 1315 2678  Shane Halley           1:31:08 LM35-39  146/189    849  9:07 1:29:12   Torbay
 1316 2188  Mike Carew             1:31:09 LM40-44   98/134    850  9:07 1:30:39   St.John's
 1317 2407  Kristine Nolan         1:31:10 LF20-24   56/119    467  9:07 1:29:42   Mount Carmel
 1318 2091  Dwayne Bursey          1:31:10 LM35-39  147/189    851  9:07 1:29:19   Marystown
 1319 2466  Erin Hennessey         1:31:11 LF30-34   72/248    468  9:08 1:29:48   St. John's
 1320 1705  Joanne Day             1:31:13 LF35-39   91/268    469  9:08 1:30:11   Lacombe
 1321 2406  Margot Walsh           1:31:15 LF50-54   39/171    470  9:08 1:30:14   Halifax
 1322 246   Susan Manning          1:31:15 LF35-39   92/268    471  9:08 1:29:26   Torbay
 1323 3020  Mel Cake               1:31:15 LM55-59   79/117    852  9:08 1:30:14   Conception Bay
 1324 2643  Marilyn Pittman-Cake   1:31:18 LF45-49   59/206    472  9:08 1:30:17   CONCEPTION BAY
 1325 1824  John Kennedy           1:31:19 LM40-44   99/134    853  9:08 1:29:54   Mount Pearl
 1326 1709  Mary Pippy             1:31:22 LF50-54   40/171    473  9:09 1:30:50   St. John's
 1327 2372  Brenda Burke           1:31:23 LF50-54   41/171    474  9:09 1:29:32   MT. PEARL
 1328 1347  Charlotte Strong       1:31:24 LF60-64    4/56     475  9:09 1:30:03   St. John's
 1329 1312  Karla Noseworthy       1:31:25 LF25-29   59/222    476  9:09 1:30:37   Paradise
 1330 2690  Tara Allison           1:31:25 LF25-29   60/222    477  9:09 1:31:25   St. John's
 1331 109   Trish Smith            1:31:26 LF25-29   61/222    478  9:09 1:30:18   Baie Verte
 1332 513   Derek Osmond           1:31:27 LM60-64   30/68     854  9:09 1:30:18   St. John's NL
 1333 3069  Nicklas Coleman        1:31:27 LM25-29   85/107    855  9:09 1:31:27   Corner Brook
 1334 1129  Renee Roule            1:31:28 LF40-44   71/227    479  9:09 1:30:07   Conception Bay
 1335 3070  Meghan Coleman         1:31:28 LF30-34   73/248    480  9:09 1:31:28   Corner Brook
 1336 2098  Sarah Squires          1:31:28 LF-19      7/42     481  9:09 1:30:22   St.John's
 1337 623   Scott Mathieson        1:31:29 LM25-29   86/107    856  9:09 1:29:38   St. John's
 1338 1407  Stephanie Kane         1:31:29 LF25-29   62/222    482  9:09 1:28:54   St. John's
 1339 1034  Joseph McDonald        1:31:30 LM50-54   97/145    857  9:09 1:29:45   Carbonear
 1340 96    Victoria Clarke        1:31:35 LF30-34   74/248    483  9:10 1:30:05   Paradise
 1341 1744  Tiffany Ludwicki       1:31:39 LF25-29   63/222    484  9:10 1:29:47   paradise
 1342 143   Kimberly Pumphrey      1:31:40 LF30-34   75/248    485  9:10 1:29:49   Calgary
 1343 299   Pierrette Kavanagh     1:31:41 LF40-44   72/227    486  9:11 1:30:52   Conception Bay
 1344 429   Tracy Lundrigan        1:31:42 LF35-39   93/268    487  9:11 1:31:11   conception bay
 1345 1205  Matt Wells             1:31:43 LM30-34   97/131    858  9:11 1:29:20   St. John's
 1346 2519  John Leonard           1:31:43 LM50-54   98/145    859  9:11 1:31:20   Colliers
 1347 171   Sarah Melbourne        1:31:44 LF30-34   76/248    488  9:11 1:31:44   Paradise
 1348 324   Renee Fowlow           1:31:44 LF40-44   73/227    489  9:11 1:30:44   Corner Brook
 1349 2936  Kim Furlong            1:31:45 LF45-49   60/206    490  9:11 1:30:10   St. John's
 1350 1960  Kimberley Hickman      1:31:46 LF20-24   57/119    491  9:11 1:30:46   St. John's
 1351 464   Regina Coady           1:31:46 LF50-54   42/171    492  9:11 1:31:20   St.John's
 1352 832   David Hill             1:31:46 LM35-39  148/189    860  9:11 1:30:20   St. John's
 1353 1576  Eric Sheppard          1:31:47 LM55-59   80/117    861  9:11 1:29:37   St. John's
 1354 1029  Janice Kennedy         1:31:48 LF30-34   77/248    493  9:11 1:30:00   St. John's
 1355 154   Mona Cabot             1:31:48 LF45-49   61/206    494  9:11 1:31:17   Happy Valley-Go
 1356 971   Sarah Cole             1:31:49 LF30-34   78/248    495  9:11 1:30:01   St. Johns
 1357 3064  Sarah Penton           1:31:51 LF20-24   58/119    496  9:12 1:30:47   Gander
 1358 2853  Robyn Hollohan         1:31:51 LF20-24   59/119    497  9:12 1:29:26   St. John's
 1359 1702  Anna Sparkes           1:31:51 LF25-29   64/222    498  9:12 1:31:15   St. John's
 1360 2463  Clara Penny            1:31:52 LF30-34   79/248    499  9:12 1:30:16   St. John's
 1361 1377  Keely Coombs           1:31:53 LF45-49   62/206    500  9:12 1:30:06   MT. PEARL
 1362 1945  Kim Downs              1:31:56 LF40-44   74/227    501  9:12 1:30:11   St. John's
 1363 2813  Kathleen Dempsey       1:31:58 LF20-24   60/119    502  9:12 1:30:05   Paradise
 1364 477   Greg Hagerty           1:31:58 LM40-44  100/134    862  9:12 1:31:19   Conception Bay
 1365 2825  Craig Drover           1:31:58 LM30-34   98/131    863  9:12 1:30:15   St. John's
 1366 72    Dianne Peckford        1:31:59 LF65-69    1/11     503  9:12 1:30:28   Doyles
 1367 208   Lorne Durnford         1:32:01 LM25-29   87/107    864  9:13 1:30:33   paradise
 1368 2962  Shalanda Phillips      1:32:01 LF25-29   65/222    504  9:13 1:30:20   St. John's
 1369 1417  Matthew White          1:32:01 LM30-34   99/131    865  9:13 1:31:14   St. John's
 1370 2725  Geoff Perry            1:32:02 LM45-49  106/136    866  9:13 1:29:47   Paradise
 1371 516   Deanna Toope           1:32:04 LF40-44   75/227    505  9:13 1:31:13   St. John's
 1372 1334  Christine Auger        1:32:04 LF25-29   66/222    506  9:13 1:29:45   St. John's
 1373 2741  Janet Spurrell         1:32:05 LF45-49   63/206    507  9:13 1:30:25   Come by Chance
 1374 2131  Michael Hunt           1:32:05 LM20-24   65/71     867  9:13 1:31:23   Mount Pearl
 1375 1273  Martha McGrath         1:32:06 LF40-44   76/227    508  9:13 1:30:37   Ottawa
 1376 706   Barry Dancher          1:32:06 LM60-64   31/68     868  9:13 1:30:51   San Diego
 1377 1208  Evan Porter            1:32:07 LM25-29   88/107    869  9:13 1:31:21   St. John's
 1378 567   Alicia Bailey          1:32:07 LF20-24   61/119    509  9:13 1:30:25   Victoria
 1379 137   Neil Hyde              1:32:07 LM30-34  100/131    870  9:13 1:30:32   St. John's
 1380 1532  Bernard Hynes          1:32:08 LM60-64   32/68     871  9:13 1:30:51   St. John's
 1381 2667  Kathleen White         1:32:09 LF25-29   67/222    510  9:13 1:31:10   Carbonear
 1382 2986  Sheila White           1:32:10 LF30-34   80/248    511  9:13 1:31:12   Carbonear
 1383 2585  Roger Deveaux          1:32:12 LM40-44  101/134    872  9:14 1:31:01   Chamberlains CB
 1384 788   Jillian Callan         1:32:14 LF30-34   81/248    512  9:14 1:30:57   C.B.S.
 1385 2996  Kelia Pond             1:32:15 LF-19      8/42     513  9:14 1:29:34   Pond
 1386 1253  Breena Power           1:32:17 LF-19      9/42     514  9:14 1:29:36   Goulds
 1387 158   Angela Millett         1:32:18 LF30-34   82/248    515  9:14 1:29:59   Corner Brook
 1388 930   Callum Lawlor          1:32:20 LM-19     36/50     873  9:14 1:31:48   St. John's
 1389 2472  Melissa Squires        1:32:20 LF30-34   83/248    516  9:14 1:30:43   Paradise
 1390 1174  Anne Menchinton        1:32:21 LF35-39   94/268    517  9:15 1:32:06   Mount Pearl
 1391 321   Elaine Dinn            1:32:22 LF50-54   43/171    518  9:15 1:31:53   Witless Bay
 1392 2707  Herman Perry           1:32:23 LM60-64   33/68     874  9:15 1:29:20   St. John's
 1393 2613  Eddy Tucker            1:32:24 LM25-29   89/107    875  9:15 1:30:58   st johns
 1394 342   Kora Duffett           1:32:25 LF30-34   84/248    519  9:15 1:30:20   St. John's
 1395 2561  Angela Hull            1:32:25 LF30-34   85/248    520  9:15 1:31:07   Rainbow Lake
 1396 2735  Sheila Griffths-Beresf 1:32:25 LF50-54   44/171    521  9:15 1:30:37   St. John's
 1397 1905  Karen Renouf           1:32:26 LF45-49   64/206    522  9:15 1:30:58   Paradise
 1398 1427  Denise Shea            1:32:26 LF45-49   65/206    523  9:15 1:31:18   St. John's
 1399 2537  Kerry Yates            1:32:27 LF40-44   77/227    524  9:15 1:30:52   CORNER BROOK
 1400 310   Jennifer Swyers        1:32:27 LF25-29   68/222    525  9:15 1:31:22   Logy Bay
 1401 1348  Kiera Galway           1:32:28 LF25-29   69/222    526  9:15 1:30:41   Toronto
 1402 1344  Glenn Combden          1:32:29 LM35-39  149/189    876  9:15 1:30:19   Torbay
 1403 1739  Stan Dawson            1:32:31 LM50-54   99/145    877  9:16 1:31:42   Paradise
 1404 2530  Jana Walsh             1:32:31 LF35-39   95/268    527  9:16 1:30:57   Corner Brook
 1405 1722  Gary Eason             1:32:35 LM55-59   81/117    878  9:16 1:31:54   Conception Bay
 1406 1119  April Coles            1:32:40 LF25-29   70/222    528  9:16 1:32:40   Flatrock
 1407 965   Wade Lucas             1:32:41 LM35-39  150/189    879  9:17 1:31:07   Torbay
 1408 2387  Natalie Shea           1:32:43 LF40-44   78/227    529  9:17 1:29:17   Portugal Cove S
 1409 359   Richard Kelly          1:32:43 LM25-29   90/107    880  9:17 1:30:43   St. John's
 1410 2968  Sandy Mercer           1:32:44 LF40-44   79/227    530  9:17 1:31:26   St. John's
 1411 589   Jenny Seeman           1:32:44 LF35-39   96/268    531  9:17 1:31:14   St. John's
 1412 2486  Jacqueline Verge       1:32:45 LF45-49   66/206    532  9:17 1:31:18   St. John's NL
 1413 1768  Gail Ryan              1:32:45 LF35-39   97/268    533  9:17 1:31:18   Paradise
 1414 878   Rachelle Cochrane      1:32:51 LF50-54   45/171    534  9:18 1:31:50   St. John's
 1415 972   Linda Hensman          1:32:51 LF55-59   17/96     535  9:18 1:31:46   St. Johns
 1416 3014  Colleen Taylor         1:32:56 LF30-34   86/248    536  9:18 1:32:00   Paradise
 1417 2401  Judy Furlong-Mallard   1:32:57 LF45-49   67/206    537  9:18 1:32:20   St. Philips
 1418 350   Mike Button            1:32:58 LM35-39  151/189    881  9:18 1:31:34   St. John's
 1419 301   Joanne Cooze           1:32:59 LF40-44   80/227    538  9:18 1:32:09   Conception Bay
 1420 1872  Lori Harte             1:33:01 LF35-39   98/268    539  9:19 1:31:31   Torbay
 1421 1337  Rebecca Howell         1:33:01 LF-19     10/42     540  9:19 1:32:05   Small Point
 1422 1711  Amanda Penney          1:33:03 LF25-29   71/222    541  9:19 1:32:22   Mount Pearl
 1423 595   Brenda Peckford        1:33:05 LF50-54   46/171    542  9:19 1:31:44   St John's
 1424 282   Carolyn O'Keefe        1:33:05 LF30-34   87/248    543  9:19 1:32:14   Placentia
 1425 2991  Fred Nicols            1:33:06 LM45-49  107/136    882  9:19 1:31:09   St. John's
 1426 1600  Tara Croft             1:33:08 LF25-29   72/222    544  9:19 1:32:14   Paradise
 1427 2545  James Loder            1:33:10 LM40-44  102/134    883  9:19 1:31:59   Mount Pearl
 1428 1070  Andy Harrison          1:33:11 LM55-59   82/117    884  9:19 1:31:10   St.John's
 1429 1985  Laurie Scurrey         1:33:12 LF35-39   99/268    545  9:20 1:32:10   Paradise
 1430 1465  Maria Veitch           1:33:12 LF25-29   73/222    546  9:20 1:31:34   St. John's
 1431 2657  Denis Barry            1:33:13 LM60-64   34/68     885  9:20 1:31:38   St. John's
 1432 1457  Michael Dinn           1:33:13 LM45-49  108/136    886  9:20 1:33:13   St. John's
 1433 822   Robert Angel           1:33:13 LM60-64   35/68     887  9:20 1:31:48   St. John's
 1434 251   Beverly King           1:33:14 LF40-44   81/227    547  9:20 1:32:26   conception bay
 1435 1434  Barbara Simmonds       1:33:14 LF60-64    5/56     548  9:20 1:30:48   cbs
 1436 1355  Kenneth Stockley       1:33:15 LM40-44  103/134    888  9:20 1:33:15   Mount Pearl
 1437 980   Amanda Langdon         1:33:16 LF25-29   74/222    549  9:20 1:33:16   St. John's
 1438 1001  Elizabeth Burt         1:33:16 LF25-29   75/222    550  9:20 1:32:02   Calgary
 1439 601   Julie Burke            1:33:17 LF25-29   76/222    551  9:20 1:32:14   St. John's
 1440 2652  Eddie Whelan           1:33:17 LM20-24   66/71     889  9:20 1:32:02   Paradise
 1441 1997  Christopher Whelan     1:33:18 LM50-54  100/145    890  9:20 1:32:14   Paradise
 1442 1164  Barry Brophy           1:33:19 LM45-49  109/136    891  9:20 1:33:19   Mount Pearl
 1443 1730  Chris King             1:33:20 LM30-34  101/131    892  9:20 1:31:42   St. John's
 1444 1025  John Chapman           1:33:21 LM35-39  152/189    893  9:21 1:31:20   Ashton
 1445 1026  Tracey Sexton          1:33:21 LF40-44   82/227    552  9:21 1:31:21   St. John's
 1446 1849  Brad Pearcey           1:33:22 LM-19     37/50     894  9:21 1:32:24   Clarenville
 1447 2334  Deborah Evans          1:33:22 LF35-39  100/268    553  9:21 1:31:53   Edmonton
 1448 781   Paul Benson            1:33:23 LM55-59   83/117    895  9:21 1:32:52   Petty Harbour
 1449 98    Barbara Butler         1:33:24 LF50-54   47/171    554  9:21 1:31:30   St. John's
 1450 3050  Karina Zavala          1:33:25 LF35-39  101/268    555  9:21 1:31:43   St. John's
 1451 2417  Melissa Jones          1:33:28 LF30-34   88/248    556  9:21 1:30:55   St. John's
 1452 576   Susan Collins          1:33:28 LF30-34   89/248    557  9:21 1:31:49   St. John's
 1453 2803  Lorraine Barnett       1:33:29 LF45-49   68/206    558  9:21 1:32:28   Holyrood
 1454 973   Patricia Goodwin       1:33:29 LF35-39  102/268    559  9:21 1:32:10   Appleton
 1455 426   Donna Hussey           1:33:30 LF45-49   69/206    560  9:21 1:31:05   St. John's
 1456 1676  Thomas Grant           1:33:32 LM-19     38/50     896  9:22 1:31:02   St. John's
 1457 2771  Madelaine Hynes        1:33:32 LF25-29   77/222    561  9:22 1:32:14   St. John's
 1458 3002  Marion Yetman          1:33:36 LF60-64    6/56     562  9:22 1:32:37   St. John's
 1459 1485  Brian Porter           1:33:37 LM50-54  101/145    897  9:22 1:32:29   St. John's
 1460 1631  Dean Courage           1:33:38 LM25-29   91/107    898  9:22 1:31:43   St. John's
 1461 454   Paula French           1:33:39 LF40-44   83/227    563  9:22 1:32:19   ST. JOHN'S
 1462 2950  Perry Cahill           1:33:40 LM45-49  110/136    899  9:22 1:31:47   Torbay
 1463 2951  Barry Constantine      1:33:41 LM45-49  111/136    900  9:23 1:31:48   St. John's
 1464 1889  Sharon Collins         1:33:42 LF25-29   78/222    564  9:23 1:32:13   St. John's
 1465 590   Mark O'Rielly          1:33:42 LM30-34  102/131    901  9:23 1:32:12   St. John's
 1466 1847  Christine Byers        1:33:42 LF30-34   90/248    565  9:23 1:32:00   St. John's
 1467 885   Alice Kennedy          1:33:45 LF50-54   48/171    566  9:23 1:33:03   St. John's
 1468 1250  Valerie Martin-Halley  1:33:47 LF40-44   84/227    567  9:23 1:32:47   CBS
 1469 2673  Jane Morgan            1:33:48 LF50-54   49/171    568  9:23 1:32:51   St. John's
 1470 1580  Betty Shea             1:33:49 LF55-59   18/96     569  9:23 1:32:52   St. John's
 1471 2308  Carole Charlebois      1:33:49 LF60-64    7/56     570  9:23 1:32:53   Navan
 1472 1578  Douglas Shea           1:33:49 LM55-59   84/117    902  9:23 1:32:52   St. John's
 1473 1807  Cathy Cook             1:33:50 LF45-49   70/206    571  9:23 1:33:50   St. John's
 1474 1019  Peter Bursey           1:33:52 LM55-59   85/117    903  9:24 1:32:55   Lewisporte
 1475 594   Lisa Haines            1:33:54 LF35-39  103/268    572  9:24 1:32:03   CBS
 1476 2976  Brandon MacDonald      1:33:58 LM35-39  153/189    904  9:24 1:31:26   St. John's
 1477 68    Melinda Saunders       1:34:00 LF35-39  104/268    573  9:24 1:31:45   Conception Bay
 1478 716   Tracy Sheehan          1:34:04 LF35-39  105/268    574  9:25 1:32:47   CBS
 1479 1458  Nicole Newell          1:34:10 LF25-29   79/222    575  9:25 1:32:36   Gander
 1480 2069  Michelle Skinner       1:34:11 LF45-49   71/206    576  9:26 1:32:57   Kippens
 1481 1231  Echo Pittman           1:34:14 LF35-39  106/268    577  9:26 1:32:24   Outer Cove
 1482 26    Julia Warren           1:34:17 LF25-29   80/222    578  9:26 1:32:56   Mount Pearl
 1483 2236  Derm Ennis             1:34:18 LM50-54  102/145    905  9:26 1:33:23   St. John's
 1484 2446  Jane Stewart           1:34:19 LF45-49   72/206    579  9:26 1:34:11   Halifax
 1485 2072  Lindsey Saunders       1:34:20 LF25-29   81/222    580  9:26 1:33:37   St. John's
 1486 31    Blair Boland           1:34:21 LM35-39  154/189    906  9:27 1:33:10   St. John's
 1487 1072  Michelle Moore         1:34:22 LF25-29   82/222    581  9:27 1:32:44   Buchans
 1488 2791  Gerald Horluck         1:34:22 LM75-79    2/3      907  9:27 1:32:42   Mount Pearl
 1489 1214  Kayla Philpott         1:34:23 LF20-24   62/119    582  9:27 1:33:42   Conception Bay
 1490 1708  Susan Day              1:34:27 LF35-39  107/268    583  9:27 1:33:25   St. John's
 1491 381   David Liverman         1:34:27 LM55-59   86/117    908  9:27 1:32:33   St.John's
 1492 2614  Lorelei Dean           1:34:28 LF45-49   73/206    584  9:27 1:33:49   Holyrood
 1493 2583  Shannon Barker         1:34:28 LM35-39  155/189    909  9:27 1:32:56   St Phillips
 1494 1213  Carol Donahue          1:34:30 LF45-49   74/206    585  9:27 1:32:59   Appleton
 1495 474   Madeline Snelgrove     1:34:30 LF45-49   75/206    586  9:27 1:34:30   Conception Bay
 1496 527   Michael Clements       1:34:32 LM60-64   36/68     910  9:28 1:33:21   Torbay
 1497 2659  Heidi Skinner          1:34:32 LF20-24   63/119    587  9:28 1:34:22   St. John's
 1498 1858  Michelle Bonnell       1:34:33 LF40-44   85/227    588  9:28 1:34:17   St. John's
 1499 2350  Gloria Barnes          1:34:33 LF40-44   86/227    589  9:28 1:32:44   Summerford
 1500 1343  Daniel MacDonell       1:34:35 LM60-64   37/68     911  9:28 1:32:36   Port Hawkesbury
 1501 2719  Tammie Taylor          1:34:37 LF30-34   91/248    590  9:28 1:32:50   Shelbourne
 1502 476   Stacy Hagerty          1:34:37 LF40-44   87/227    591  9:28 1:33:11   Conception Bay
 1503 2234  Carl Robbins           1:34:38 LM35-39  156/189    912  9:28 1:31:03   Clarenville
 1504 649   Allison Stead          1:34:39 LF25-29   83/222    592  9:28 1:32:43   St. John's
 1505 733   Denise Clark           1:34:40 LF40-44   88/227    593  9:28 1:33:44   Mount Pearl
 1506 759   Fred Pearce            1:34:40 LM50-54  103/145    913  9:28 1:33:33   St. John's
 1507 2365  Brittany Bolt          1:34:41 LF-19     11/42     594  9:29 1:33:12   CBS
 1508 549   Stuart Gill            1:34:41 LM30-34  103/131    914  9:29 1:32:26   St. John's
 1509 548   Kathrin Ballerstaedt   1:34:42 LF30-34   92/248    595  9:29 1:32:28   St. John's
 1510 605   Nicole Cranford        1:34:43 LF20-24   64/119    596  9:29 1:33:16   CBS
 1511 1569  Trudy Murray           1:34:43 LF55-59   19/96     597  9:29 1:33:18   St. John's
 1512 334   Carly Gamberg-Baldwin  1:34:43 LF30-34   93/248    598  9:29 1:33:16   CBS
 1513 348   Christopher Fewer      1:34:43 LM25-29   92/107    915  9:29 1:33:15   St. John's
 1514 783   Valerie Earles         1:34:43 LF50-54   50/171    599  9:29 1:33:27   st. john's
 1515 843   Kim Eddy               1:34:44 LF35-39  108/268    600  9:29 1:33:18   CBS
 1516 48    Katrina Smith          1:34:46 LF50-54   51/171    601  9:29 1:32:46   Cole Harbour
 1517 2054  Jackie Dale            1:34:48 LF50-54   52/171    602  9:29 1:33:31   ST JOHN'S
 1518 1156  Donald Butt            1:34:49 LM65-69   15/30     916  9:29 1:33:05   Carbonear
 1519 2018  Greg Smith             1:34:49 LM50-54  104/145    917  9:29 1:34:13   Mt. Pearl
 1520 2660  Kathy Gough            1:34:50 LF45-49   76/206    603  9:29 1:34:39   St. John's
 1521 287   Roxanne Pritchett      1:34:50 LF30-34   94/248    604  9:29 1:34:04   St.John's
 1522 1929  Aaron Mawhinney        1:34:51 LM30-34  104/131    918  9:30 1:32:43   Mount Pearl
 1523 684   Evelyn Austin          1:34:52 LF50-54   53/171    605  9:30 1:34:52   Lewisporte
 1524 1764  Bob Wells              1:34:54 LM60-64   38/68     919  9:30 1:33:38   CBS
 1525 2588  Tina Legge             1:34:54 LF35-39  109/268    606  9:30 1:33:30   Burin
 1526 1547  Brandon Kalbfleisch    1:34:55 LM-19     39/50     920  9:30 1:32:21   Mount Pearl
 1527 1352  Maureen Harvey         1:34:57 LF50-54   54/171    607  9:30 1:32:30   Conception Bay
 1528 1432  Lorraine Smith         1:34:59 LF50-54   55/171    608  9:30 1:32:44   Grand Falls-Win
 1529 2383  Harold Payne           1:35:01 LM60-64   39/68     921  9:31 1:33:29   Robert's Arm
 1530 1664  Geraldine Murray       1:35:02 LF50-54   56/171    609  9:31 1:33:45   Paradise
 1531 2915  Todd Walsh             1:35:03 LM40-44  104/134    922  9:31 1:34:03   St. John's
 1532 1166  Lou Kendell            1:35:04 LM50-54  105/145    923  9:31 1:32:52   Gander
 1533 164   Jade Kendell           1:35:04 LF25-29   84/222    610  9:31 1:32:53   Gander
 1534 603   Sharon Connolly        1:35:05 LF55-59   20/96     611  9:31 1:34:09   St.John's
 1535 277   Michelle Davis         1:35:05 LF30-34   95/248    612  9:31 1:33:11   Logy Bay
 1536 868   Sean Bushey            1:35:06 LM40-44  105/134    924  9:31 1:33:48   CBS
 1537 870   Elaine Finlay          1:35:06 LF40-44   89/227    613  9:31 1:33:48   CBS
 1538 1256  Lynn Dwyer             1:35:07 LF50-54   57/171    614  9:31 1:33:35   St. John's
 1539 570   Sarah Wells            1:35:07 LF25-29   85/222    615  9:31 1:32:45   St. John's
 1540 1107  Henry Power            1:35:09 LM45-49  112/136    925  9:31 1:33:49   Paradise
 1541 1987  Andrew Rowe            1:35:10 LM25-29   93/107    926  9:31 1:32:34   St. John's
 1542 2953  Noreen Croft           1:35:11 LF50-54   58/171    616  9:32 1:34:17   Mount Pearl
 1543 942   Gloria George          1:35:12 LF45-49   77/206    617  9:32 1:32:41   st johns
 1544 1637  Bala Murthy            1:35:15 LF60-64    8/56     618  9:32 1:33:53   st. john's
 1545 1594  Ed Kavanagh            1:35:16 LM55-59   87/117    927  9:32 1:33:38   Mount Pearl
 1546 1616  Madonna Warren         1:35:16 LF45-49   78/206    619  9:32 1:34:03   Stephenville
 1547 1857  Lori-Ann Leamon        1:35:16 LF40-44   90/227    620  9:32 1:34:03   Kippens
 1548 2026  Jennifer Donnan        1:35:18 LF25-29   86/222    621  9:32 1:33:37   St. John's
 1549 2194  Deanna Diamond         1:35:20 LF25-29   87/222    622  9:32 1:34:34   ST.JOHN'S
 1550 2009  Edward O'Brien         1:35:22 LM55-59   88/117    928  9:33 1:32:33   Dunville
 1551 1068  Barbara Molgaard Blake 1:35:23 LF40-44   91/227    623  9:33 1:34:19   Straitsview
 1552 3     Leslie Rodgers         1:35:24 LF25-29   88/222    624  9:33 1:32:57   Nepean
 1553 314   Melissa Butler         1:35:25 LF30-34   96/248    625  9:33 1:32:10   Yellowknife
 1554 1887  Janette Mendez-Santiag 1:35:26 LF40-44   92/227    626  9:33 1:34:27   St. John's
 1555 1031  Walter Smith           1:35:27 LM60-64   40/68     929  9:33 1:34:35   Paradise
 1556 1274  Tracy Lacey            1:35:28 LF40-44   93/227    627  9:33 1:35:28   Torbay
 1557 968   Kerry Hatfield         1:35:29 LF35-39  110/268    628  9:33 1:33:28   St. John's
 1558 1491  Dave Armstrong         1:35:29 LM55-59   89/117    930  9:33 1:33:16   St. John's
 1559 681   Glenda O'Neill         1:35:31 LF40-44   94/227    629  9:34 1:34:28   Paradise
 1560 2661  Lorne Bennett          1:35:33 LM45-49  113/136    931  9:34 1:34:09   Paradise
 1561 9     Lorraine Redpath       1:35:34 LF40-44   95/227    630  9:34 1:33:47   Sayward
 1562 405   Neil Ryan              1:35:34 LM45-49  114/136    932  9:34 1:33:24   Middle Cove
 1563 771   Valerie Hannaford      1:35:37 LF40-44   96/227    631  9:34 1:34:32   Paradise
 1564 2371  Max Morris             1:35:38 LM50-54  106/145    933  9:34 1:35:00   paradise
 1565 1573  Lyman Keeping          1:35:38 LM55-59   90/117    934  9:34 1:34:34   Garnish
 1566 417   Ruby Carter            1:35:38 LF45-49   79/206    632  9:34 1:34:20   Paradise
 1567 2983  Kelly Johnson          1:35:38 LF35-39  111/268    633  9:34 1:34:43   St. John's
 1568 2777  Bob Buckingham         1:35:39 LM60-64   41/68     935  9:34 1:34:03   St. John's
 1569 2745  Noreen O'Neil          1:35:39 LF55-59   21/96     634  9:34 1:34:35   St. John's
 1570 481   Karen Mearow           1:35:40 LF55-59   22/96     635  9:34 1:34:41   Portugal Cove
 1571 721   Shelley Sullivan       1:35:49 LF40-44   97/227    636  9:35 1:33:32   Grand Falls - W
 1572 1918  Derrick Turner         1:35:52 LM35-39  157/189    936  9:36 1:33:45   Paradise
 1573 2197  Krista Butt            1:35:53 LF30-34   97/248    637  9:36 1:34:37   Paradise
 1574 881   Reanne Meuse           1:35:54 LF25-29   89/222    638  9:36 1:34:30   Outer Cove
 1575 2121  Susan King             1:35:55 LF30-34   98/248    639  9:36 1:33:54   Mount Pearl
 1576 2869  Ashley Power-Stack     1:35:55 LF25-29   90/222    640  9:36 1:34:08   St. John's
 1577 524   Wanda Frampton         1:35:55 LF50-54   59/171    641  9:36 1:34:35   St John's
 1578 2926  Nikita Ryall           1:35:56 LF20-24   65/119    642  9:36 1:33:53   St. John's
 1579 688   Linda Ennis            1:35:57 LF45-49   80/206    643  9:36 1:34:47   Holyrood
 1580 521   Chris Chaulk           1:35:57 LM50-54  107/145    937  9:36 1:33:35   St. John's
 1581 1160  Peggy Doyle            1:35:57 LF50-54   60/171    644  9:36 1:33:35   Con. Bay
 1582 2314  David Downton          1:35:57 LM60-64   42/68     938  9:36 1:33:29   Torbay
 1583 2468  Tom Brophy             1:35:57 LM40-44  106/134    939  9:36 1:34:15   Torbay
 1584 2256  Adele Walsh            1:35:58 LF50-54   61/171    645  9:36 1:34:22   Logy Bay
 1585 846   Ginny Ryan             1:35:59 LF55-59   23/96     646  9:36 1:34:06   St. John's
 1586 1499  Debbie Hanlon          1:35:59 LF50-54   62/171    647  9:36 1:33:59   St. John's
 1587 1961  Amy Blundon            1:36:00 LF30-34   99/248    648  9:36 1:35:15   St. John's
 1588 975   Linsey Hollett         1:36:04 LF35-39  112/268    649  9:37 1:34:39   Ottawa
 1589 1599  Peter Murphy           1:36:08 LM35-39  158/189    940  9:37 1:34:17   Paradise
 1590 1255  Emma Power             1:36:09 LF-19     12/42     650  9:37 1:33:27   Goulds
 1591 2393  Haley Ryan             1:36:10 LF25-29   91/222    651  9:37 1:34:49   Calgary
 1592 479   Melissa Budden         1:36:11 LF25-29   92/222    652  9:38 1:35:05   Lewisporte
 1593 294   Kelly McNiven          1:36:11 LF20-24   66/119    653  9:38 1:33:01   BEAMSVILLE
 1594 92    Peggy Chubb            1:36:12 LF50-54   63/171    654  9:38 1:34:05   stephenville
 1595 2774  Stephanie Alyward      1:36:13 LF-19     13/42     655  9:38 1:33:32   Goulds
 1596 1926  Allison Angel          1:36:13 LF30-34  100/248    656  9:38 1:34:48   St. John's
 1597 1300  Lori Lee Oates         1:36:13 LF40-44   98/227    657  9:38 1:34:53   St. John's
 1598 2843  Barry Taylor           1:36:14 LM60-64   43/68     941  9:38 1:35:35   Mount Pearl
 1599 767   Jessica Keeping        1:36:16 LF20-24   67/119    658  9:38 1:34:42   Laurenceton
 1600 2875  Jenelle Howse          1:36:23 LF-19     14/42     659  9:39 1:34:43   Lab City
 1601 1330  Suzanne Bungay         1:36:30 LF40-44   99/227    660  9:39 1:34:32   PC- St. Philips
 1602 47    Cathy Broydell         1:36:31 LF35-39  113/268    661  9:40 1:35:33   Paradise
 1603 2592  Ashley Brett           1:36:34 LF25-29   93/222    662  9:40 1:34:58   Clarenville
 1604 1099  Julia Purcell          1:36:35 LF25-29   94/222    663  9:40 1:34:52   St. John's
 1605 2279  Leah Dooley            1:36:35 LF35-39  114/268    664  9:40 1:35:56   Torbay
 1606 289   Danielle Labonté       1:36:37 LF35-39  115/268    665  9:40 1:34:03   Ottawa
 1607 1933  Carol Ann Poole        1:36:37 LF45-49   81/206    666  9:40 1:36:37   Paradise
 1608 1329  Alicia Ezekiel         1:36:38 LF30-34  101/248    667  9:40 1:34:36   Mt. Pearl
 1609 2553  Jeannette Malone-Peddi 1:36:40 LF40-44  100/227    668  9:40 1:35:00   Mount Pearl
 1610 620   Kim Turchuk-Oakley     1:36:40 LF40-44  101/227    669  9:40 1:35:17   Mount Pearl
 1611 3012  John Bennett           1:36:40 LM25-29   94/107    942  9:40 1:34:56   St.John's
 1612 1152  Jim Barnes             1:36:42 LM65-69   16/30     943  9:41 1:35:52   St. John's
 1613 2196  Dawn Bartlett          1:36:42 LF45-49   82/206    670  9:41 1:35:33   St. John's
 1614 2768  Patrick Walsh          1:36:43 LM30-34  105/131    944  9:41 1:35:33   St. John's
 1615 572   Una Walsh              1:36:45 LF45-49   83/206    671  9:41 1:35:40   Milltown
 1616 2135  Jennifer Murphy        1:36:47 LF35-39  116/268    672  9:41 1:35:59   Conception Bay
 1617 543   Heather Powell         1:36:52 LF45-49   84/206    673  9:42 1:36:03   Conception Bay
 1618 126   Dale Humphries         1:36:55 LM30-34  106/131    945  9:42 1:34:27   Mount Pearl
 1619 478   Sheila Flynn           1:36:55 LF40-44  102/227    674  9:42 1:35:02   St. John's
 1620 1226  Sarah Freake           1:36:56 LF20-24   68/119    675  9:42 1:35:50   Lewisporte
 1621 3068  Alison Butt            1:36:56 LF35-39  117/268    676  9:42 1:36:28   Toronto
 1622 2451  Tiah Pelley            1:36:58 LF25-29   95/222    677  9:42 1:36:08   Clarenville
 1623 526   Jean Day               1:36:58 LF45-49   85/206    678  9:42 1:35:17   St. John's
 1624 720   Pamela Moulton         1:37:00 LF30-34  102/248    679  9:42 1:35:23   St. John's
 1625 1570  Christina Murphy       1:37:00 LF35-39  118/268    680  9:42 1:35:31   Paradise
 1626 1165  David Thompson         1:37:05 LM70-74    4/13     946  9:43 1:35:30   St. John's
 1627 2734  Cathy Kendell          1:37:05 LF45-49   86/206    681  9:43 1:35:21   Paradise
 1628 12    Tina Patey             1:37:06 LF35-39  119/268    682  9:43 1:34:49   Conception Bay
 1629 2015  John Cowan             1:37:07 LM35-39  159/189    947  9:43 1:36:34   St. John's
 1630 83    Rana Ward              1:37:09 LF25-29   96/222    683  9:43 1:35:05   St.John's
 1631 134   Keith Rowsell          1:37:12 LM50-54  108/145    948  9:44 1:35:20   Clarke's Beach
 1632 1189  Susan Ward             1:37:15 LF30-34  103/248    684  9:44 1:35:20   Bishop's Falls
 1633 2967  Renee Robertson        1:37:18 LF25-29   97/222    685  9:44 1:36:15   St. John's
 1634 2966  Seamus Dooley          1:37:18 LM25-29   95/107    949  9:44 1:36:15   Halifax
 1635 806   Melissa Eason          1:37:20 LF30-34  104/248    686  9:44 1:36:21   CBS
 1636 2199  Darlene Dawe           1:37:20 LF25-29   98/222    687  9:44 1:36:22   Conception Bay
 1637 2860  Trudi Meade            1:37:22 LF40-44  103/227    688  9:45 1:35:39   St. John's
 1638 2964  Michael Reddy          1:37:23 LM30-34  107/131    950  9:45 1:36:34   Topsail
 1639 2471  Katie Blagdon          1:37:24 LF25-29   99/222    689  9:45 1:35:05   St.John's
 1640 2965  Carolanne Williams     1:37:25 LF30-34  105/248    690  9:45 1:36:36   St. John's
 1641 2066  Gayle Norberg          1:37:26 LF40-44  104/227    691  9:45 1:36:57   Toronto
 1642 1153  Kerry Griffiths        1:37:27 LF35-39  120/268    692  9:45 1:36:22   St.John's
 1643 990   Susan Barry            1:37:27 LF-19     15/42     693  9:45 1:36:23   St. John's
 1644 755   Joe Callahan           1:37:28 LM70-74    5/13     951  9:45 1:36:12   St. John's
 1645 2441  Colleen Abbott - Hibbs 1:37:28 LF40-44  105/227    694  9:45 1:36:06   St. Phillips
 1646 887   Lisa Ivens             1:37:37 LF30-34  106/248    695  9:46 1:35:15   St. John's
 1647 731   Robert Gardner         1:37:38 LM45-49  115/136    952  9:46 1:34:56   Grand Falls-Win
 1648 1656  Doug Walters           1:37:39 LM35-39  160/189    953  9:46 1:35:19   Mount Pearl
 1649 21    Laura Lovell           1:37:42 LF30-34  107/248    696  9:47 1:35:13   Torbay
 1650 610   Andrea Power           1:37:45 LF35-39  121/268    697  9:47 1:35:58   Mount Pearl
 1651 382   Andrew Lang            1:37:47 LM60-64   44/68     954  9:47 1:35:35   st john's
 1652 853   Melissa Georghiou      1:37:47 LF35-39  122/268    698  9:47 1:35:34   Ottawa
 1653 1727  Harold Hardiman        1:37:48 LM60-64   45/68     955  9:47 1:36:35   St.John*s
 1654 1586  Margaret Power         1:37:49 LF45-49   87/206    699  9:47 1:37:49   Conception Bay
 1655 2850  Lesley Saunders        1:37:50 LF25-29  100/222    700  9:47 1:37:06   St. John's
 1656 74    Heather Burton         1:37:52 LF30-34  108/248    701  9:48 1:36:32   St.John's
 1657 1079  Cathy Ivany            1:37:54 LF45-49   88/206    702  9:48 1:36:48   Conception Bay
 1658 1385  Cheryl Sheppard        1:37:55 LF40-44  106/227    703  9:48 1:36:11   Marystown
 1659 2808  Heather Dunford        1:37:56 LF30-34  109/248    704  9:48 1:36:52   St. John's
 1660 1733  Mary Walsh             1:37:57 LF50-54   64/171    705  9:48 1:35:25   Mt. Pearl
 1661 1891  Rosann Taylor          1:37:58 LF45-49   89/206    706  9:48 1:35:50   Chance Cove
 1662 1907  Grant Gaudet           1:37:58 LM45-49  116/136    956  9:48 1:35:51   CBS
 1663 852   Janice Grace           1:37:58 LF35-39  123/268    707  9:48 1:35:45   St. John's
 1664 2858  Maxine Morris          1:37:59 LF20-24   69/119    708  9:48 1:37:20   Paradise
 1665 1634  Janna Cleary           1:38:01 LF35-39  124/268    709  9:49 1:37:11   CBS
 1666 199   Marina Collier         1:38:02 LF45-49   90/206    710  9:49 1:37:07   Labrador City
 1667 2377  Kerri March            1:38:04 LF40-44  107/227    711  9:49 1:35:39   Paradise
 1668 992   Irene Barry            1:38:04 LF55-59   24/96     712  9:49 1:37:00   St. John's
 1669 2381  Tara Bishop            1:38:04 LF40-44  108/227    713  9:49 1:35:40   St. John's
 1670 779   Kelley Rooney          1:38:05 LF45-49   91/206    714  9:49 1:35:26   St. John's
 1671 2503  Karen Lacey            1:38:05 LF35-39  125/268    715  9:49 1:36:50   St. John's
 1672 2149  Melissa Traverse       1:38:05 LF25-29  101/222    716  9:49 1:36:18   st johns
 1673 862   Dan MacKenzie          1:38:06 LM35-39  161/189    957  9:49 1:36:26   St. John's
 1674 1376  Linda Slaney           1:38:06 LF30-34  110/248    717  9:49 1:36:28   St. John's
 1675 2995  Kathy Unger            1:38:08 LF25-29  102/222    718  9:49 1:36:03   St. John's
 1676 1510  Laura Middleton        1:38:08 LF25-29  103/222    719  9:49 1:37:44   St. John's
 1677 3073  Jacqui Winter          1:38:09 LF40-44  109/227    720  9:49 1:35:29   St. John's
 1678 2573  Nicole Gibbons         1:38:10 LF30-34  111/248    721  9:49 1:35:51   St. John's
 1679 1962  Tena Fowler            1:38:11 LF45-49   92/206    722  9:50 1:36:21   CBS
 1680 425   Karla Hickman          1:38:12 LF25-29  104/222    723  9:50 1:35:53   St. John's
 1681 2157  Amanda Scott           1:38:12 LF30-34  112/248    724  9:50 1:36:41   Torbay
 1682 1086  Natasha Tobin          1:38:12 LF25-29  105/222    725  9:50 1:36:40   St. John's
 1683 522   Vanessa Coombes        1:38:12 LF20-24   70/119    726  9:50 1:34:56   St. Johns
 1684 473   Don Reid               1:38:13 LM40-44  107/134    958  9:50 1:38:13   NL
 1685 562   Kathryn Smith          1:38:13 LF25-29  106/222    727  9:50 1:36:14   Gander
 1686 2842  Krista Burton          1:38:15 LF-19     16/42     728  9:50 1:36:34   Mt. Pearl
 1687 243   Mervyn Dean            1:38:17 LM60-64   46/68     959  9:50 1:35:48   Corner Brook
 1688 242   Sharren Rumbolt        1:38:17 LF55-59   25/96     729  9:50 1:35:49   Corner Brook
 1689 128   Michelle Caines        1:38:18 LF30-34  113/248    730  9:50 1:36:40   Mt. Pearl
 1690 1683  Betty Donahue          1:38:21 LF50-54   65/171    731  9:51 1:36:50   Goulds
 1691 2698  Jo-Ann Forsey          1:38:23 LF30-34  114/248    732  9:51 1:37:36   St. John's
 1692 1103  Cheryl MacLean         1:38:23 LF30-34  115/248    733  9:51 1:36:39   St. John's
 1693 2008  Katherine Pumphrey     1:38:23 LF20-24   71/119    734  9:51 1:36:44   Mount Pearl
 1694 1644  Jennifer Tompkins      1:38:25 LF30-34  116/248    735  9:51 1:37:24   Gander
 1695 182   Carole Barron          1:38:27 LF55-59   26/96     736  9:51 1:36:41   Toronto
 1696 2007  Stephen Pumphrey       1:38:29 LM45-49  117/136    960  9:51 1:36:50   Mount Pearl
 1697 57    Joan Marie Gatherall   1:38:31 LF45-49   93/206    737  9:52 1:36:10   Witless Bay
 1698 1252  Trina Power            1:38:32 LF45-49   94/206    738  9:52 1:35:49   Goulds
 1699 64    Karen McKay            1:38:32 LF50-54   66/171    739  9:52 1:36:27   Halifax
 1700 1653  Ron Tobin              1:38:34 LM40-44  108/134    961  9:52 1:36:50   CBS
 1701 1994  Alex Templeton         1:38:35 LM30-34  108/131    962  9:52 1:35:57   Conception Bay
 1702 1141  Andrew Delaney         1:38:38 LM45-49  118/136    963  9:52 1:37:19   St. John's
 1703 2917  Trevor Bennett         1:38:41 LM45-49  119/136    964  9:53 1:37:39   Mount Pearl
 1704 2918  Denise Cahill          1:38:41 LF45-49   95/206    740  9:53 1:37:38   Mount Pearl
 1705 2246  Kimberley Dumaresque   1:38:44 LF40-44  110/227    741  9:53 1:36:35   St. John's
 1706 1487  Dionne Coish           1:38:44 LF30-34  117/248    742  9:53 1:37:01   Paradise
 1707 209   Nikita Noseworthy      1:38:49 LF25-29  107/222    743  9:53 1:36:28   Paradise
 1708 2886  Rodney North           1:38:52 LM40-44  109/134    965  9:54 1:37:46   Paradise
 1709 1094  Donna Ballard          1:38:53 LF45-49   96/206    744  9:54 1:36:29   St. John's
 1710 2838  Cathy Skinner Coffey   1:38:54 LF35-39  126/268    745  9:54 1:36:05   St. John's
 1711 850   Joanne Bennett         1:38:55 LF45-49   97/206    746  9:54 1:37:14   Mt Pearl
 1712 2800  Geoff Thistle          1:38:56 LM35-39  162/189    966  9:54 1:37:22   Paradise
 1713 1916  Allan Johnson          1:38:58 LM25-29   96/107    967  9:54 1:38:58   St. John's
 1714 2884  Garfield Somerton      1:38:59 LM60-64   47/68     968  9:54 1:36:33   Dartmouth
 1715 108   Ray Woodrow            1:39:00 LM50-54  109/145    969  9:54 1:36:28   St. John's
 1716 1388  Sarah Cooke            1:39:02 LF25-29  108/222    747  9:55 1:36:56   St. John's
 1717 1707  Helen Day              1:39:02 LF65-69    2/11     748  9:55 1:38:00   Lewisporte
 1718 2343  Jane Browne            1:39:02 LF30-34  118/248    749  9:55 1:36:57   St. John's
 1719 1433  Shelly Cheeseman       1:39:02 LF25-29  109/222    750  9:55 1:36:56   Rushoon
 1720 2913  Lisa Upshall           1:39:03 LF35-39  127/268    751  9:55 1:38:14   Mount Pearl
 1721 2352  Taylor Anderson        1:39:04 LF-19     17/42     752  9:55 1:37:05   Harbour Grace
 1722 1036  Annette Comeau         1:39:04 LF45-49   98/206    753  9:55 1:37:09   Dartmouth
 1723 2943  Bob Sharpe             1:39:07 LM50-54  110/145    970  9:55 1:37:35   CBS
 1724 1672  Mildred Skeffington    1:39:08 LF45-49   99/206    754  9:55 1:36:55   Torbay
 1725 2751  James Evans            1:39:08 LM35-39  163/189    971  9:55 1:37:22   CBS
 1726 2544  Paul Phelan            1:39:09 LM50-54  111/145    972  9:55 1:37:45   Mount Pearl
 1727 939   Marcia Snow            1:39:09 LF25-29  110/222    755  9:55 1:36:11   St. John's
 1728 1597  Sherry Glynn           1:39:11 LF30-34  119/248    756  9:56 1:37:26   Bay Bulls
 1729 2971  Rendell Beck           1:39:12 LM70-74    6/13     973  9:56 1:38:09   Swift current
 1730 947   Randy Payne            1:39:14 LM40-44  110/134    974  9:56 1:36:42   Conception Bay
 1731 2467  Tom Yetman             1:39:15 LM50-54  112/145    975  9:56 1:36:38   carbonear
 1732 2594  Darren Anthony         1:39:16 LM-19     40/50     976  9:56 1:38:41   Mount Pearl
 1733 1903  Lesley Joy             1:39:17 LF30-34  120/248    757  9:56 1:37:09   St. John's
 1734 466   Gary Whelan            1:39:18 LM50-54  113/145    977  9:56 1:37:41   Colliers
 1735 1854  Amy Bulmer             1:39:19 LF30-34  121/248    758  9:56 1:36:17   St. John's
 1736 1633  Rhonda White           1:39:23 LF40-44  111/227    759  9:57 1:36:42   St. John's
 1737 2697  Elizabeth Evans        1:39:23 LF30-34  122/248    760  9:57 1:38:37   Paradise
 1738 2014  Robert Ryan            1:39:23 LM55-59   91/117    978  9:57 1:36:42   St. John's
 1739 66    Shawna Jackman-Rees    1:39:24 LF30-34  123/248    761  9:57 1:37:23   Thunder Bay
 1740 1931  Tammy King             1:39:26 LF25-29  111/222    762  9:57 1:37:35   St. John's
 1741 2412  Todd Driscoll          1:39:27 LM40-44  111/134    979  9:57 1:36:58   Portugal Cove
 1742 240   Theresa Ricketts       1:39:28 LF50-54   67/171    763  9:57 1:37:29   St. John's
 1743 2807  Kim Mullaly            1:39:31 LF45-49  100/206    764  9:58 1:37:57   St. John's
 1744 804   Jeremy Walsh           1:39:32 LM30-34  109/131    980  9:58 1:37:59   Mobile
 1745 2593  Susan Rubin            1:39:32 LF40-44  112/227    765  9:58 1:37:39   Pouch Cove
 1746 1894  Wally Collins          1:39:38 LM55-59   92/117    981  9:58 1:37:09   Goulds
 1747 291   Adam Dawson            1:39:39 LM25-29   97/107    982  9:58 1:39:39   st.john's
 1748 28    Katherine Vokurka      1:39:39 LF25-29  112/222    766  9:58 1:36:47   St. John's
 1749 1642  Lorrie Ralph           1:39:44 LF40-44  113/227    767  9:59 1:39:12   Bloomfield
 1750 1089  John Linfield          1:39:49 LM40-44  112/134    983  9:59 1:38:06   Torbay
 1751 2460  Lisa Gillespie         1:39:51 LF35-39  128/268    768 10:00 1:37:43   Paradise
 1752 2002  Gerri Coffin           1:39:54 LF60-64    9/56     769 10:00 1:36:41   Glenwood
 1753 2482  Samantha Phelan        1:39:54 LF20-24   72/119    770 10:00 1:38:31   Mount Pearl
 1754 1062  Bonnie Donovan         1:39:54 LF45-49  101/206    771 10:00 1:38:21   St. John's
 1755 1542  Lisa O'Neill           1:39:55 LF40-44  114/227    772 10:00 1:38:33   St. John's
 1756 1496  Stephen Walsh          1:39:57 LM40-44  113/134    984 10:00 1:37:48   st. john's
 1757 2094  Susan Tobin-Bursey     1:39:57 LF30-34  124/248    773 10:00 1:38:05   Marystown
 1758 1361  Nancy Kean             1:39:58 LF30-34  125/248    774 10:00 1:38:01   Gander
 1759 2122  Greg Brown             1:40:02 LM35-39  164/189    985 10:01 1:37:48   st. Philips
 1760 578   Carla Carew            1:40:04 LF45-49  102/206    775 10:01 1:38:15   Conception Bay
 1761 2562  John C. Battcock       1:40:05 LM45-49  120/136    986 10:01 1:40:05   Mount Pearl
 1762 1073  Andy Burton            1:40:05 LM30-34  110/131    987 10:01 1:38:28   St. John's
 1763 2900  Margurite Rumbolt      1:40:09 LF60-64   10/56     776 10:01 1:37:21   Lewisport
 1764 747   Carolyn Chard          1:40:10 LF30-34  126/248    777 10:01 1:38:02   Blaketown
 1765 1930  Troy Gilson            1:40:11 LM35-39  165/189    988 10:02 1:38:03   St. John's
 1766 2096  Millicent Squires      1:40:14 LF40-44  115/227    778 10:02 1:39:08   St.John's
 1767 734   Millie Walsh           1:40:17 LF50-54   68/171    779 10:02 1:39:23   Fleur-de-Lys
 1768 2525  Bradley Chislett       1:40:17 LM30-34  111/131    989 10:02 1:38:18   St. John's
 1769 3033  Paul Cleary            1:40:17 LM55-59   93/117    990 10:02 1:38:02   St. John's
 1770 946   Stephanie Curran       1:40:18 LF35-39  129/268    780 10:02 1:38:13   St John's
 1771 1285  Mary Vaughan           1:40:19 LF40-44  116/227    781 10:02 1:38:25   Kippens
 1772 2639  Claudette Marie Warren 1:40:22 LF30-34  127/248    782 10:03 1:37:45   Mount Pearl
 1773 2232  Rachel Robert          1:40:22 LF45-49  103/206    783 10:03 1:38:49   Saint-Pierre
 1774 1908  Gillian Power          1:40:24 LF25-29  113/222    784 10:03 1:38:58   St. John's
 1775 2731  Nadine Devereaux       1:40:25 LF40-44  117/227    785 10:03 1:38:50   St. John's
 1776 985   Heather Joyce          1:40:26 LF35-39  130/268    786 10:03 1:38:01   St. John's
 1777 1665  Michelle Roche         1:40:26 LF45-49  104/206    787 10:03 1:38:25   Logy Bay
 1778 2726  Carolyn Walsh          1:40:28 LF40-44  118/227    788 10:03 1:38:26   St. John's
 1779 1229  Rosemarie James        1:40:28 LF70-74    2/4      789 10:02 1:40:11   St. John's
 1780 1004  Pam Griffin            1:40:28 LF30-34  128/248    790 10:03 1:38:23   St. John's
 1781 529   Cassandra Tycholiz     1:40:29 LF25-29  114/222    791 10:03 1:38:25   St. John's
 1782 2156  Sandra Corbett         1:40:32 LF40-44  119/227    792 10:04 1:38:14   HR. MAIN
 1783 1869  Blaine Hardiman        1:40:32 LM50-54  114/145    991 10:04 1:38:51   Mount Pearl
 1784 725   Taryn Hearn            1:40:35 LF35-39  131/268    793 10:04 1:38:59   St. John's
 1785 2422  Mark Chancey           1:40:36 LM35-39  166/189    992 10:04 1:39:45   St. John's
 1786 1623  Catherine Jones        1:40:38 LF20-24   73/119    794 10:04 1:38:18   St john's
 1787 1717  Lois Dinn              1:40:39 LF50-54   69/171    795 10:04 1:39:00   St. John's
 1788 1525  Taryn Fudge            1:40:39 LF30-34  129/248    796 10:04 1:39:33   Conception Bay
 1789 1845  Deana Yetman           1:40:41 LF40-44  120/227    797 10:05 1:39:33   Conception Bay
 1790 1691  Beverly Barbour        1:40:43 LF40-44  121/227    798 10:05 1:38:02   Witless Bay
 1791 78    Gael Madden            1:40:47 LF50-54   70/171    799 10:05 1:39:19   Calgary
 1792 2490  Christine King         1:40:50 LF50-54   71/171    800 10:05 1:39:14   gander
 1793 884   Joanne Kenny           1:40:52 LF45-49  105/206    801 10:06 1:39:45   Goulds
 1794 2864  Janet Goodall          1:40:53 LF35-39  132/268    802 10:06 1:39:15   St. John's
 1795 1736  Jill Kelly             1:40:55 LF40-44  122/227    803 10:06 1:39:16   St. John's
 1796 1414  Erin Alcock            1:40:57 LF35-39  133/268    804 10:06 1:38:31   CBS
 1797 637   Dave Power             1:40:58 LM50-54  115/145    993 10:06 1:39:44   Mount Pearl
 1798 1442  Doris Walsh            1:41:00 LF55-59   27/96     805 10:06 1:41:00   St. John's
 1799 2758  Jonathan Conway        1:41:01 LM-19     41/50     994 10:07 1:38:58   St.John's
 1800 748   Jeffrey Chard          1:41:03 LM30-34  112/131    995 10:07 1:38:55   Blaketown
 1801 1390  Lisa Carroll           1:41:05 LF35-39  134/268    806 10:07 1:39:03   CBS
 1802 1478  Jacqueline Carroll     1:41:05 LF30-34  130/248    807 10:07 1:39:04   Conception Bay
 1803 1188  Mark Lewis             1:41:05 LM35-39  167/189    996 10:00 1:39:56   avondale
 1804 2296  Anita Bruce            1:41:05 LF55-59   28/96     808 10:07 1:39:15   Goulds
 1805 135   Jean Rowsell           1:41:07 LF50-54   72/171    809 10:07 1:39:14   Clarke's Beach
 1806 1372  Tammy Murphy           1:41:07 LF40-44  123/227    810 10:07 1:39:22   Gander
 1807 2439  Chad Rumsey            1:41:10 LM35-39  168/189    997 10:07 1:38:33   Paradise
 1808 2319  Deanne Newman          1:41:11 LF35-39  135/268    811 10:08 1:39:32   Paradise
 1809 825   Lori Power             1:41:12 LF35-39  136/268    812 10:01 1:40:03   St. John's
 1810 2396  George Power           1:41:13 LM55-59   94/117    998 10:08 1:39:50   St. Mary's Bay
 1811 1996  Jamie Steadman         1:41:13 LM35-39  169/189    999 10:08 1:38:25   St. John's
 1812 2454  Paul Preston           1:41:15 LM30-34  113/131   1000 10:08 1:38:48   St johns
 1813 995   Barbara Cadigan        1:41:16 LF50-54   73/171    813 10:08 1:39:40   Logy Bay
 1814 936   Elizabeth Hunt (nurse) 1:41:16 LF50-54   74/171    814 10:08 1:39:40   Paradise
 1815 1523  Donna Dodd Macdonald   1:41:18 LF45-49  106/206    815 10:08 1:39:48   Carbonear
 1816 1064  Kevin Dunphy           1:41:19 LM50-54  116/145   1001 10:08 1:39:03   Mt  pearl
 1817 1204  Paul Ducey             1:41:21 LM55-59   95/117   1002 10:04 1:40:37   St. John's
 1818 702   Jayme Molloy           1:41:23 LF20-24   74/119    816 10:00 1:39:56   Outer Cove
 1819 2901  Tom Burke              1:41:23 LM55-59   96/117   1003 10:02 1:40:13   St. John's
 1820 2999  Chris Saunders         1:41:25 LM40-44  114/134   1004 10:04 1:40:39   Toronto
 1821 2429  Bonnie Butler          1:41:25 LF50-54   75/171    817 10:09 1:39:35   St. John's
 1822 459   Lisa Downey            1:41:26 LF25-29  115/222    818 10:09 1:39:40   Stephenville
 1823 2631  Nicole Peters          1:41:31 LF35-39  137/268    819 10:01 1:40:01   St. John's
 1824 448   Kelly Cahill           1:41:33 LF35-39  138/268    820 10:10 1:38:59   Dartmouth
 1825 2496  Katie Stack            1:41:35 LF25-29  116/222    821 10:05 1:40:43   St. John's
 1826 1106  Aiden Hibbs            1:41:38 LM35-39  170/189   1005 10:00 1:39:57   BAY ROBERTS
 1827 547   Jean Leyte             1:41:40 LF60-64   11/56     822 10:10 1:39:43   St. John's
 1828 2480  Susan Farrell          1:41:41 LF30-34  131/248    823 10:00 1:39:58   Ottawa
 1829 2476  Rachel Little          1:41:41 LF35-39  139/268    824 10:00 1:39:58   Mount Pearl
 1830 809   Dana Smith             1:41:44 LF35-39  140/268    825 10:11 1:39:36   Blaketown
 1831 51    Dana Chaulk            1:41:44 LF35-39  141/268    826 10:06 1:40:52   Ottawa
 1832 1527  Laurie Yetman          1:41:45 LF35-39  142/268    827 10:11 1:38:36   St. John's
 1833 2714  Katherine Chartrand    1:41:47 LF30-34  132/248    828 10:11 1:39:18   St-Eustache
 1834 2001  Brenda Burden          1:41:48 LF40-44  124/227    829 10:11 1:38:35   Glenwood
 1835 316   Heather McLellan       1:41:49 LF40-44  125/227    830 10:06 1:40:52   Burlington
 1836 2895  Bill Garland           1:41:49 LM60-64   48/68    1006 10:03 1:40:30   St. John's
 1837 1776  Rick Curran            1:41:49 LM50-54  117/145   1007 10:11 1:39:28   BAY BULLS
 1838 445   Doreen Shapter         1:41:50 LF45-49  107/206    831 10:01 1:40:10   Mount Pearl
 1839 854   Susan Matthews         1:41:51 LF45-49  108/206    832 10:01 1:40:10   Mount Pearl
 1840 503   Noella Kennedy         1:41:51 LF35-39  143/268    833 10:08 1:41:12   Kingston
 1841 860   Lorraine Singleton     1:41:52 LF60-64   12/56     834 10:09 1:41:23   St. John's
 1842 2138  Melissa Fagan          1:41:56 LF25-29  117/222    835 10:08 1:41:17   ST. JOHN'S
 1843 2170  Jillian Manning        1:41:58 LF30-34  133/248    836 10:02 1:40:12   Torbay
 1844 577   Diana Warren           1:41:59 LF40-44  126/227    837 10:01 1:40:10   Conception Bay
 1845 2582  Shauna Best Kieley     1:42:01 LF30-34  134/248    838 10:06 1:40:54   Petty Harbour
 1846 1873  Robyn Hawco            1:42:06 LF25-29  118/222    839 10:13 1:35:45   Torbay
 1847 1531  Joanne Penwell         1:42:06 LF45-49  109/206    840 10:13 1:38:53   Gander
 1848 214   Christopher Deacon     1:42:09 LM50-54  118/145   1008 10:05 1:40:48   St John's
 1849 1628  Stephanie Decker       1:42:10 LF-19     18/42     841 10:01 1:40:07   Mount Pearl
 1850 1279  Katie Tucker           1:42:12 LF20-24   75/119    842 10:05 1:40:45   kilbride/st.joh
 1851 2899  Laura Rogers           1:42:15 LF40-44  127/227    843 10:14 1:39:49   St.John's
 1852 225   Brad Nixon             1:42:16 LM30-34  114/131   1009 10:14 1:39:26   Ottawa
 1853 156   Valerie Nixon          1:42:16 LF25-29  119/222    844 10:14 1:39:26   Ottawa
 1854 1728  Beverly Rendell        1:42:16 LF40-44  128/227    845 10:07 1:41:06   St. John's
 1855 2748  Bonnie Delaney         1:42:17 LF40-44  129/227    846 10:09 1:41:25   Paradise
 1856 1163  Bernice Winsor         1:42:17 LF45-49  110/206    847 10:14 1:42:17   Corner Brook
 1857 581   Elizabeth Henderson    1:42:18 LF40-44  130/227    848 10:14 1:39:50   Mount Pearl
 1858 1635  Robin Regular          1:42:19 LF35-39  144/268    849 10:03 1:40:29   Botwood
 1859 1636  Cody Russell-Baker     1:42:19 LM30-34  115/131   1010 10:03 1:40:29   Botwood
 1860 2590  Jamie Coady            1:42:20 LM35-39  171/189   1011 10:12 1:41:59   Outer Cove
 1861 216   April Manuel           1:42:20 LF40-44  131/227    850 10:09 1:41:30   Kilbride
 1862 683   Tracy Osmond           1:42:23 LF40-44  132/227    851 10:01 1:40:05   mount pearl
 1863 1200  Wanda Ronayne          1:42:24 LF35-39  145/268    852 10:12 1:41:54   Witless Bay
 1864 407   Jennifer Russell       1:42:24 LF30-34  135/248    853 10:01 1:40:06   Paradise
 1865 3016  Xing Xin               1:42:30 LM20-24   67/71    1012 10:15 1:39:01   St. John's
 1866 1051  Andrea Evoy            1:42:31 LF20-24   76/119    854 10:07 1:41:05   Logy Bay
 1867 2058  John Siwiec            1:42:32 LM30-34  116/131   1013 10:02 1:40:15   Ottawa
 1868 1436  Kathy Driscoll         1:42:33 LF40-44  133/227    855 10:16 1:42:33   St Johns
 1869 563   Carolyn Kennell        1:42:33 LF35-39  146/268    856 10:09 1:41:24   PARADISE
 1870 2581  Tammy Vivian           1:42:34 LF30-34  136/248    857 10:07 1:41:01   St. John's
 1871 1397  Mark Ivany             1:42:37 LM35-39  172/189   1014 10:16 1:39:48   Long Pond
 1872 18    John Gellately         1:42:38 LM50-54  119/145   1015 10:03 1:40:27   Mt. Pearl
 1873 1796  Randy Royle            1:42:38 LM60-64   49/68    1016 10:02 1:40:12   Mount Pearl
 1874 2780  Robert Simmons         1:42:42 LM35-39  173/189   1017 10:09 1:41:22   St. John's
 1875 150   Betty Musseau          1:42:44 LF50-54   76/171    858 10:05 1:40:48   corner Brook
 1876 1243  Joe McKenna            1:42:47 LM30-34  117/131   1018 10:05 1:40:42   st. John's
 1877 1083  Lauren Squires         1:42:54 LF30-34  137/248    859 10:10 1:41:32   St. John's
 1878 1080  Alice Canning          1:42:55 LF30-34  138/248    860 10:10 1:41:34   Mount Pearl
 1879 2436  Ashley Dunne           1:42:56 LF25-29  120/222    861 10:18 1:39:47   Mt. Pearl
 1880 2191  Lisa Critch            1:42:57 LF30-34  139/248    862 10:02 1:40:17   Labrador City
 1881 1615  Jenny Bowring          1:42:57 LF50-54   77/171    863 10:05 1:40:48   St. John's
 1882 2834  Heather Tucker         1:42:57 LF25-29  121/222    864 10:05 1:40:45   St.John's
 1883 780   Nick St. Croix         1:42:59 LM40-44  115/134   1019 10:12 1:41:52   Conception Bay
 1884 615   Glen Murphy            1:43:01 LM40-44  116/134   1020 10:04 1:40:34   St. John's
 1885 3011  David Gall             1:43:02 LM50-54  120/145   1021 10:05 1:40:42   Oakville
 1886 265   Stephanie Fagan        1:43:03 LF30-34  140/248    865 10:06 1:40:55   Conception Bay
 1887 307   Renee Nolan            1:43:08 LF35-39  147/268    866 10:09 1:41:27   St. John's
 1888 2665  Alyssa Short           1:43:12 LF-19     19/42     867 10:04 1:40:36   Mount Pearl
 1889 2192  Brenda Rose            1:43:14 LF40-44  134/227    868 10:06 1:40:54   Clarenville
 1890 489   Bob Fagan              1:43:15 LM40-44  117/134   1022 10:04 1:40:31   St. John's
 1891 2368  Ashley Richards        1:43:17 LF20-24   77/119    869 10:04 1:40:36   portugal cove s
 1892 2514  Brian Kelly            1:43:17 LM45-49  121/136   1023 10:11 1:41:50   St. John's
 1893 736   Karen Button           1:43:19 LF50-54   78/171    870 10:07 1:41:01   ST. John's
 1894 1176  Renee Broomfield       1:43:19 LF30-34  141/248    871 10:11 1:41:41   Paradise
 1895 1313  Bill Carroll           1:43:19 LM70-74    7/13    1024 10:08 1:41:17   St. John's
 1896 1545  Linda Rohr             1:43:20 LF40-44  135/227    872 10:05 1:40:46   Mount Pearl
 1897 899   Kevin Ricketts         1:43:21 LM55-59   97/117   1025 10:01 1:40:03   Bauline
 1898 2134  Julie Fudge            1:43:22 LF25-29  122/222    873 10:05 1:40:49   Gander
 1899 1937  Alick Tsui             1:43:22 LM50-54  121/145   1026 10:11 1:41:50   St. John
 1900 795   Terrlynn Sullivan      1:43:22 LF35-39  148/268    874 10:11 1:41:41   Paradise
 1901 2113  Jill Styles            1:43:24 LF45-49  111/206    875 10:05 1:40:48   Conception Bay
 1902 1060  Chris Parrish          1:43:24 LM50-54  122/145   1027 10:10 1:41:31   St. John's
 1903 711   Chelsea Pybus          1:43:26 LF25-29  123/222    876 10:05 1:40:48   calgary
 1904 226   Amy Fudge              1:43:27 LF30-34  142/248    877 10:06 1:40:54   St. John's
 1905 298   Gail Soper             1:43:30 LF35-39  149/268    878 10:08 1:41:18   C.B.S
 1906 1387  Anita Keats            1:43:30 LF35-39  150/268    879 10:08 1:41:18   Conception Bay
 1907 1105  Laurie McGrath         1:43:33 LF35-39  151/268    880 10:03 1:40:24   Mount Pearl
 1908 2253  Patricia E Murphy      1:43:33 LF55-59   29/96     881 10:15 1:42:21   St. John's
 1909 911   Mary Connors           1:43:36 LF40-44  136/227    882 10:08 1:41:15   Conception Bay
 1910 901   Sherri O'Halloran      1:43:36 LF30-34  143/248    883 10:12 1:41:57   Mount Pearl
 1911 2796  Lori Welsh             1:43:37 LF35-39  152/268    884 10:09 1:41:24   Bishops Falls
 1912 2035  Genny Fifield          1:43:38 LF50-54   79/171    885 10:08 1:41:18   St. John's
 1913 3057  Juanita Gibbes         1:43:39 LF45-49  112/206    886 10:07 1:41:04   Paradise
 1914 2878  Sharon Van Ihinger     1:43:41 LF50-54   80/171    887 10:14 1:42:17   Toronto
 1915 2397  Joseph Thavanathan     1:43:42 LM60-64   50/68    1028 10:18 1:42:54   st.johns
 1916 357   Delores Wheeler        1:43:42 LF50-54   81/171    888 10:16 1:42:38   Logy Bay
 1917 1802  Christina Sullivan     1:43:43 LF40-44  137/227    889 10:08 1:41:20   Goulds
 1918 1011  Charlene Pinksen       1:43:45 LF55-59   30/96     890 10:15 1:42:30   Guelph
 1919 2248  Cathy Cake             1:43:46 LF45-49  113/206    891 10:15 1:42:29   St John's
 1920 2022  Jane Cuff              1:43:47 LF-19     20/42     892 10:13 1:42:02   St. John's
 1921 1210  Donald Stockley        1:43:48 LM60-64   51/68    1029 10:03 1:40:22   Dildo Trinity B
 1922 1150  Steve Penney           1:43:49 LM30-34  118/131   1030 10:08 1:41:17   St. Johns
 1923 1605  Matthew Forristall     1:43:50 LM35-39  174/189   1031 10:08 1:41:15   St. John's
 1924 2276  Angela Cooper          1:43:52 LF25-29  124/222    893 10:16 1:42:35   Mt Pearl
 1925 1308  Shannon Denine         1:43:52 LM25-29   98/107   1032 10:11 1:41:48   St. John's
 1926 2799  Anthony Conway         1:43:52 LM30-34  119/131   1033 10:11 1:41:48   St. John's
 1927 1475  Krista Penney          1:43:54 LF25-29  125/222    894 10:11 1:41:48   Mount Pearl
 1928 1819  Lori Williams          1:43:55 LF40-44  138/227    895 10:16 1:42:40   Paradise
 1929 1716  Gerry Marshall         1:43:57 LF55-59   31/96     896 10:18 1:42:54   St. John's
 1930 462   Robyn Hipditch         1:43:57 LF40-44  139/227    897 10:23 1:43:44   Paradise
 1931 632   Bonnie Miller          1:43:58 LF40-44  140/227    898 10:23 1:43:44   Paradise
 1932 1234  Bobbie-Lee Gosse       1:43:58 LF25-29  126/222    899 10:10 1:41:36   Conception Bay
 1933 2784  Jennifer Lynch         1:43:58 LF35-39  153/268    900 10:10 1:41:36   Conception Bay
 1934 2605  Peter Rollmann         1:44:01 LM25-29   99/107   1034 10:23 1:43:41   St. John's
 1935 1704  Michelle Hunt          1:44:03 LF30-34  144/248    901 10:11 1:41:41   CBS
 1936 2713  Natalie Lariviere      1:44:03 LF35-39  154/268    902 10:12 1:41:51   Montreal
 1937 99    Cassandra Sweetapple   1:44:04 LF25-29  127/222    903 10:13 1:42:10   Glovertown
 1938 3017  Joe Mullins            1:44:05 LM55-59   98/117   1035 10:14 1:42:16   Paradise
 1939 1056  Pamela Chislett        1:44:08 LF60-64   13/56     904 10:08 1:41:17   Grande Prairie
 1940 1919  Paula Ellsworth        1:44:09 LF40-44  141/227    905 10:14 1:42:16   St. John's
 1941 2301  Mary Pike              1:44:09 LF55-59   32/96     906 10:20 1:43:11   St. John's
 1942 1844  Linda Ryan             1:44:09 LF55-59   33/96     907 10:20 1:43:12   St. John's
 1943 494   Clarice Nolan          1:44:11 LF30-34  145/248    908 10:08 1:41:20   Mt Pearl
 1944 460   Deborah Hynes          1:44:18 LF45-49  114/206    909 10:21 1:43:23   St. John's
 1945 406   Dianne Hunt            1:44:18 LF40-44  142/227    910 10:16 1:42:33   St. John's
 1946 3063  Victoria Van Dusen     1:44:20 LF20-24   78/119    911 10:19 1:43:08   St. John's
 1947 2327  Karen Stagg            1:44:21 LF50-54   82/171    912 10:14 1:42:11   Labrador City
 1948 1418  Judy Organ             1:44:21 LF55-59   34/96     913 10:14 1:42:11   LABRADOR CITY
 1949 2050  Trudy Tracey           1:44:25 LF40-44  143/227    914 10:08 1:41:14   St. John's
 1950 2420  Brad Dalton            1:44:27 LM30-34  120/131   1036 10:15 1:42:30   Kilbride
 1951 1183  Emily Benson           1:44:28 LF20-24   79/119    915 10:20 1:43:13   St. John's
 1952 2997  Lisa Yates             1:44:29 LF50-54   83/171    916 10:08 1:41:14   Lewisporte
 1953 404   Paula Ryan             1:44:31 LF40-44  144/227    917 10:17 1:42:46   St. John's
 1954 1393  Elaine Roberts         1:44:32 LF45-49  115/206    918 10:21 1:43:22   Kippens
 1955 185   Karen Cameron          1:44:33 LF45-49  116/206    919 10:13 1:42:09   Newmarket
 1956 2207  Deirdre Halliday       1:44:33 LF-19     21/42     920 10:16 1:42:37   Mount Pearl
 1957 205   Lisa McBride           1:44:34 LF35-39  155/268    921 10:13 1:42:10   Keswick
 1958 1423  Craig Hubley           1:44:35 LM40-44  118/134   1037 10:19 1:43:05   St. John's
 1959 950   Denise Philpott        1:44:35 LF45-49  117/206    922 10:16 1:42:37   Topsail CBS
 1960 983   Jo Philpott            1:44:35 LF50-54   84/171    923 10:16 1:42:38   Paradise
 1961 2867  Annette Scott          1:44:36 LF45-49  118/206    924 10:13 1:42:01   CBS
 1962 1373  Amanda Thompson        1:44:36 LF40-44  145/227    925 10:08 1:41:20   Coley's Point
 1963 446   Scott Murphy           1:44:37 LM40-44  119/134   1038 10:13 1:42:08   Bay Bulls
 1964 470   Jodine Murphy          1:44:37 LF35-39  156/268    926 10:13 1:42:08   Bay Bulls
 1965 2141  Brenda Dunphy          1:44:38 LF40-44  146/227    927 10:13 1:42:07   St. John's
 1966 2389  Donna Stone            1:44:39 LF55-59   35/96     928 10:13 1:42:09   St. John's
 1967 1924  Marc Harris            1:44:40 LM35-39  175/189   1039 10:11 1:41:46   St.John's
 1968 1697  Andrew Nooann          1:44:40 LM30-34  121/131   1040 10:15 1:42:24   Toronto
 1969 376   Ruth Porter Hart       1:44:41 LF60-64   14/56     929 10:25 1:44:02   HOLYROOD
 1970 2931  Helen Ormston          1:44:44 LF45-49  119/206    930 10:23 1:43:45   Halifax
 1971 67    Sarah Hickey           1:44:47 LF20-24   80/119    931 10:17 1:42:46   St.John's
 1972 1902  Cathy Scott            1:44:49 LF30-34  146/248    932 10:26 1:44:14   St. John's
 1973 949   Stephanie Pittman      1:44:52 LF25-29  128/222    933 10:17 1:42:47   St. John's
 1974 1228  Kathy Conway           1:44:53 LF30-34  147/248    934 10:19 1:43:10   St. John's
 1975 905   Allison Sturge         1:44:54 LF30-34  148/248    935 10:17 1:42:48   St.John's
 1976 907   Nicole Squires         1:44:54 LF25-29  129/222    936 10:17 1:42:48   St.John's
 1977 1358  Cindy Carter           1:44:55 LF50-54   85/171    937 10:14 1:42:16   St. John's
 1978 1360  Katie Walsh            1:44:55 LF25-29  130/222    938 10:14 1:42:15   St. John's
 1979 506   Paulette McPherson     1:44:55 LF35-39  157/268    939 10:19 1:43:09   St. John's
 1980 2826  Paula Clarke           1:44:55 LF40-44  147/227    940 10:12 1:41:51   Torbay
 1981 1413  Lynette Bowes          1:44:56 LF40-44  148/227    941 10:21 1:43:24   St. John's
 1982 2282  Shannon O'Dea Dawson   1:44:56 LF40-44  149/227    942 10:21 1:43:24   St. John's
 1983 292   Penny O'Dea            1:44:57 LF35-39  158/268    943 10:21 1:43:25   St. John's
 1984 2509  Nadine Ryan            1:44:58 LF40-44  150/227    944 10:20 1:43:19   st johns
 1985 2512  Cathy Verge            1:44:58 LF45-49  120/206    945 10:20 1:43:19   lewisporte
 1986 2101  Madonna Wadden         1:45:04 LF55-59   36/96     946 10:25 1:44:04   St. John's
 1987 262   Tiffany Warren         1:45:05 LF25-29  131/222    947 10:23 1:43:47   St. John's
 1988 1394  Judy Ivany             1:45:06 LF30-34  149/248    948 10:14 1:42:17   Long Pond
 1989 1296  Audrey Cohen           1:45:07 LF20-24   81/119    949 10:11 1:41:48   Portugal Cove
 1990 1469  Jennifer Nakashima     1:45:08 LF40-44  151/227    950 10:18 1:42:58   St. John's
 1991 2927  Donald Clarke          1:45:08 LM40-44  120/134   1041 10:15 1:42:22   Halifax
 1992 2904  Tonia Corrigan         1:45:09 LF20-24   82/119    951 10:19 1:43:07   Marysvale
 1993 1315  Carla Hodder           1:45:09 LF20-24   83/119    952 10:29 1:44:48   Torbay
 1994 993   Angela Clarke          1:45:11 LF25-29  132/222    953 10:19 1:43:06   St. John's
 1995 2212  Chris Conway           1:45:12 LM25-29  100/107   1042 10:11 1:41:50   St. John's
 1996 1662  Daryll Budgell         1:45:13 LM35-39  176/189   1043 10:21 1:43:28   St. John's
 1997 1682  Marilyn Caines         1:45:14 LF50-54   86/171    954 10:21 1:43:23   CBS
 1998 1223  Bonnie Bailey          1:45:15 LF45-49  121/206    955 10:11 1:41:49   St. John's
 1999 2057  Heather Squires        1:45:18 LF30-34  150/248    956 10:19 1:43:03   Ottawa
 2000 2455  Melissa Preston        1:45:18 LF30-34  151/248    957 10:18 1:42:52   St johns
 2001 2087  Kimberley Cole         1:45:19 LF45-49  122/206    958 10:16 1:42:35   st johns
 2002 411   Roy Rideout            1:45:20 LM60-64   52/68    1044 10:26 1:44:18   Bedford
 2003 413   Dan Rideout            1:45:21 LM30-34  122/131   1045 10:26 1:44:18   Bedford
 2004 2730  Raylene Stokes         1:45:21 LF40-44  152/227    959 10:33 1:45:21   St. John's
 2005 2520  Ian Hagerty            1:45:22 LM40-44  121/134   1046 10:29 1:44:42   Ottawa
 2006 1061  Kathleen Parrish       1:45:24 LF-19     22/42     960 10:21 1:43:29   St. John's
 2007 497   Nadine Wedd            1:45:24 LF35-39  159/268    961 10:20 1:43:11   CBS
 2008 1179  Christelle Simon       1:45:24 LF35-39  160/268    962 10:19 1:43:08   st john's
 2009 644   Michelle Park          1:45:24 LF40-44  153/227    963 10:18 1:42:57   st john's
 2010 838   Nicole Farrell         1:45:25 LF35-39  161/268    964 10:17 1:42:41   Conception Bay
 2011 886   Denise Finlay          1:45:26 LF35-39  162/268    965 10:17 1:42:41   CBS
 2012 146   Angela Graham          1:45:26 LF40-44  154/227    966 10:21 1:43:30   CBS
 2013 280   Cecily Strickland      1:45:29 LF50-54   87/171    967 10:20 1:43:20   St. John's
 2014 1620  Sandy Legge            1:45:29 LF45-49  123/206    968 10:22 1:43:39   St john's
 2015 2648  Christie Boone         1:45:29 LF25-29  133/222    969 10:22 1:43:32   St. John's
 2016 22    Meghan Drover          1:45:31 LF30-34  152/248    970 10:23 1:43:44   St. John
 2017 1827  Scott Belbin           1:45:33 LM40-44  122/134   1047 10:20 1:43:14   Lewisporte
 2018 1821  Tina Belbin            1:45:33 LF40-44  155/227    971 10:20 1:43:15   Lewisporte
 2019 2848  Michelle Purchase      1:45:34 LF35-39  163/268    972 10:18 1:42:58   Paradise
 2020 1444  Joseph Earles          1:45:35 LM50-54  123/145   1048 10:17 1:42:46   Mount Pearl
 2021 1069  Anne Marie Blake       1:45:35 LF50-54   88/171    973 10:24 1:43:58   St. John's
 2022 2438  Kim Oake               1:45:36 LF45-49  124/206    974 10:19 1:43:03   Lewisporte
 2023 458   Joan Porter            1:45:36 LF40-44  156/227    975 10:19 1:43:03   Lewisporte
 2024 1654  Carey Majid            1:45:38 LF40-44  157/227    976 10:27 1:44:28   St. John's
 2025 2209  Leslie Power           1:45:38 LF30-34  153/248    977 10:21 1:43:30   St. John's
 2026 1846  Neal Pearcey           1:45:40 LM-19     42/50    1049 10:29 1:44:43   Clarenville
 2027 1897  Tonda Philpott         1:45:42 LF45-49  125/206    978 10:28 1:44:35   CBS
 2028 133   Nicole Peddigrew       1:45:44 LF20-24   84/119    979 10:16 1:42:32   St. John's
 2029 1495  Laura Kieley           1:45:45 LF20-24   85/119    980 10:20 1:43:13   Mount Pearl
 2030 3048  Emad Rizkalla          1:45:47 LM40-44  123/134   1050 10:21 1:43:25   St. John's
 2031 1241  Patsy Yetman           1:45:50 LF60-64   15/56     981 10:28 1:44:38   St. John's
 2032 633   David Baldwin          1:45:51 LM50-54  124/145   1051 10:26 1:44:18   Paradise
 2033 916   Heather Lannon         1:45:51 LF25-29  134/222    982 10:23 1:43:43   St Johns
 2034 3044  Julia Outerbridge      1:45:54 LF-19     23/42     983 10:20 1:43:19   St. John's
 2035 1420  Arielle Hogan          1:45:54 LF-19     24/42     984 10:20 1:43:18   St. John's
 2036 2989  Brendan Kelly          1:45:57 LM55-59   99/117   1052 10:33 1:45:30   White Horse
 2037 740   Genevieve McEvoy       1:46:00 LF50-54   89/171    985 10:20 1:43:19   conception bay
 2038 784   Shawn Adams            1:46:02 LM25-29  101/107   1053 10:25 1:44:01   Mount Pearl
 2039 786   Sarah Chaulk           1:46:02 LF25-29  135/222    986 10:25 1:44:02   Mount Pearl
 2040 3015  Krista Kennedy         1:46:09 LF25-29  136/222    987 10:27 1:44:27   Mount Pearl
 2041 1732  Mike Kavangh           1:46:10 LM50-54  125/145   1054 10:29 1:44:44   Mount Pearl
 2042 597   Anne Marie Ryan        1:46:19 LF50-54   90/171    988 10:25 1:44:05   Marystown
 2043 1505  Sherry Notley          1:46:21 LF35-39  164/268    989 10:23 1:43:41   CBS
 2044 2238  Roxanne Notley         1:46:21 LF40-44  158/227    990 10:23 1:43:41   Port Hope Simps
 2045 2694  Melanie Dawe           1:46:22 LF30-34  154/248    991 10:21 1:43:29   CBS
 2046 1395  Kim Fleming            1:46:23 LF25-29  137/222    992 10:23 1:43:47   St. John's
 2047 648   Tammy Pennell          1:46:23 LF35-39  165/268    993 10:26 1:44:20   Goulds
 2048 647   Lisa Kieley            1:46:23 LF35-39  166/268    994 10:26 1:44:20   Goulds
 2049 1412  Rebekah Slemin         1:46:24 LF30-34  155/248    995 10:23 1:43:46   St. John's
 2050 791   Katherine Chubbs       1:46:26 LF35-39  167/268    996 10:19 1:43:01   Goulds
 2051 394   Mark Dalton            1:46:27 LM35-39  177/189   1055 10:25 1:44:01   Conception Bay
 2052 1449  Sarah Pender           1:46:27 LF25-29  138/222    997 10:27 1:44:25   St. John's
 2053 1336  Ashley Dawe            1:46:27 LF30-34  156/248    998 10:33 1:45:26   Conception Bay
 2054 673   Keith Peddle           1:46:30 LM60-64   53/68    1056 10:32 1:45:13   St. John's
 2055 1271  Catharyn Andersen      1:46:36 LF35-39  168/268    999 10:27 1:44:24   Conception Bay
 2056 2399  Sharon Snow            1:46:36 LF55-59   37/96    1000 10:22 1:43:38   Pleasantville
 2057 288   Sharon Drover          1:46:37 LF55-59   38/96    1001 10:27 1:44:27   St. John's
 2058 1703  Linda Perry            1:46:37 LF35-39  169/268   1002 10:32 1:45:16   St. John's
 2059 1671  Paul Grant             1:46:40 LM45-49  122/136   1057 10:25 1:44:10   St. John's
 2060 2985  Karen Molloy           1:46:40 LF40-44  159/227   1003 10:25 1:44:06   Long Pond
 2061 2048  Kristin Murphy         1:46:42 LF25-29  139/222   1004 10:30 1:44:59   Mount Pearl
 2062 311   Joanne Butler          1:46:44 LF45-49  126/206   1005 10:25 1:44:03   CBS
 2063 81    Shelley Abbott         1:46:45 LF25-29  140/222   1006 10:25 1:44:03   St. John's
 2064 421   David Tipton           1:46:47 LM30-34  123/131   1058 10:30 1:44:51   Toronto
 2065 420   Dana Howse             1:46:47 LF30-34  157/248   1007 10:30 1:44:53   Toronto
 2066 2820  Donna Ramsay           1:46:48 LF30-34  158/248   1008 10:28 1:44:31   St.John's
 2067 20    Gail Murrin            1:46:52 LF45-49  127/206   1009 10:33 1:45:23   St. John's
 2068 1173  Barbara Goobie         1:46:54 LF45-49  128/206   1010 10:26 1:44:13   Clarenville
 2069 540   Molly Hynes            1:46:54 LF50-54   91/171   1011 10:26 1:44:13   Clarenville
 2070 2602  Cyril Boia             1:46:54 LM40-44  124/134   1059 10:26 1:44:18   St. John's
 2071 472   Jennifer Noseworthy    1:46:54 LF30-34  159/248   1012 10:37 1:46:05   Torbay
 2072 1688  Cathy Bradbury         1:46:55 LF45-49  129/206   1013 10:30 1:44:57   St. John's
 2073 2189  Alison Nolan           1:46:59 LF30-34  160/248   1014 10:22 1:43:37   goulds
 2074 2108  Stephanie Edwards      1:46:59 LF30-34  161/248   1015 10:22 1:43:38   Goulds
 2075 1443  Katherine Skanes       1:47:03 LF30-34  162/248   1016 10:28 1:44:32   Logy Bay
 2076 1033  Heather Hopkins        1:47:05 LF45-49  130/206   1017 10:36 1:46:00   St. John's
 2077 499   Eugene Elliott         1:47:05 LM60-64   54/68    1060 10:34 1:45:36   St. John's
 2078 2754  Denisine Nolan         1:47:07 LF45-49  131/206   1018 10:24 1:43:54   Marystown
 2079 3008  Lisa Hillier           1:47:08 LF35-39  170/268   1019 10:25 1:44:02   St. John's
 2080 613   Susan Murphy           1:47:10 LF40-44  160/227   1020 10:29 1:44:41   St. John's
 2081 1841  Donna McDonald         1:47:11 LF45-49  132/206   1021 10:28 1:44:33   St. John's
 2082 2928  Tracey Kieley          1:47:13 LF35-39  171/268   1022 10:27 1:44:26   Halifax
 2083 536   Melissa Parsons        1:47:14 LF25-29  141/222   1023 10:31 1:45:01   Conception Bay
 2084 845   Deborah Noseworthy     1:47:15 LF55-59   39/96    1024 10:35 1:45:50   St. John's
 2085 638   Tasha Reid             1:47:23 LF35-39  172/268   1025 10:30 1:44:54   St. John's
 2086 141   Andrea Buckle          1:47:25 LF25-29  142/222   1026 10:32 1:45:11   Washago
 2087 1124  Alanna Wells           1:47:33 LF-19     25/42    1027 10:37 1:46:01   Appleton
 2088 256   Meghan Kennedy         1:47:35 LF25-29  143/222   1028 10:32 1:45:20   Mount Pearl
 2089 1754  Jennifer Furey         1:47:37 LF30-34  163/248   1029 10:29 1:44:50   St. John's
 2090 2888  Chad Davis             1:47:40 LM40-44  125/134   1061 10:35 1:45:45   St. John's
 2091 1242  Jane Hennebury         1:47:40 LF30-34  164/248   1030 10:34 1:45:36   St. John's
 2092 2988  Kim Parrell            1:47:42 LF45-49  133/206   1031 10:33 1:45:21   St. John's
 2093 1245  Rosemary Lahey         1:47:43 LF55-59   40/96    1032 10:39 1:46:30   St. John's
 2094 2604  Jason Martin           1:47:45 LM25-29  102/107   1062 10:34 1:45:31   grande prairie
 2095 2518  Robin Nurse            1:47:45 LF25-29  144/222   1033 10:34 1:45:31   Grande Prairie
 2096 327   Susan Edison           1:47:47 LF35-39  173/268   1034 10:37 1:46:09   St. John's
 2097 994   Shanna-Dee Rideout     1:47:49 LF50-54   92/171   1035 10:33 1:45:22   Topsail
 2098 2632  Lori-Ann Upshall       1:47:49 LF40-44  161/227   1036 10:35 1:45:47   North Harbour
 2099 1203  Rodney Scott           1:47:52 LM35-39  178/189   1063 10:39 1:46:24   Torbay
 2100 3028  Linda Ryan             1:47:52 LF45-49  134/206   1037 10:35 1:45:42   St. John's
 2101 607   Karen Peddle           1:47:55 LF40-44  162/227   1038 10:33 1:45:28   Paradise
 2102 2937  Riley Best             1:47:56 LF25-29  145/222   1039 10:36 1:45:51   St. John's
 2103 62    Eric Chislett          1:47:57 LM65-69   17/30    1064 10:33 1:45:23   Grande Prairie
 2104 1823  Vanessa Squires        1:47:58 LF30-34  165/248   1040 10:32 1:45:11   CBS
 2105 2554  Wanda Dawe             1:47:58 LF55-59   41/96    1041 10:33 1:45:28   Con Bay South
 2106 2921  J Gerard Neville       1:47:59 LM55-59  100/117   1065 10:35 1:45:42   Mount Pearl
 2107 1912  Jennifer Martin        1:48:07 LF25-29  146/222   1042 10:35 1:45:49   St. Philip's
 2108 1092  Candic Porter          1:48:13 LF20-24   86/119   1043 10:43 1:47:06   St.John's
 2109 642   Patricia Keough        1:48:14 LF30-34  166/248   1044 10:38 1:46:14   Gander
 2110 1992  Lindsay Hollett        1:48:17 LF25-29  147/222   1045 10:35 1:45:41   St. John's
 2111 906   Nipa Parsons           1:48:17 LF35-39  174/268   1046 10:42 1:46:55   Scarborough
 2112 921   Catherine Burgess      1:48:20 LF20-24   87/119   1047 10:38 1:46:14   Portugal Cove-S
 2113 2638  Martin Steffen         1:48:20 LM45-49  123/136   1066 10:37 1:46:10   St John's
 2114 1772  Mark Burroughs         1:48:22 LM25-29  103/107   1067 10:33 1:45:26   St. John's
 2115 2284  Gary Udle              1:48:23 LM55-59  101/117   1068 10:40 1:46:33   Mount Pearl
 2116 2285  Jeanette Whitten       1:48:24 LF45-49  135/206   1048 10:40 1:46:32   Petty Harbour
 2117 2633  Andree MacMillan       1:48:27 LF35-39  175/268   1049 10:41 1:46:45   St. John's
 2118 1904  Jill Hawkins           1:48:33 LF30-34  167/248   1050 10:39 1:46:23   CBS
 2119 2426  Valerie Petten         1:48:33 LF30-34  168/248   1051 10:39 1:46:23   Paradise
 2120 39    Dana Dillon            1:48:41 LF30-34  169/248   1052 10:53 1:48:41   St. John's
 2121 502   Danielle Higdon        1:48:44 LF30-34  170/248   1053 10:37 1:46:02   St. John's
 2122 30    Tammy Butler           1:48:52 LF35-39  176/268   1054 10:45 1:47:21   St. John
 2123 1779  Jeff Brown             1:48:54 LM30-34  124/131   1069 10:44 1:47:16   St john's
 2124 2891  Deanne Rowsell         1:48:55 LF35-39  177/268   1055 10:46 1:47:39   Paradise
 2125 2184  Leona Molloy           1:48:58 LF35-39  178/268   1056 10:44 1:47:13   St. John's
 2126 2323  Liz Green              1:48:59 LF50-54   93/171   1057 10:39 1:46:24   dartmouth
 2127 2444  Jennifer Gibbons       1:48:59 LF30-34  171/248   1058 10:40 1:46:40   St.John's
 2128 2061  Steve Browne           1:49:00 LM50-54  126/145   1070 10:40 1:46:35   St. John's
 2129 2998  Terry Yates            1:49:00 LM45-49  124/136   1071 10:35 1:45:45   Lewisporte
 2130 826   Greg Woolgar           1:49:02 LM40-44  126/134   1072 10:48 1:47:53   St. John's
 2131 1067  Dara Burry             1:49:03 LF30-34  172/248   1059 10:40 1:46:33   St. John's
 2132 2511  Irene House            1:49:05 LF55-59   42/96    1060 10:42 1:46:58   GILLAMS
 2133 966   Shallon Lucas          1:49:06 LF30-34  173/248   1061 10:46 1:47:32   Torbay
 2134 1588  Theresa Neil           1:49:09 LF35-39  179/268   1062 10:43 1:47:07   Paradise
 2135 987   Sabrina Morgan         1:49:10 LF35-39  180/268   1063 10:45 1:47:29   CBS
 2136 2081  Bridget Wilkinson      1:49:11 LF25-29  148/222   1064 10:43 1:47:04   Flatrock
 2137 2294  Linda Goodyear         1:49:15 LF50-54   94/171   1065 10:37 1:46:07   CBS
 2138 2465  Stephanie Russell      1:49:16 LF25-29  149/222   1066 10:44 1:47:18   Mt. Pearl
 2139 2840  Kimberley Fifield      1:49:18 LF40-44  163/227   1067 10:37 1:46:08   Mount Pearl
 2140 1133  Krista Wells           1:49:21 LF35-39  181/268   1068 10:41 1:46:45   St. John
 2141 1626  Julie Parsons          1:49:25 LF30-34  174/248   1069 10:43 1:47:05   St. John's
 2142 2759  Gerard Sinnott         1:49:25 LM50-54  127/145   1073 10:47 1:47:50   St.John's
 2143 2413  Mark Genge             1:49:27 LM40-44  127/134   1074 10:57 1:49:27   Paradise
 2144 2089  Ashley Hiscock         1:49:29 LF25-29  150/222   1070 10:46 1:47:32   Conception Bay
 2145 169   Theresa Hawkins        1:49:34 LF25-29  151/222   1071 10:41 1:46:44   Ottawa
 2146 2049  Darrell Eddy           1:49:37 LM45-49  125/136   1075 10:46 1:47:37   CBS
 2147 2388  Bonnie Sheppard        1:49:37 LF50-54   95/171   1072 10:46 1:47:37   Halifax
 2148 765   Victoria Hamlyn        1:49:37 LF50-54   96/171   1073 10:38 1:46:16   Stephenville Cr
 2149 3072  Peggy Curran           1:49:37 LF25-29  152/222   1074 10:38 1:46:16   Paradise
 2150 2945  Maria Philpott         1:49:38 LF20-24   88/119   1075 10:56 1:49:15   St. John's
 2151 2386  Kera Beck              1:49:40 LF25-29  153/222   1076 10:47 1:47:42   St. John's
 2152 2969  Danny Kenny            1:49:41 LM35-39  179/189   1076 10:44 1:47:19   Mount Pearl
 2153 1408  Lynn Moore             1:49:42 LF40-44  164/227   1077 10:45 1:47:22   St.John's
 2154 100   Gail Morrissey         1:49:44 LF40-44  165/227   1078 10:44 1:47:12   Brossard
 2155 286   Denise Lacour          1:49:47 LF40-44  166/227   1079 10:50 1:48:18   Holyrood
 2156 2274  Jacqueline Perry       1:49:47 LF45-49  136/206   1080 10:50 1:48:18   Paradise
 2157 2876  Jacinta McGrath        1:49:51 LF30-34  175/248   1081 10:41 1:46:42   Patricks Cove
 2158 495   Sharon Parsons         1:49:54 LF35-39  182/268   1082 10:47 1:47:49   Bay Bulls
 2159 1843  Tanya Jones            1:49:55 LF30-34  176/248   1083 10:49 1:48:10   Paradise
 2160 2909  Kathleen Dunderdale    1:49:58 LF55-59   43/96    1084 10:50 1:48:12   St. John's
 2161 2623  Dave White             1:49:59 LM40-44  128/134   1077 10:50 1:48:13   St. John's
 2162 2625  Milly Brown            1:49:59 LF45-49  137/206   1085 10:50 1:48:13   St. John's
 2163 3051  Joe Smyth              1:49:59 LM30-34  125/131   1078 10:50 1:48:12   none given
 2164 1589  Kevin Power            1:50:04 LM45-49  126/136   1079 10:47 1:47:44   Conception Bay
 2165 1886  Steve Priest           1:50:05 LM50-54  128/145   1080 10:42 1:46:55   St. John's
 2166 1882  Tikwa Sum              1:50:05 LF30-34  177/248   1086 10:42 1:46:56   St. John's
 2167 401   Leslie Hillyard        1:50:05 LF25-29  154/222   1087 10:51 1:48:24   St John's
 2168 2721  Rosemary O'Neill       1:50:09 LF50-54   97/171   1088 10:47 1:47:46   Harbour Main
 2169 910   Emanuela Mascarin      1:50:10 LF35-39  183/268   1089 10:46 1:47:34   Torbay
 2170 999   Jodie Taylor           1:50:11 LF35-39  184/268   1090 10:53 1:48:42   Torbay
 2171 1008  Pam Senior             1:50:12 LF45-49  138/206   1091 10:53 1:48:43   Torbay
 2172 1584  Laura Power            1:50:14 LF20-24   89/119   1092 10:48 1:47:54   Conception Bay
 2173 2656  Barbara Barry          1:50:14 LF60-64   16/56    1093 10:56 1:49:18   St. John's
 2174 194   Michelle Emberley      1:50:16 LF40-44  167/227   1094 10:53 1:48:41   St.John's
 2175 670   Karyn Murphy           1:50:18 LF25-29  155/222   1095 10:51 1:48:22   St. John's
 2176 2981  Karen Power            1:50:20 LF25-29  156/222   1096 10:51 1:48:24   St. John's
 2177 1558  Melissa Patey          1:50:22 LF35-39  185/268   1097 10:47 1:47:48   St. John's
 2178 1370  Kate Dupre             1:50:23 LF35-39  186/268   1098 10:47 1:47:48   St. John's
 2179 2405  Katharine Hardiman     1:50:24 LF30-34  178/248   1099 10:51 1:48:22   Mount Pearl
 2180 842   Mercedes Johnson       1:50:25 LF50-54   98/171   1100 10:51 1:48:26   Ferryland
 2181 1770  Valerie Goodland-Henne 1:50:27 LF40-44  168/227   1101 10:47 1:47:43   Goulds
 2182 792   Emma Nitschke          1:50:28 LF25-29  157/222   1102 10:44 1:47:17   Bauline
 2183 400   Gerri Davison          1:50:33 LF50-54   99/171   1103 10:44 1:47:17   Stephenville
 2184 1017  Sandra Tizzard         1:50:36 LF55-59   44/96    1104 10:48 1:47:55   Mount Pearl
 2185 1593  Natelle Tulk           1:50:39 LF35-39  187/268   1105 10:48 1:47:59   St. John's
 2186 1893  Karen Whitten          1:50:42 LF25-29  158/222   1106 10:53 1:48:45   Mt.Pearl
 2187 2341  Jessica Bartlett       1:50:48 LF25-29  159/222   1107 10:54 1:48:53   St. John's
 2188 2473  Pamela Lane            1:50:51 LF35-39  188/268   1108 10:54 1:48:59   Bay Roberts
 2189 2313  Kelly Barry            1:51:01 LF35-39  189/268   1109 10:59 1:49:43   Beaumont
 2190 873   Anne-Marie Hull        1:51:03 LF30-34  179/248   1110 10:51 1:48:29   Paradise
 2191 1003  Deanne Bennett         1:51:03 LF25-29  160/222   1111 10:51 1:48:30   Paradise
 2192 263   Tanya Drake            1:51:04 LF40-44  169/227   1112 11:00 1:49:58   Pascagoula
 2193 157   Amanda Anderson        1:51:05 LF30-34  180/248   1113 10:51 1:48:21   Calgary
 2194 1233  Jf Sloan               1:51:05 LM45-49  127/136   1081 10:56 1:49:13   Mount Pearl
 2195 1608  Ryan Armstrong         1:51:08 LM30-34  126/131   1082 10:52 1:48:39   St. John's
 2196 2483  Danielle Browne        1:51:14 LF35-39  190/268   1114 10:55 1:49:03   ST JOHN'S
 2197 2225  Tracy Carroll          1:51:18 LF35-39  191/268   1115 10:56 1:49:20   Mount Pearl
 2198 1225  Michelle Dyke          1:51:19 LF40-44  170/227   1116 10:54 1:48:52   Conception Bay
 2199 90    David Darby            1:51:22 LM20-24   68/71    1083 11:09 1:51:22   Calgary
 2200 2411  Brian Critch           1:51:23 LM25-29  104/107   1084 10:52 1:48:40   Paradise
 2201 1609  Amanda Armstrong       1:51:25 LF30-34  181/248   1117 10:54 1:48:57   St. John's
 2202 2591  Melanie Russell        1:51:27 LF30-34  182/248   1118 10:58 1:49:35   Roaches Line
 2203 1793  Sheena Fry             1:51:31 LF25-29  161/222   1119 10:57 1:49:25   Paradise
 2204 1792  Melanie Groves         1:51:32 LF25-29  162/222   1120 10:57 1:49:26   St. John's
 2205 2068  Adam Hiscock           1:51:34 LM25-29  105/107   1085 10:58 1:49:37   CBS
 2206 2947  Charles Gower          1:51:38 LM65-69   18/30    1086 10:52 1:48:36   St. John's
 2207 1526  Sheila Osmond          1:51:39 LF55-59   45/96    1121 11:01 1:50:08   Carbonear
 2208 1184  Bernice Churchill      1:51:40 LF70-74    3/4     1122 10:55 1:49:03   CBS
 2209 89    Stephanie Napke        1:51:42 LM55-59  102/117   1087 10:50 1:48:19   Calgary
 2210 1759  Craig Holwell          1:51:43 LM35-39  180/189   1088 10:59 1:49:45   Portugal Cove
 2211 1468  Jeremy Korchoski       1:51:44 LM35-39  181/189   1089 10:58 1:49:40   CBS
 2212 1483  Jodie Rice             1:51:48 LF30-34  183/248   1123 10:59 1:49:44   Mt. Pearl
 2213 3037  Joy Hart               1:51:51 LF35-39  192/268   1124 11:02 1:50:11   CBS
 2214 745   Janice MacDonald       1:51:52 LF55-59   46/96    1125 11:01 1:50:03   St John's
 2215 17    Rosamund (ros) Gellate 1:51:54 LF55-59   47/96    1126 10:59 1:49:44   Mt. Pearl
 2216 1504  Rosemary Maher         1:51:54 LF40-44  171/227   1127 10:58 1:49:40   Flatrock
 2217 2415  Derek Yetman           1:51:55 LM45-49  128/136   1090 10:51 1:48:30   Hr. Grace
 2218 2696  Susan Smallwood        1:52:02 LF40-44  172/227   1128 10:58 1:49:35   St. John's
 2219 724   Heather Seeley         1:52:02 LF35-39  193/268   1129 10:57 1:49:30   Mount Pearl
 2220 2163  Sara Downey            1:52:09 LF25-29  163/222   1130 10:58 1:49:37   Paradise
 2221 1715  Stephen Kent           1:52:10 LM30-34  127/131   1091 10:55 1:49:05   Mount Pearl
 2222 23    Jenne MacLean          1:52:17 LF35-39  194/268   1131 11:05 1:50:48   St. John
 2223 52    James Williams         1:52:19 LM55-59  103/117   1092 11:01 1:50:01   Dundas
 2224 56    Diane McKenzie         1:52:19 LF50-54  100/171   1132 11:01 1:50:02   Warner
 2225 1842  Isobel O'Shea          1:52:27 LF30-34  184/248   1133 10:59 1:49:41   Mount Pearl
 2226 11    David MacNeil          1:52:27 LM50-54  129/145   1093 10:56 1:49:14   Halifax
 2227 1692  Robert Noseworthy      1:52:30 LM55-59  104/117   1094 11:04 1:50:37   St. John's
 2228 1700  Barbara Noseworthy     1:52:30 LF55-59   48/96    1134 11:04 1:50:37   St. John's
 2229 1032  Tegan Barnes           1:52:31 LF25-29  164/222   1135 11:01 1:50:06   C.B.S.
 2230 1998  Wendy Rodgers          1:52:32 LF35-39  195/268   1136 10:59 1:49:43   St. John's
 2231 2700  Leigh Anne Newhook     1:52:32 LF40-44  173/227   1137 11:01 1:50:04   St. John's
 2232 643   Dana Murphy            1:52:34 LF35-39  196/268   1138 11:01 1:50:06   c.b.s.
 2233 1714  Peter Duff             1:52:37 LM45-49  129/136   1095 10:55 1:49:08   St. John's
 2234 1294  Suzanne Lush           1:52:37 LF20-24   90/119   1139 11:10 1:51:31   Lewisporte
 2235 2410  Mary Piccott           1:52:38 LF55-59   49/96    1140 11:01 1:50:02   Conception Bay
 2236 1554  Lucina Hearn           1:52:41 LF25-29  165/222   1141 11:07 1:51:08   St.John's
 2237 1551  Robert Spear           1:52:42 LM30-34  128/131   1096 11:07 1:51:08   St Johns
 2238 1172  Kim Savage             1:52:42 LF35-39  197/268   1142 11:15 1:52:27   CBS
 2239 1415  Amy Skinner            1:52:46 LF20-24   91/119   1143 11:11 1:51:47   Mount Pearl
 2240 1790  Regina Best            1:52:47 LF40-44  174/227   1144 11:08 1:51:14   St. John's
 2241 2654  Kayleigh O'Brien       1:52:47 LF-19     26/42    1145 11:07 1:51:02   Mount Pearl
 2242 2339  Karen Ramlall          1:52:49 LF40-44  175/227   1146 11:03 1:50:25   Toronto
 2243 2076  Joanne White           1:52:50 LF30-34  185/248   1147 11:03 1:50:24   CBS
 2244 1366  Shannon Stamp          1:52:51 LF30-34  186/248   1148 11:05 1:50:42   Flatrock
 2245 2127  Sara Ralph             1:52:51 LF-19     27/42    1149 11:03 1:50:29   Paradise
 2246 2922  Malcom Rowsell         1:52:54 LM65-69   19/30    1097 11:12 1:51:53   Clarenville
 2247 1362  Anne Marie Smyth       1:52:55 LF60-64   17/56    1150 11:04 1:50:33   St. John's
 2248 155   Nicole Leaper          1:52:55 LF50-54  101/171   1151 11:04 1:50:32   Toronto
 2249 641   Kieran Miller          1:52:58 LF25-29  166/222   1152 11:08 1:51:20   St. John's
 2250 2055  Cheryl Sturge          1:53:00 LF30-34  187/248   1153 11:13 1:52:06   Mount Pearl
 2251 645   Erin Smith             1:53:04 LF25-29  167/222   1154 11:08 1:51:12   St.Phillips
 2252 306   Krystal Williams       1:53:18 LF20-24   92/119   1155 11:08 1:51:12   St. John's
 2253 840   Kelly Hemeon           1:53:22 LF30-34  188/248   1156 11:08 1:51:18   ST JOHN'S
 2254 2458  Jackie Hennessey       1:53:22 LF50-54  102/171   1157 11:04 1:50:35   Kelligrews
 2255 1439  Daniel Bourgeois       1:53:24 LM35-39  182/189   1098 11:09 1:51:27   St. John's
 2256 1441  Melissa Bourgeois      1:53:24 LF30-34  189/248   1158 11:09 1:51:26   St. John
 2257 2960  Debbie Hanlon          1:53:26 LF45-49  139/206   1159 11:00 1:49:58   St. John's
 2258 86    Stephanie George       1:53:30 LF20-24   93/119   1160 11:11 1:51:45   St.John's
 2259 807   Rachel Warren          1:53:36 LF30-34  190/248   1161 11:22 1:53:36   Conception Bay
 2260 1365  Charlene Brown         1:53:44 LF35-39  198/268   1162 11:11 1:51:50   Torbay
 2261 2162  Kerryanne O'Brien      1:53:58 LF40-44  176/227   1163 11:07 1:51:10   Mount Pearl
 2262 1212  Krista Cardwell        1:53:59 LF25-29  168/222   1164 11:22 1:53:35   St. John's
 2263 1814  Ashley Ryan            1:54:02 LF25-29  169/222   1165 11:11 1:51:46   Mount Pearl
 2264 475   Meghan Kehoe           1:54:03 LF30-34  191/248   1166 11:16 1:52:37   Churchill Falls
 2265 2315  Allison Downton        1:54:07 LF25-29  170/222   1167 11:10 1:51:39   Torbay
 2266 173   Julie Sheppard         1:54:09 LF30-34  192/248   1168 11:14 1:52:16   Paradise
 2267 1810  Melissa Keeping        1:54:11 LF35-39  199/268   1169 11:08 1:51:18   Mount Pearl
 2268 1913  Janis Bragg            1:54:12 LF30-34  193/248   1170 11:08 1:51:21   St. John's
 2269 1686  Melissa Nippard        1:54:14 LF35-39  200/268   1171 11:17 1:52:42   Paradise
 2270 1673  Caroline Grant         1:54:20 LF-19     28/42    1172 11:11 1:51:50   St. John's
 2271 2129  Nicholas Ralph         1:54:22 LM-19     43/50    1099 11:12 1:52:00   Paradise
 2272 1363  Karen Goulding         1:54:25 LF40-44  177/227   1173 11:11 1:51:48   Torbay
 2273 551   Katie Hussey           1:54:30 LF30-34  194/248   1174 11:12 1:51:53   St. John's
 2274 1125  Donna Hurley           1:54:33 LF45-49  140/206   1175 11:21 1:53:22   Conception Bay
 2275 600   Tony Cox               1:54:35 LM55-59  105/117   1100 11:11 1:51:42   St. John's
 2276 1162  Roxanne Hurley         1:54:39 LF50-54  103/171   1176 11:13 1:52:09   Goulds
 2277 2144  Krista Brockerville    1:54:41 LF25-29  171/222   1177 11:09 1:51:29   Marystown
 2278 1604  Christine Jones        1:54:45 LF45-49  141/206   1178 11:15 1:52:25   St. John's
 2279 2244  Jim Veitch             1:54:46 LM60-64   55/68    1101 11:17 1:52:43   St. John's
 2280 181   Katherine Cheeseman    1:54:49 LF25-29  172/222   1179 11:14 1:52:18   Holyrood
 2281 188   Tina Soles             1:54:49 LF40-44  178/227   1180 11:10 1:51:34   Bowmanville
 2282 2650  B Mercer               1:54:52 LF40-44  179/227   1181 11:16 1:52:33   st johns
 2283 1864  Cindy Vincent          1:54:56 LF35-39  201/268   1182 11:15 1:52:24   C.B.S
 2284 2540  Jeff Thomas            1:54:57 LM50-54  130/145   1102 11:30 1:54:57   St. John's
 2285 960   Melanie Snow           1:54:58 LF45-49  142/206   1183 11:14 1:52:20   St. John's
 2286 2506  Jodie Aucoin           1:54:58 LF40-44  180/227   1184 11:18 1:52:58   St. John's
 2287 1756  Christopher Dyson      1:55:00 LM35-39  183/189   1103 11:18 1:52:53   St. John's
 2288 1453  David Furey            1:55:03 LM25-29  106/107   1104 11:31 1:55:03   st john's
 2289 2029  Kristen McCrowe        1:55:06 LF25-29  173/222   1185 11:14 1:52:14   St. John's
 2290 697   Jessica Petten         1:55:07 LF20-24   94/119   1186 11:18 1:52:55   CBS
 2291 2569  Angela Whitten         1:55:16 LF-19     29/42    1187 11:21 1:53:30   Mount Pearl
 2292 1951  Sherry Janes           1:55:17 LF45-49  143/206   1188 11:16 1:52:31   St. John's
 2293 2885  Heather McNeill        1:55:19 LF45-49  144/206   1189 11:16 1:52:31   St. John's
 2294 1694  Lisa Fitzpatrick       1:55:21 LF20-24   95/119   1190 11:19 1:53:09   Conception Bay
 2295 160   Katey Roberts          1:55:21 LF25-29  174/222   1191 11:14 1:52:20   Paradise
 2296 1668  Penny Grant            1:55:24 LF45-49  145/206   1192 11:18 1:52:53   St. John's
 2297 1777  Danny Okeefe           1:55:25 LM60-64   56/68    1105 11:17 1:52:46   Harbour Grace
 2298 34    Tracy O'Brien          1:55:25 LF35-39  202/268   1193 11:18 1:53:00   Clarkes Beach
 2299 33    Ted Rogers             1:55:25 LM35-39  184/189   1106 11:19 1:53:01   Clarkes Beach
 2300 174   Elizabeth Brims        1:55:27 LF45-49  146/206   1194 11:19 1:53:02   Aurora
 2301 2215  Elizabeth Kelly        1:55:27 LF35-39  203/268   1195 11:19 1:53:03   Newmarket
 2302 142   Amy Lusk               1:55:27 LF30-34  195/248   1196 11:19 1:53:02   Newmarket
 2303 2568  Tonya Whittle          1:55:31 LF30-34  196/248   1197 11:15 1:52:27   Holyrood
 2304 2118  Sharon Ralph           1:55:36 LF40-44  181/227   1198 11:20 1:53:14   Paradise
 2305 1652  Jeanette Carrigan      1:55:42 LF40-44  182/227   1199 11:15 1:52:25   St. John's
 2306 2216  Dave Rudofsky          1:55:43 LM60-64   57/68    1107 11:25 1:54:06   St. John's
 2307 1002  Jennifer Mugford       1:55:47 LF30-34  197/248   1200 11:24 1:54:00   Doha
 2308 1877  Trish Moran            1:55:49 LF35-39  204/268   1201 11:15 1:52:28   Port Hood
 2309 659   Erika Butler           1:55:50 LF20-24   96/119   1202 11:22 1:53:38   Conception Bay
 2310 1291  Cheryl Mullett         1:55:54 LF35-39  205/268   1203 11:23 1:53:50   St. John's
 2311 2522  Cheryl Kinden          1:55:54 LF35-39  206/268   1204 11:21 1:53:22   St. John's
 2312 170   Sherri Nash            1:55:55 LF35-39  207/268   1205 11:21 1:53:24   Burin Bay Arm
 2313 1342  Heather Parmiter       1:55:59 LF50-54  104/171   1206 11:25 1:54:08   St. John's
 2314 2637  Melissa Churchill      1:56:02 LF30-34  198/248   1207 11:23 1:53:46   C.B.S.
 2315 104   Mary Joy Yuson         1:56:05 LF35-39  208/268   1208 11:28 1:54:38   St. John's
 2316 2187  Sharon Woodman         1:56:14 LF50-54  105/171   1209 11:25 1:54:09   Dunville
 2317 1538  Gail Pretty            1:56:21 LF35-39  209/268   1210 11:21 1:53:21   CBS
 2318 2941  Tracy McGrath          1:56:29 LF30-34  199/248   1211 11:26 1:54:16   CBS
 2319 2495  Evelyn Spry            1:56:29 LF40-44  183/227   1212 11:28 1:54:34   St. John's
 2320 2025  Sharon Hewitt          1:56:30 LF50-54  106/171   1213 11:29 1:54:46   St. John's
 2321 3029  Michelle Peach         1:56:32 LF35-39  210/268   1214 11:33 1:55:23   CBS
 2322 1878  Tony Hong              1:56:35 LM45-49  130/136   1108 11:25 1:54:02   St. John's
 2323 2255  Dan Owens              1:56:39 LM45-49  131/136   1109 11:23 1:53:47   St. John's
 2324 718   Michaela Walzthoni     1:56:40 LF-19     30/42    1215 11:30 1:54:51   Conception Bay
 2325 2254  Bernadette Chalker     1:56:40 LF50-54  107/171   1216 11:23 1:53:47   St. John's
 2326 1752  Kim Walsh              1:56:51 LF45-49  147/206   1217 11:25 1:54:06   St. John's
 2327 255   Cheryl Kelly           1:56:54 LF30-34  200/248   1218 11:28 1:54:32   Paradise
 2328 1286  Paulette Evans         1:56:55 LF60-64   18/56    1219 11:25 1:54:05   Pouch Cove
 2329 657   Joan Butler            1:56:57 LF45-49  148/206   1220 11:27 1:54:30   Conception Bay
 2330 409   Deborah Parker         1:56:57 LF25-29  175/222   1221 11:27 1:54:30   Conception Bay
 2331 2681  Debbie Dawe            1:57:00 LF40-44  184/227   1222 11:25 1:54:01   South Dildo
 2332 2880  Shawn Dillon           1:57:01 LM35-39  185/189   1110 11:29 1:54:47   Petty Harbour
 2333 738   Linda Dillon           1:57:01 LF30-34  201/248   1223 11:29 1:54:48   Petty Harbour
 2334 305   Amanda Matthews        1:57:08 LF30-34  202/248   1224 11:29 1:54:46   CBS
 2335 1989  Cindy Eagan            1:57:09 LF50-54  108/171   1225 11:33 1:55:30   Mt Pearl
 2336 362   Charmaine Ralph        1:57:09 LF30-34  203/248   1226 11:28 1:54:32   Conception Bay
 2337 1546  Cynthia Warford        1:57:11 LF50-54  109/171   1227 11:35 1:55:43   St. John's
 2338 1157  Michelle Kavanagh      1:57:12 LF35-39  211/268   1228 11:44 1:57:12   Portugal Cove
 2339 810   Laura Button           1:57:13 LF25-29  176/222   1229 11:31 1:55:01   Summerville
 2340 717   Brenda Quigley         1:57:16 LF30-34  204/248   1230 11:32 1:55:12   Paradise
 2341 2866  Flo White              1:57:20 LF65-69    3/11    1231 11:26 1:54:15   Cape Broyle
 2342 817   Kimberly Marshall      1:57:23 LF20-24   97/119   1232 11:31 1:55:07   Clarke's Beach
 2343 1775  Tracy Dooley           1:57:27 LF35-39  212/268   1233 11:31 1:55:05   CBS
 2344 2230  Nicole Vey             1:57:28 LF30-34  205/248   1234 11:31 1:55:06   Conception Bay
 2345 1121  Charleen Fudge         1:57:32 LF35-39  213/268   1235 11:30 1:54:51   St Johns
 2346 2538  Zach Paul              1:57:35 LM-19     44/50    1111 11:27 1:54:22   Torbay
 2347 2567  Jacqui Morgan          1:57:36 LF45-49  149/206   1236 11:30 1:54:53   Conception Bay
 2348 914   Amy Sheppard           1:57:42 LF30-34  206/248   1237 11:35 1:55:48   St. John's
 2349 1986  Leah Murphy            1:57:42 LF35-39  214/268   1238 11:35 1:55:45   Goulds
 2350 1798  Linda Power            1:57:46 LF40-44  185/227   1239 11:31 1:55:05   Bell Island
 2351 1142  Wayne Collins          1:57:49 LM45-49  132/136   1112 11:42 1:56:52   Goulds
 2352 2702  Lynn Perks             1:57:50 LF50-54  110/171   1240 11:42 1:56:55   St. John's
 2353 2263  Joan Bulgin            1:57:54 LF60-64   19/56    1241 11:45 1:57:27   St. John's
 2354 579   Anne-Marie Sullivan    1:57:56 LF40-44  186/227   1242 11:32 1:55:11   Conception Bay
 2355 1696  Susan Rumsey           1:58:09 LF40-44  187/227   1243 11:41 1:56:45   St. John's
 2356 55    Karen Hurley Power     1:58:10 LF40-44  188/227   1244 11:42 1:57:00   St. John's
 2357 2038  Sonia Meadus           1:58:12 LF40-44  189/227   1245 11:35 1:55:41   cbs
 2358 2627  Paul March             1:58:15 LM60-64   58/68    1113 11:50 1:58:15   Burnt Cove
 2359 542   Robyn Tilley           1:58:16 LF30-34  207/248   1246 11:37 1:56:09   Conception Bay
 2360 2827  Danielle Bartlett      1:58:18 LF-19     31/42    1247 11:33 1:55:27   Paradise
 2361 3009  Jodie Thompson         1:58:18 LF25-29  177/222   1248 11:40 1:56:38   St. John's
 2362 1575  Carole Moody           1:58:23 LF50-54  111/171   1249 11:38 1:56:11   st. john's
 2363 1544  Jeanette Barry         1:58:23 LF45-49  150/206   1250 11:37 1:56:10   St.John's
 2364 88    Jane Tamaki            1:58:25 LF50-54  112/171   1251 11:30 1:54:58   Thornhill
 2365 1391  Susanne Blundon        1:58:25 LF35-39  215/268   1252 11:36 1:55:51   Paradise
 2366 374   Dawn Gulliver          1:58:26 LF35-39  216/268   1253 11:40 1:56:38   Mt. Pearl
 2367 512   Cheryl Harding         1:58:28 LF50-54  113/171   1254 11:43 1:57:05   CBS
 2368 2206  Melissa Whitten        1:58:33 LF-19     32/42    1255 11:40 1:56:31   ST JOHNS
 2369 2261  Rosalind Chafe         1:58:35 LF50-54  114/171   1256 11:39 1:56:21   Torbay
 2370 2262  Wm. Robert Lee         1:58:35 LM50-54  131/145   1114 11:38 1:56:20   St. John's
 2371 1800  Brittany Noel          1:58:36 LF20-24   98/119   1257 11:38 1:56:11   St. John's
 2372 1813  Sarah Sturge           1:58:39 LF20-24   99/119   1258 11:38 1:56:15   Mount Pearl
 2373 423   Glenda Hawco           1:58:42 LF45-49  151/206   1259 11:35 1:55:44   POUCH COVE
 2374 2531  Mike Lockman           1:58:43 LM25-29  107/107   1115 11:33 1:55:22   Mount Pearl
 2375 2682  Melissa Decker         1:58:44 LF25-29  178/222   1260 11:37 1:56:03   Paradise
 2376 1850  Cathy Pearcey          1:58:45 LF45-49  152/206   1261 11:47 1:57:48   Clarenville
 2377 700   Chantel Healey         1:58:47 LF25-29  179/222   1262 11:40 1:56:36   Chapels Cove
 2378 2293  Brent Foote            1:58:50 LM-19     45/50    1116 11:33 1:55:26   Mount Pearl
 2379 2732  Kara Laing             1:58:52 LF40-44  190/227   1263 11:41 1:56:44   St. John's
 2380 2217  Audra Strong           1:58:54 LF45-49  153/206   1264 11:34 1:55:36   Clarenville
 2381 482   Vanessa Farrell        1:59:16 LF35-39  217/268   1265 11:46 1:57:35   Paradise
 2382 1655  Patricia Churchill     1:59:17 LF45-49  154/206   1266 11:40 1:56:36   St. John's
 2383 2286  Tiffany Whitten        1:59:22 LF20-24  100/119   1267 11:40 1:56:32   Petty Harbour
 2384 3054  Evelyn Hibbs           1:59:22 LF60-64   20/56    1268 11:38 1:56:14   St. John's
 2385 2382  James Lynch            1:59:23 LM55-59  106/117   1117 11:49 1:58:06   Goulds
 2386 2716  Dayna Lynch            1:59:23 LF20-24  101/119   1269 11:49 1:58:06   Goulds
 2387 2510  Calvin Randell         1:59:28 LM50-54  132/145   1118 11:46 1:57:39   Conception Bay
 2388 1405  Justine Howard         1:59:30 LF20-24  102/119   1270 11:43 1:57:08   St.John's
 2389 1396  Robert Howard          1:59:30 LM50-54  133/145   1119 11:43 1:57:08   St.John's
 2390 662   Regina Walsh           1:59:33 LF45-49  155/206   1271 11:44 1:57:18   CBS
 2391 661   Donna Mayo             1:59:33 LF40-44  191/227   1272 11:44 1:57:18   Conception Bay
 2392 177   Dan O'Connell          1:59:35 LM60-64   59/68    1120 11:47 1:57:46   ST. JOHN'S
 2393 427   Arlene Scott           1:59:36 LF45-49  156/206   1273 11:44 1:57:20   Torbay
 2394 998   Joyce White            1:59:48 LF65-69    4/11    1274 11:43 1:57:08   Ottawa
 2395 2785  Dennis Shea            1:59:53 LM55-59  107/117   1121 11:40 1:56:40   Conception Bay
 2396 59    Brenda Thomson         1:59:57 LF45-49  157/206   1275 11:41 1:56:47   Ottawa
 2397 130   Cathy Stowe            2:00:00 LF50-54  115/171   1276 11:50 1:58:13   Halifax
 2398 2872  Michelle Bailey        2:00:05 LF35-39  218/268   1277 11:57 1:59:29   St. John's
 2399 1237  David Burke            2:00:14 LM-19     46/50    1122 11:54 1:58:59   St. John's
 2400 2186  Raylene Noftall        2:00:14 LF-19     33/42    1278 11:54 1:58:59   St. John's
 2401 2873  Wilbert Bailey         2:00:16 LM65-69   20/30    1123 11:58 1:59:40   Clarenville
 2402 2424  Sarah Halliday         2:00:22 LF25-29  180/222   1279 11:52 1:58:39   st. john's
 2403 2830  Cherie Cable           2:00:25 LF40-44  192/227   1280 11:46 1:57:35   Conception Bay
 2404 2831  Cathy Austin           2:00:25 LF40-44  193/227   1281 11:46 1:57:35   Conception Bay
 2405 2920  Nancy Bartlett         2:00:26 LF30-34  208/248   1282 11:46 1:57:36   CBS
 2406 1867  Nicole Winters         2:00:32 LF35-39  219/268   1283 11:47 1:57:50   Harbour Main
 2407 438   Alberta Lynch          2:00:37 LF60-64   21/56    1284 11:57 1:59:21   London
 2408 2635  Tanya Jackman          2:00:39 LF35-39  220/268   1285 11:45 1:57:25   Marystown
 2409 1016  Tiffany Aylward        2:00:39 LF25-29  181/222   1286 11:55 1:59:01   Paradise
 2410 1071  Amanda Kennedy         2:00:39 LF-19     34/42    1287 11:55 1:59:01   Torbay
 2411 1403  Susan Whitten          2:00:42 LF45-49  158/206   1288 11:51 1:58:24   Goulds
 2412 1493  Liam Kieley            2:00:43 LM-19     47/50    1124 11:50 1:58:11   Mount Pearl
 2413 244   Heather Goobie         2:00:45 LF35-39  221/268   1289 11:55 1:59:05   St. John's
 2414 2437  Christine Shea         2:00:46 LF30-34  209/248   1290 11:51 1:58:30   Churchill Falls
 2415 2552  Rex W Gilbert          2:00:48 LM60-64   60/68    1125 11:47 1:57:49   Cupids
 2416 1817  Krista Hinks           2:00:59 LF30-34  210/248   1291 11:50 1:58:12   CBS
 2417 1647  Jennifer Philpott      2:01:01 LF30-34  211/248   1292 11:51 1:58:26   St. John's
 2418 569   Sharon Wells           2:01:03 LF55-59   50/96    1293 11:53 1:58:41   St. John's
 2419 1426  Carol Ann O'Brien      2:01:07 LF55-59   51/96    1294 11:52 1:58:40   Conception Bay
 2420 864   Courtney Gabriel       2:01:09 LF30-34  212/248   1295 11:47 1:57:43   Conception Bay
 2421 2982  David Gabriel          2:01:10 LM30-34  129/131   1126 11:47 1:57:44   CBS
 2422 2224  Bonnie Abbott          2:01:29 LF35-39  222/268   1296 12:01 2:00:05   Paradise
 2423 814   Catherine Piercey      2:01:30 LF30-34  213/248   1297 11:54 1:58:56   Paradise
 2424 787   Bridget Meaney         2:01:31 LF55-59   52/96    1298 12:01 2:00:06   Paradise
 2425 2181  Susan Duggan           2:01:31 LF30-34  214/248   1299 11:59 1:59:45   St. John's
 2426 2954  Amy Norris             2:01:33 LF30-34  215/248   1300 11:57 1:59:23   Paradise
 2427 903   Michelle Benteau       2:01:34 LF35-39  223/268   1301 11:55 1:59:04   Conception Bay
 2428 944   Colette Kenney         2:01:37 LF50-54  116/171   1302 11:52 1:58:39   Ottawa
 2429 2550  Max Dooher             2:01:37 LM-19     48/50    1127 11:52 1:58:39   Toronto
 2430 2543  Lisa Dooher            2:01:37 LF45-49  159/206   1303 11:52 1:58:39   toronto
 2431 945   Daisy Pendergast       2:01:43 LF30-34  216/248   1304 11:55 1:59:07   Paradise
 2432 893   Lisa Hawco             2:01:45 LF25-29  182/222   1305 11:58 1:59:35   Blaketown
 2433 1624  Patricia Flood         2:01:51 LF45-49  160/206   1306 12:00 1:59:56   Ottawa
 2434 2067  Elizabeth Squires      2:01:56 LF55-59   53/96    1307 11:59 1:59:41   St. John's
 2435 535   Tina Banfield          2:01:58 LF40-44  194/227   1308 11:54 1:58:52   Portugal Cove-S
 2436 894   Melissa Strickland     2:01:59 LF30-34  217/248   1309 12:00 1:59:51   Blaketown
 2437 1780  Ashley Clancey         2:02:02 LF20-24  103/119   1310 12:02 2:00:13   St John's
 2438 2587  Jenny Paddock          2:02:03 LF-19     35/42    1311 11:54 1:58:58   Mount Pearl
 2439 1993  Jillian Kean           2:02:03 LF25-29  183/222   1312 11:55 1:59:03   St. John's
 2440 2586  Geoff Paddock          2:02:06 LM50-54  134/145   1128 11:55 1:59:01   Mount Pearl
 2441 389   Jennifer Wall          2:02:17 LF35-39  224/268   1313 11:55 1:59:03   Gander
 2442 3045  Jackie Porter          2:02:23 LF35-39  225/268   1314 11:59 1:59:44   Paradise
 2443 373   Beverley Preston       2:02:36 LF45-49  161/206   1315 12:05 2:00:48   St. John's
 2444 612   Sharon Smith           2:02:43 LF55-59   54/96    1316 12:04 2:00:35   St. John's
 2445 1207  Paula Flood            2:02:55 LF55-59   55/96    1317 12:05 2:00:46   Whitbourne
 2446 751   Susan Perry            2:03:02 LF55-59   56/96    1318 12:05 2:00:43   St. John's
 2447 1171  Stephanie Lewis        2:03:10 LF25-29  184/222   1319 12:09 2:01:24   St. John's
 2448 2435  Anne Conway            2:03:10 LF55-59   57/96    1320 12:01 2:00:05   Conception Harb
 2449 675   Marion Alcock          2:03:21 LF60-64   22/56    1321 12:14 2:02:15   Holyrood
 2450 2727  David Touchings        2:03:26 LM55-59  108/117   1129 12:08 2:01:19   Paradise
 2451 279   Tracy Duffy            2:03:28 LF40-44  195/227   1322 12:04 2:00:37   torbay
 2452 1822  Keith Soper            2:03:34 LM50-54  135/145   1130 12:02 2:00:19   St. John's
 2453 2174  Regina Vivian          2:03:40 LF45-49  162/206   1323 12:05 2:00:50   St. John's
 2454 252   Karen Harbin           2:03:43 LF35-39  226/268   1324 12:09 2:01:21   Paradise
 2455 257   Carla Riggs            2:03:49 LF35-39  227/268   1325 12:09 2:01:28   PARADISE
 2456 2973  Wendy Walsh            2:03:59 LF30-34  218/248   1326 12:07 2:01:07   Mount Pearl
 2457 237   Elizabeth Walsh        2:04:07 LF55-59   58/96    1327 12:11 2:01:43   st. John's
 2458 703   Nicole Stead           2:04:12 LF25-29  185/222   1328 12:09 2:01:29   Conception Bay
 2459 715   Jessica Oldford        2:04:12 LF20-24  104/119   1329 12:09 2:01:29   Conception Bay
 2460 1783  Margaret Murphy        2:04:12 LF45-49  163/206   1330 12:07 2:01:08   Marysvale
 2461 1192  Kelsie Rogers          2:04:19 LF20-24  105/119   1331 12:11 2:01:50   St. John's
 2462 1193  Catherine Rogers       2:04:21 LF-19     36/42    1332 12:12 2:01:51   St. John's
 2463 2653  Lynn Harris            2:04:23 LF55-59   59/96    1333 12:14 2:02:11   Mount Pearl
 2464 192   Maria Kehoe            2:04:39 LF25-29  186/222   1334 12:09 2:01:21   Paradise
 2465 1346  Diane Hefford          2:04:44 LF35-39  228/268   1335 12:10 2:01:38   Heart's Delight
 2466 523   Jeanette Coombes       2:04:48 LF55-59   60/96    1336 12:10 2:01:31   St. Johns
 2467 1942  Jennifer Ryan          2:04:55 LF35-39  229/268   1337 12:14 2:02:18   St. John's
 2468 552   Nolan White            2:04:57 LM50-54  136/145   1131 12:13 2:02:03   St. John's
 2469 598   Barbara Cox            2:04:58 LF55-59   61/96    1338 12:13 2:02:05   St. John's
 2470 2324  Susan Johnson          2:05:12 LF30-34  219/248   1339 12:15 2:02:23   Toronto
 2471 415   Harold Stoeterau       2:05:14 LM55-59  109/117   1132 12:13 2:02:09   St John's
 2472 2292  Lori Ann Barron        2:05:26 LF40-44  196/227   1340 12:16 2:02:36   Paradise
 2473 1751  Sherry Seaman          2:05:30 LF30-34  220/248   1341 12:18 2:02:59   CBS
 2474 606   Corrine Crawley        2:05:30 LF35-39  230/268   1342 12:18 2:03:00   CONCEPTION BAY
 2475 366   Brandy Ralph           2:05:30 LF20-24  106/119   1343 12:18 2:02:53   Conception Bay
 2476 2910  Alverna Kenny          2:05:32 LF50-54  117/171   1344 12:20 2:03:19   Mount Pearl
 2477 1116  Katrina Lear           2:05:34 LF25-29  187/222   1345 12:20 2:03:18   Seal Cove CBS
 2478 1020  Natasha Butler         2:05:34 LF25-29  188/222   1346 12:20 2:03:18   Conception Bay
 2479 2865  Benedict Barron        2:05:36 LM65-69   21/30    1133 12:16 2:02:38   Whitbourne
 2480 1488  Malcom McGregor        2:05:43 LM70-74    8/13    1134 12:18 2:02:51   St. John's
 2481 1875  Jackie McCann-Scott    2:05:50 LF35-39  231/268   1347 12:19 2:03:02   CBS
 2482 1445  Nora O'Brien           2:05:57 LF50-54  118/171   1348 12:20 2:03:19   Mount Pearl
 2483 259   Melanie Follett        2:05:59 LF20-24  107/119   1349 12:16 2:02:38   St. John's
 2484 2598  Nikita Burton          2:06:03 LF25-29  189/222   1350 12:26 2:04:17   Paradise
 2485 1331  Jennifer Taylor        2:06:10 LF35-39  232/268   1351 12:20 2:03:12   Pasadena
 2486 837   Lisa Sheppard          2:06:12 LF30-34  221/248   1352 12:26 2:04:18   Paradise
 2487 344   Nicole Peddle          2:06:14 LF25-29  190/222   1353 12:24 2:03:57   st. john's
 2488 379   Andrea Kelloway        2:06:14 LF30-34  222/248   1354 12:24 2:03:57   CBS
 2489 2457  Gary Whalen            2:06:14 LM55-59  110/117   1135 12:20 2:03:13   Mt. Pearl
 2490 140   Amy Mallard            2:06:17 LF25-29  191/222   1355 12:17 2:02:48   Ft mcmurray
 2491 655   Dorothy Pasch          2:06:21 LF65-69    5/11    1356 12:20 2:03:14   Chapel's Cove
 2492 1191  Tiffany Palmer         2:06:22 LF20-24  108/119   1357 12:25 2:04:09   Paradise
 2493 2423  Marilyn Dewling        2:06:27 LF55-59   62/96    1358 12:25 2:04:09   Mount Pearl
 2494 2222  Anita Abbott           2:06:40 LF30-34  223/248   1359 12:26 2:04:16   Conception Bay
 2495 3004  Tina Hayes             2:06:45 LF45-49  164/206   1360 12:26 2:04:16   CBS
 2496 1953  Todd Chancey           2:06:51 LM40-44  129/134   1136 12:30 2:04:53   Portugal Cove
 2497 739   Ashley Miles           2:06:55 LF25-29  192/222   1361 12:30 2:04:55   St.John's
 2498 829   Patti-Lynn Butler      2:06:59 LF25-29  193/222   1362 12:35 2:05:43   Paradise
 2499 439   Herb Hoskins           2:07:00 LM55-59  111/117   1137 12:25 2:04:06   Paradise
 2500 2835  Cathy Ryan             2:07:07 LF60-64   23/56    1363 12:25 2:04:06   St.John's
 2501 534   Tara Kennedy           2:07:08 LF30-34  224/248   1364 12:26 2:04:16   Mount Pearl
 2502 2752  Michelle Bourgeois-Pye 2:07:08 LF40-44  197/227   1365 12:26 2:04:16   Mount Pearl
 2503 399   Sharon Power           2:07:10 LF45-49  165/206   1366 12:23 2:03:48   St. John's
 2504 1750  Sara Grant             2:07:12 LF25-29  194/222   1367 12:32 2:05:14   St John's
 2505 2911  Brenda Lewis           2:07:15 LF45-49  166/206   1368 12:27 2:04:25   St. John's
 2506 756   Edward Cahill          2:07:17 LM50-54  137/145   1138 12:23 2:03:49   St. John's
 2507 2658  Courtney Prince        2:07:19 LF25-29  195/222   1369 12:32 2:05:15   St. John's
 2508 1102  Karla Metcalfe         2:07:31 LF35-39  233/268   1370 12:33 2:05:28   Conception Bay
 2509 2288  Laura Delahunty        2:07:40 LF25-29  196/222   1371 12:34 2:05:31   St. John's
 2510 2252  Hyma Naidu             2:07:44 LF60-64   24/56    1372 12:29 2:04:44   St. John's
 2511 1507  Keith Harding          2:07:46 LM45-49  133/136   1139 12:30 2:04:53   Mount Pearl
 2512 1506  Brenda Harding         2:07:46 LF45-49  167/206   1373 12:30 2:04:53   Mount Pearl
 2513 206   Karyn Norman           2:07:47 LF30-34  225/248   1374 12:33 2:05:30   Churchill Falls
 2514 2167  Tina Olivero           2:07:47 LF45-49  168/206   1375 12:31 2:05:05   Blaketown
 2515 682   Louisa Budgell         2:07:51 LF50-54  119/171   1376 12:38 2:06:15   Mount Pearl
 2516 283   Steve Morrisey         2:07:53 LM40-44  130/134   1140 12:35 2:05:43   St.John
 2517 785   Dallas Whittle         2:07:55 LF50-54  120/171   1377 12:34 2:05:36   C.B.S.
 2518 1710  Jess Whittle           2:07:55 LF25-29  197/222   1378 12:34 2:05:36   Conception Bay
 2519 2615  Teresita Richardson    2:08:02 LF55-59   63/96    1379 12:29 2:04:44   paradise
 2520 138   Sharon Moulton         2:08:07 LF30-34  226/248   1380 12:28 2:04:39   Paradise
 2521 76    Sheena Bailey          2:08:20 LF40-44  198/227   1381 12:31 2:05:09   Norman Wells
 2522 1585  Diane Wall             2:08:20 LF50-54  121/171   1382 12:31 2:05:07   Holyrood
 2523 951   Sharon Hall            2:08:21 LF35-39  234/268   1383 12:34 2:05:31   Portugal Cove S
 2524 658   Amanda Whitten         2:08:22 LF20-24  109/119   1384 12:30 2:04:54   Mount Pearl
 2525 800   Diane Reid             2:08:23 LF55-59   64/96    1385 12:33 2:05:21   Paradise
 2526 530   Charlene Chubbs        2:08:26 LF30-34  227/248   1386 12:31 2:05:06   Petawawa
 2527 1053  Peggy O'Brien          2:08:30 LF60-64   25/56    1387 12:32 2:05:16   Holyrood
 2528 2295  Eddi Kenny Boyd        2:08:34 LF45-49  169/206   1388 12:39 2:06:22   Portugal Cove
 2529 2260  Judy Power             2:08:40 LF55-59   65/96    1389 12:39 2:06:29   St. John's
 2530 1797  Melissa Moulton        2:08:41 LF25-29  198/222   1390 12:33 2:05:28   St. John's
 2531 1695  Jennifer Dawe          2:08:41 LF35-39  235/268   1391 12:36 2:05:56   Mount Pearl
 2532 195   Sharon Dickie          2:08:42 LF50-54  122/171   1392 12:35 2:05:49   Upper Stewiacke
 2533 196   Kim Geddes             2:08:42 LF40-44  199/227   1393 12:35 2:05:49   Upper Stewiacke
 2534 364   Jennifer Lush          2:08:44 LF25-29  199/222   1394 12:38 2:06:18   Toronto
 2535 178   Carmen Smith           2:08:45 LF35-39  236/268   1395 12:38 2:06:18   MOUNT ALBERT
 2536 764   Tammy Butler           2:08:46 LF35-39  237/268   1396 12:33 2:05:23   Cupids
 2537 41    Barbara Skelly         2:08:47 LF45-49  170/206   1397 12:39 2:06:26   St. John's
 2538 24    Rubyann Benson         2:08:49 LF45-49  171/206   1398 12:31 2:05:10   St. John's
 2539 2205  Priscilla Siu          2:08:54 LF20-24  110/119   1399 12:33 2:05:30   St. John's
 2540 1224  Mary Kavanagh          2:09:00 LF40-44  200/227   1400 12:37 2:06:07   St. John's
 2541 101   Jessica Huber          2:09:02 LF25-29  200/222   1401 12:38 2:06:16   St. John
 2542 444   Elizabeth Best         2:09:05 LF50-54  123/171   1402 12:34 2:05:39   Mount Pearl
 2543 2419  Joyce Gosse            2:09:10 LF60-64   26/56    1403 12:38 2:06:19   St. John;s
 2544 372   Heather Pittman        2:09:13 LF35-39  238/268   1404 12:40 2:06:33   Western Bay
 2545 1865  Sherry Lythgoe         2:09:20 LF25-29  201/222   1405 12:44 2:07:14   Mt.Pearl
 2546 2760  Tanya Malone           2:09:22 LF35-39  239/268   1406 12:39 2:06:22   Mount Pearl
 2547 2589  Anne Williams          2:09:26 LF50-54  124/171   1407 12:39 2:06:26   St. John's
 2548 274   Dedra Hickman          2:09:29 LF45-49  172/206   1408 12:40 2:06:36   St. John's
 2549 1516  Sylvia Eason           2:09:31 LF50-54  125/171   1409 12:42 2:06:53   St. john's
 2550 1773  Daphne Noel            2:09:33 LF50-54  126/171   1410 12:40 2:06:34   St. John's
 2551 2328  Helen Ottenheimer      2:09:36 LF45-49  173/206   1411 12:39 2:06:30   St. John's
 2552 267   Melanie Stringer       2:09:37 LF35-39  240/268   1412 12:39 2:06:30   Conception Bay
 2553 1851  Fanny Hoddinott        2:09:37 LF45-49  174/206   1413 12:42 2:06:53   St. John's
 2554 686   Marian Crowley         2:09:43 LF55-59   66/96    1414 12:49 2:08:01   Torbay
 2555 331   Melanie Foley          2:09:47 LF25-29  202/222   1415 12:43 2:07:09   Paradise
 2556 2500  Jacquelyn Dalley       2:09:48 LF50-54  127/171   1416 12:39 2:06:29   Gander
 2557 2502  Gerri Elliott          2:09:49 LF55-59   67/96    1417 12:39 2:06:30   Gander
 2558 1467  Michael Boyle          2:09:57 LM65-69   22/30    1141 12:44 2:07:17   Mount Pearl
 2559 660   Jerry Whitten          2:10:00 LM50-54  138/145   1142 12:40 2:06:32   Mount Pearl
 2560 1272  Jennifer Purcell       2:10:02 LF25-29  203/222   1418 12:50 2:08:19   Kilbride
 2561 1649  Debbie Hussey          2:10:02 LF45-49  175/206   1419 12:54 2:08:54   PARADISE
 2562 768   Elaine Anton           2:10:11 LF40-44  201/227   1420 12:48 2:07:55   St. John's
 2563 319   Ellen Walsh            2:10:38 LF-19     37/42    1421 12:45 2:07:27   Torbay
 2564 320   Jocelyn Watson         2:10:38 LF50-54  128/171   1422 12:45 2:07:27   St. John's
 2565 340   Cindy Pike             2:10:40 LF50-54  129/171   1423 12:48 2:07:51   Conception Bay
 2566 2624  Susanne Dohey          2:10:41 LF30-34  228/248   1424 12:45 2:07:30   St. John's
 2567 107   Lisa Woodrow           2:10:46 LF20-24  111/119   1425 12:50 2:08:13   St. John's
 2568 2861  Sonya Sansome          2:10:50 LF35-39  241/268   1426 12:56 2:09:19   St. John's
 2569 2042  Connie Fry             2:10:51 LF45-49  176/206   1427 12:46 2:07:33   Paradise
 2570 1325  Phyllis Dawe           2:10:56 LF55-59   68/96    1428 12:50 2:08:18   C.B.S.
 2571 293   Mike O'Dea             2:11:07 LM45-49  134/136   1143 12:58 2:09:34   St. John's
 2572 2906  Joan Brett             2:11:11 LF60-64   27/56    1429 12:56 2:09:15   St. John's
 2573 510   Ian Pumphrey           2:11:12 LM-19     49/50    1144 12:50 2:08:17   St. John's
 2574 2300  Jane Ryan              2:11:14 LF50-54  130/171   1430 13:00 2:10:00   Portugal Cove
 2575 2946  Dawn Follett           2:11:28 LF30-34  229/248   1431 12:55 2:09:05   St. John's
 2576 2425  Tonya Warren           2:11:28 LF35-39  242/268   1432 12:55 2:09:05   Flatrock
 2577 3022  Brian Lynch            2:11:50 LM60-64   61/68    1145 13:02 2:10:20   St. John's
 2578 509   Mary Pumphrey          2:11:55 LF45-49  177/206   1433 12:55 2:09:01   St. John's
 2579 1839  Rosalie Healey         2:12:02 LF45-49  178/206   1434 13:04 2:10:40   Holyrood
 2580 1138  Jim Pender             2:12:05 LM50-54  139/145   1146 12:52 2:08:35   St.Phillips
 2581 1139  Barbara Pender         2:12:05 LF50-54  131/171   1435 12:52 2:08:34   St.Phillips
 2582 587   Frances Kavanagh       2:12:14 LF50-54  132/171   1436 12:55 2:09:07   St. John's
 2583 1511  Eunice Power           2:12:14 LF55-59   69/96    1437 12:55 2:09:08   Logy Bay
 2584 124   Christine Blagdon      2:12:20 LF45-49  179/206   1438 12:58 2:09:37   Bloomfield
 2585 123   Christy Romaine        2:12:20 LF25-29  204/222   1439 12:58 2:09:37   Musgravetown
 2586 190   Erika Hatcher          2:12:46 LF-19     38/42    1440 12:55 2:09:07   Concetion Bay S
 2587 1565  Nicholas Donovan       2:12:48 LM60-64   62/68    1147 13:06 2:10:56   Clarenville
 2588 1451  Karen Furey            2:13:00 LF60-64   28/56    1441 13:02 2:10:17   st johns
 2589 646   Kerri Mitchell         2:13:05 LF25-29  205/222   1442 13:01 2:10:08   Portugal Cove
 2590 1309  Tammy Manor            2:13:27 LF30-34  230/248   1443 13:03 2:10:24   Torbay
 2591 3061  Anne Marie Downey      2:13:41 LF50-54  133/171   1444 13:12 2:11:54   Edmonton
 2592 38    Marie McGrath          2:13:48 LF35-39  243/268   1445 13:07 2:11:09   Torbay
 2593 2795  Joan Francis           2:13:50 LF55-59   70/96    1446 13:05 2:10:49   St. John's
 2594 2005  Shirley Warren         2:14:03 LF60-64   29/56    1447 13:06 2:10:55   Grand Falls Win
 2595 1239  Amy Tuck               2:14:11 LF25-29  206/222   1448 13:07 2:11:04   St. John's
 2596 2903  Susan George           2:14:13 LF40-44  202/227   1449 13:06 2:10:54   Whitebourne
 2597 2680  Stephanie Robere       2:14:14 LF20-24  112/119   1450 13:06 2:10:58   St. John's
 2598 2366  Heather Shute          2:14:20 LF35-39  244/268   1451 13:10 2:11:40   st. john's
 2599 391   Maxwell Mercer         2:14:39 LM60-64   63/68    1148 13:08 2:11:12   South River
 2600 2733  Peter Mercer           2:14:39 LM30-34  130/131   1149 13:08 2:11:12   Paradise
 2601 2488  Lori-Lynn Critch       2:14:43 LF35-39  245/268   1452 13:11 2:11:48   st. john's
 2602 744   Ruby Constantine       2:14:43 LF55-59   71/96    1453 13:19 2:13:01   St. John's
 2603 2993  Lester Marshall        2:14:44 LM55-59  112/117   1150 13:11 2:11:44   St. John's
 2604 915   Nicole Kielly          2:14:45 LF25-29  207/222   1454 13:14 2:12:12   Paradise
 2605 1763  Ruby Martin            2:14:51 LF50-54  134/171   1455 13:15 2:12:23   Mount Pearl
 2606 1590  Jeanine Scott          2:15:07 LF30-34  231/248   1456 13:16 2:12:37   C.B.S.
 2607 16    Katrina Cadigan        2:15:08 LF45-49  180/206   1457 13:16 2:12:35   Mt. Pearl
 2608 63    Kristin Chislett       2:15:09 LF25-29  208/222   1458 13:14 2:12:19   Grande Prairie
 2609 1058  Donna Moulton-Brushett 2:15:16 LF30-34  232/248   1459 13:13 2:12:03   Burin
 2610 1120  Charlene Kennedy       2:15:17 LF25-29  209/222   1460 13:13 2:12:04   fredericton
 2611 2306  Cabot Martin           2:15:21 LM65-69   23/30    1151 13:13 2:12:04   St John's
 2612 541   Carolyn Walsh          2:15:28 LF25-29  210/222   1461 13:19 2:13:07   CBS
 2613 1971  Joselyn Grant          2:15:32 LF55-59   72/96    1462 13:18 2:12:57   St. John's
 2614 3018  Arlene Butler          2:15:33 LF45-49  181/206   1463 13:18 2:12:52   Conception Bay
 2615 1983  Galdys Barrington      2:15:33 LF55-59   73/96    1464 13:18 2:12:57   Mt. Pearl
 2616 197   Theresa Hayward        2:15:33 LF50-54  135/171   1465 13:16 2:12:37   Conception Bay
 2617 671   Mary Hamilton          2:15:33 LF50-54  136/171   1466 13:16 2:12:37   Mount Pearl
 2618 2717  Lucy Stoyles           2:15:42 LF55-59   74/96    1467 13:28 2:14:38   Mount Pearl
 2619 207   Michael Harkaway       2:15:44 LM55-59  113/117   1152 13:14 2:12:19   Gander
 2620 2675  Carol Etheridge        2:15:48 LF55-59   75/96    1468 13:24 2:14:00   Mount Pearl
 2621 2677  Garry Etheridge        2:15:48 LM55-59  114/117   1153 13:24 2:14:00   Mount Pearl
 2622 2916  Cindy Picco            2:16:09 LF40-44  203/227   1469 13:18 2:12:57   Burin Bay Arm
 2623 317   Renee Appleby          2:16:10 LF25-29  211/222   1470 13:18 2:12:57   Burin Bay Arm
 2624 888   Trudy Pardy            2:16:17 LF30-34  233/248   1471 13:24 2:13:55   Torbay
 2625 2183  Michelle Carew         2:16:31 LF40-44  204/227   1472 13:20 2:13:20   St.John's
 2626 812   Jacqueline Nugent      2:16:39 LF30-34  234/248   1473 13:22 2:13:36   conception bay
 2627 2724  Marlene Mallett        2:16:43 LF55-59   76/96    1474 13:20 2:13:21   CBS
 2628 493   Paul Neary             2:16:47 LM45-49  135/136   1154 13:20 2:13:14   St. John's
 2629 1925  Nicolize Marais        2:16:49 LF20-24  113/119   1475 13:24 2:13:53   St. John's
 2630 2443  Crystal Hickey         2:16:53 LF35-39  246/268   1476 13:24 2:13:59   Mt. Pearl
 2631 2600  Rita Dawson            2:16:55 LF45-49  182/206   1477 13:23 2:13:45   Paradise
 2632 1921  Susan Peddle           2:16:57 LF50-54  137/171   1478 13:25 2:14:02   Carbonear
 2633 1528  Karin Berman           2:16:57 LF55-59   77/96    1479 13:25 2:14:02   Conception Bay
 2634 2746  Eileen Collingwood     2:17:00 LF50-54  138/171   1480 13:38 2:16:17   St. John's
 2635 2776  Len Barry              2:17:10 LM35-39  186/189   1155 13:25 2:14:01   St. John's
 2636 1619  Elizabeth Brockerville 2:17:10 LF50-54  139/171   1481 13:24 2:13:55   Marystown
 2637 2442  Lisa Baker Worthman    2:17:18 LF35-39  247/268   1482 13:27 2:14:24   St. John's
 2638 486   Dawn Brushett          2:17:44 LF50-54  140/171   1483 13:27 2:14:30   Burin Bay Arm
 2639 2226  Dale Andrews-Keats     2:17:45 LF50-54  141/171   1484 13:26 2:14:17   CBS
 2640 2390  Haakon Webber-Winsor   2:17:51 LM20-24   69/71    1156 13:29 2:14:47   St. John's
 2641 1280  Nicole Shuglo          2:17:52 LF35-39  248/268   1485 13:31 2:15:08   St. John's
 2642 2980  Lesley Doody           2:18:04 LF25-29  212/222   1486 13:32 2:15:19   St. John's
 2643 2321  Shawnte Chafe          2:18:11 LF25-29  213/222   1487 13:29 2:14:45   St.John's
 2644 2318  Valerie Chafe          2:18:11 LF50-54  142/171   1488 13:29 2:14:45   St.John's
 2645 2201  Gerald Duggan          2:18:15 LM65-69   24/30    1157 13:32 2:15:16   Goulds
 2646 1874  Terry Stack            2:18:15 LM65-69   25/30    1158 13:32 2:15:17   St. John's
 2647 2565  Pansy Kennedy          2:18:31 LF55-59   78/96    1489 13:42 2:16:52   CBS
 2648 3046  Jennifer Elliott       2:18:36 LF30-34  235/248   1490 13:32 2:15:12   St. John's
 2649 2278  Erin Phelan            2:18:43 LF-19     39/42    1491 13:36 2:16:00   St. John's
 2650 2277  Sean Phelan            2:18:44 LM40-44  131/134   1159 13:37 2:16:02   St. John's
 2651 180   Tammy Frye             2:18:49 LF35-39  249/268   1492 13:33 2:15:30   Ottawa
 2652 614   Shannon Ring           2:19:02 LF35-39  250/268   1493 13:37 2:16:06   St.John's
 2653 2016  Marilyn Cameron        2:19:04 LF60-64   30/56    1494 13:37 2:16:01   Mount Pearl
 2654 1911  Patricia Cronin        2:19:05 LF35-39  251/268   1495 13:38 2:16:19   St John's
 2655 515   Elaine Bursey          2:19:06 LF45-49  183/206   1496 13:40 2:16:32   Lewisporte
 2656 727   Linda Stuckey          2:19:06 LF40-44  205/227   1497 13:40 2:16:32   Lewisporte
 2657 2617  Amanda Dawe            2:19:18 LF35-39  252/268   1498 13:39 2:16:30   St. John's
 2658 1861  Jessica Alcock         2:19:18 LF-19     40/42    1499 13:40 2:16:38   St. John's
 2659 1834  Lynda Hayward          2:19:18 LF60-64   31/56    1500 13:40 2:16:39   St. John's
 2660 2688  Bob Squires            2:19:21 LM65-69   26/30    1160 13:39 2:16:26   St. John's
 2661 2689  Mary Squires           2:19:22 LF65-69    6/11    1501 13:39 2:16:26   St. John's
 2662 602   Virginia Jones         2:19:24 LF35-39  253/268   1502 13:37 2:16:05   Toronto
 2663 749   Nancy March            2:19:24 LF35-39  254/268   1503 13:37 2:16:05   Whitbourne
 2664 2715  Michelle Jones         2:19:31 LF40-44  206/227   1504 13:45 2:17:28   Portugal Cove-s
 2665 3041  Denise Hooper          2:19:33 LF40-44  207/227   1505 13:39 2:16:21   St. John's
 2666 2753  Sandra Brennan         2:19:33 LF30-34  236/248   1506 13:39 2:16:21   St. John's
 2667 982   Carolann Rowe-Langdon  2:19:48 LF50-54  143/171   1507 13:39 2:16:28   Grand Falls-Win
 2668 855   Roberta Ferguson       2:19:48 LF50-54  144/171   1508 13:43 2:17:03   Paradise
 2669 1952  Coleen Kelly           2:20:08 LF45-49  184/206   1509 13:45 2:17:23   St. John's
 2670 514   Christina Ozon         2:20:16 LF35-39  255/268   1510 13:43 2:17:09   St. John's
 2671 1047  Maggee Dawson          2:20:36 LF20-24  114/119   1511 13:46 2:17:39   Holyrood
 2672 976   Jessica Roche          2:20:36 LF20-24  115/119   1512 13:46 2:17:40   Holyrood
 2673 737   Shirley Barnes         2:20:42 LF55-59   79/96    1513 13:46 2:17:35   St. John's
 2674 654   Peggy Smith            2:20:44 LF45-49  185/206   1514 13:45 2:17:24   Foxtrap
 2675 651   Corinne Druggett       2:20:44 LF40-44  208/227   1515 13:45 2:17:23   Foxtrap
 2676 2571  Donna Osborne          2:20:46 LF55-59   80/96    1516 13:48 2:17:56   Mount Pearl
 2677 326   Carolynn Spurvey       2:20:48 LF30-34  237/248   1517 13:47 2:17:46   St. John's
 2678 1749  Anne Marie Duff-Hutton 2:21:09 LF40-44  209/227   1518 13:46 2:17:40   St. Phillips-Po
 2679 1747  Roslyn Sullivan        2:21:09 LF50-54  145/171   1519 13:47 2:17:41   Torbay
 2680 2881  Michelle Snow          2:21:11 LF45-49  186/206   1520 13:50 2:18:11   Paradise
 2681 2882  Bonni Mitchell         2:21:11 LF40-44  210/227   1521 13:50 2:18:11   St. John's
 2682 1521  Tina Bursey            2:21:28 LF35-39  256/268   1522 13:57 2:19:21   St.John's
 2683 1723  Joy Stuckless          2:21:47 LF50-54  146/171   1523 13:53 2:18:44   Paradise
 2684 1663  Lorraine Penney        2:21:47 LF55-59   81/96    1524 13:53 2:18:44   Paradise
 2685 1967  Ingrid Evans           2:21:53 LF40-44  211/227   1525 13:54 2:18:54   St. John's
 2686 1640  Edward Spurrell        2:21:58 LM20-24   70/71    1161 14:06 2:20:51   St. John's
 2687 1452  George Furey           2:22:23 LM60-64   64/68    1162 13:58 2:19:38   St John's
 2688 2378  Jennifer Neville       2:22:37 LF30-34  238/248   1526 14:03 2:20:27   Mt. Pearl
 2689 2117  Denise Hapgood         2:22:42 LF40-44  212/227   1527 13:58 2:19:40   conception bay
 2690 2142  Jackie Gaudet          2:22:43 LF45-49  187/206   1528 13:58 2:19:39   Conception Bay
 2691 1975  Dave Hearn             2:22:58 LM35-39  187/189   1163 14:00 2:19:57   St. John's
 2692 212   Lisa Kehoe             2:22:59 LF25-29  214/222   1529 13:58 2:19:39   Paradise
 2693 3001  Carol Anne Barton      2:23:07 LF60-64   32/56    1530 13:59 2:19:50   Goulds
 2694 1514  Laurie Ricketts        2:23:13 LF35-39  257/268   1531 14:07 2:21:06   Torbay
 2695 925   Becky Gosse            2:23:18 LF20-24  116/119   1532 14:05 2:20:43   St. John's
 2696 924   Sarah Byrne            2:23:18 LF25-29  215/222   1533 14:05 2:20:42   Mount Pearl
 2697 758   Marie-Ann Hudson       2:23:21 LF40-44  213/227   1534 14:02 2:20:14   St. John's
 2698 760   Maxine Mercer          2:23:21 LF60-64   33/56    1535 14:02 2:20:14   St. John's
 2699 2839  Rosemarie Croft        2:23:30 LF55-59   82/96    1536 14:02 2:20:12   Goulds
 2700 753   Tina Kean              2:23:37 LF35-39  258/268   1537 14:03 2:20:30   Torbay
 2701 824   Colleen Warford        2:23:44 LF40-44  214/227   1538 14:05 2:20:41   St. John's
 2702 856   William Maher          2:23:44 LM65-69   27/30    1164 14:05 2:20:42   St. John's
 2703 2239  Gregory Strong         2:23:46 LM30-34  131/131   1165 14:03 2:20:27   Conception Bay
 2704 818   Denise Eddy            2:23:46 LF30-34  239/248   1539 14:03 2:20:27   Conception Bay
 2705 2977  Ann Marie Kenny        2:23:52 LF45-49  188/206   1540 14:03 2:20:29   Mount Pearl
 2706 2978  Christa Norman         2:23:53 LF35-39  259/268   1541 14:03 2:20:28   St. John's
 2707 378   Bud Hiscock            2:23:58 LM70-74    9/13    1166 14:06 2:20:55   Corner Brook
 2708 371   Krista Vincent         2:23:58 LF35-39  260/268   1542 14:04 2:20:31   St. John's
 2709 106   Neil Barbour           2:24:11 LM20-24   71/71    1167 14:09 2:21:25   St. John's
 2710 1259  Herman Walters         2:24:18 LM65-69   28/30    1168 14:07 2:21:04   Carbonear
 2711 1638  Karen McGrath          2:24:26 LF55-59   83/96    1543 14:10 2:21:35   Torbay
 2712 1731  Alice Carter           2:24:29 LF55-59   84/96    1544 14:08 2:21:12   Conception Bay
 2713 1995  Carolyn Bennett        2:24:29 LF50-54  147/171   1545 14:08 2:21:13   Paradise
 2714 377   Rhonda Herder          2:25:03 LF40-44  215/227   1546 14:10 2:21:36   St. John's
 2715 2535  Shirley Facey          2:25:07 LF60-64   34/56    1547 14:15 2:22:30   St. John's
 2716 2116  Johanna Foley          2:25:13 LF50-54  148/171   1548 14:14 2:22:17   CBS
 2717 2353  Melanie Cranford       2:25:15 LF40-44  216/227   1549 14:20 2:23:19   Mount Pearl
 2718 2871  Judy Squires           2:25:37 LF45-49  189/206   1550 14:16 2:22:36   CBS
 2719 696   Mary Johnson           2:25:39 LF60-64   35/56    1551 14:16 2:22:39   Little Catalina
 2720 2151  Josephine Carey        2:25:48 LF20-24  117/119   1552 14:18 2:22:52   Witless Bay
 2721 1090  Bernice Bennett        2:25:49 LF45-49  190/206   1553 14:24 2:23:57   placentia
 2722 1324  Angela Burden          2:25:53 LF60-64   36/56    1554 14:15 2:22:27   Mount Pearl
 2723 1602  Anita Conohan          2:25:54 LF60-64   37/56    1555 14:18 2:22:53   bedford
 2724 1607  John Conohan           2:25:55 LM60-64   65/68    1169 14:18 2:22:53   Bedford
 2725 2739  Maralin Locke          2:25:56 LF60-64   38/56    1556 14:18 2:22:55   Conception Bay
 2726 722   Herb Burton            2:26:04 LM80+      1/2     1170 14:16 2:22:35   CBS
 2727 1674  Yolanda Hayes          2:26:19 LF30-34  240/248   1557 14:20 2:23:15   Torbay
 2728 2047  Jessica McLachlan      2:26:19 LF30-34  241/248   1558 14:20 2:23:14   St. John's
 2729 238   Heather Wells          2:26:50 LF35-39  261/268   1559 14:27 2:24:27   Toronto
 2730 664   Jeanette Walsh         2:26:51 LF65-69    7/11    1560 14:27 2:24:27   St. John's
 2731 2449  Jabez Norman           2:27:03 LM70-74   10/13    1171 14:41 2:26:43   BONAVISTA
 2732 65    Jennifer Ryan          2:27:03 LF25-29  216/222   1561 14:25 2:24:02   St. John's
 2733 2737  Ollie Doyle            2:27:09 LF60-64   39/56    1562 14:25 2:24:08   Conception Bay
 2734 2289  Nicole Brophy          2:27:20 LF30-34  242/248   1563 14:44 2:27:20   Mount Pearl
 2735 2290  Blair Mayo             2:27:20 LM40-44  132/134   1172 14:27 2:24:26   Mount Pearl
 2736 1302  Kristen Ditsch         2:27:29 LF30-34  243/248   1564 14:31 2:25:03   Newmarket
 2737 2311  Kay Tobin              2:27:44 LF50-54  149/171   1565 14:27 2:24:27   Goulds
 2738 2228  Sandi Miller           2:27:44 LF35-39  262/268   1566 14:27 2:24:28   Portugal Cove
 2739 2310  Janet St. Croix-Nolan  2:27:45 LF45-49  191/206   1567 14:27 2:24:28   Goulds
 2740 2092  Barbara O'Rielly       2:27:47 LF50-54  150/171   1568 14:32 2:25:16   Witless Bay
 2741 757   Jennifer Whitty        2:28:13 LF35-39  263/268   1569 14:33 2:25:22   Torbay
 2742 412   Allison Rideout        2:28:17 LF30-34  244/248   1570 14:32 2:25:12   Bedford
 2743 410   Ursula Rideout         2:28:17 LF60-64   40/56    1571 14:32 2:25:14   Bedford
 2744 1991  Maggie Davies          2:28:43 LF60-64   41/56    1572 14:33 2:25:29   Outer Cove
 2745 1261  Wayne Dillon           2:28:44 LM55-59  115/117   1173 14:39 2:26:26   St. John's
 2746 1112  Judith McIntyre        2:28:58 LF60-64   42/56    1573 14:36 2:25:54   St. John's
 2747 1091  Sandra Odea            2:28:58 LF50-54  151/171   1574 14:36 2:25:55   Mount Pearl
 2748 754   Kelly Roche            2:29:13 LF35-39  264/268   1575 14:35 2:25:50   St. John's
 2749 2481  Shirley Roche          2:29:14 LF55-59   85/96    1576 14:35 2:25:50   Torbay
 2750 2897  Tracy Shute            2:29:16 LF35-39  265/268   1577 14:36 2:25:58   Harbour Grace
 2751 200   Deidre Carter-Poppen   2:29:29 LF40-44  217/227   1578 14:36 2:25:58   Red Deer
 2752 219   Ron Carter             2:29:29 LM65-69   29/30    1174 14:36 2:25:57   St. John's
 2753 3053  Marilyn Woodfine       2:29:38 LF65-69    8/11    1579 14:39 2:26:29   St. John's
 2754 525   Caroline Clarke        2:29:41 LF40-44  218/227   1580 14:38 2:26:17   St. John
 2755 488   Tanya Morgan           2:29:41 LF35-39  266/268   1581 14:38 2:26:17   St. John's
 2756 1486  Louise Tobin           2:29:47 LF50-54  152/171   1582 14:39 2:26:30   St. John's
 2757 1084  Elaine Nofall          2:29:51 LF60-64   43/56    1583 14:42 2:26:59   St.John's
 2758 1077  Pat Evans              2:29:52 LF55-59   86/96    1584 14:42 2:26:59   St. Philips
 2759 797   Bridget Byrne          2:29:55 LF60-64   44/56    1585 14:41 2:26:49   OUTER COVE
 2760 775   Donna Ronan            2:29:55 LF55-59   87/96    1586 14:41 2:26:47   Mt. Pearl
 2761 772   Janice Burke           2:29:55 LF45-49  192/206   1587 14:41 2:26:48   goulds
 2762 798   Hazel Russell          2:29:55 LF40-44  219/227   1588 14:41 2:26:48   MOUNT PEARL
 2763 656   Isabel McCall          2:29:56 LF60-64   45/56    1589 14:42 2:27:00   St. John's
 2764 665   Karen Warford          2:29:56 LF50-54  153/171   1590 14:42 2:26:59   CBS
 2765 398   Cathy Best             2:30:07 LF55-59   88/96    1591 14:41 2:26:50   St. John's
 2766 2227  Ron Sansome            2:30:14 LM45-49  136/136   1175 14:45 2:27:21   Mt.Pearl
 2767 1836  Karen Brake            2:30:44 LF40-44  220/227   1592 14:49 2:28:05   Mount Pearl
 2768 710   Scott Andrews          2:30:47 LM35-39  188/189   1176 14:46 2:27:38   calgary
 2769 117   Debbie Bailes          2:30:50 LF40-44  221/227   1593 14:47 2:27:49   CALGARY
 2770 1456  Karen Bursey           2:30:50 LF45-49  193/206   1594 14:47 2:27:50   C.B.S.
 2771 80    Stacey Squires         2:30:50 LF40-44  222/227   1595 14:47 2:27:50   Calgary
 2772 2011  Ray Alcock             2:31:45 LM55-59  116/117   1177 14:51 2:28:22   St. John's
 2773 2249  Nevin Foltz            2:31:45 LM70-74   11/13    1178 14:52 2:28:31   St. John's
 2774 2013  Ellen Alcock           2:31:50 LF50-54  154/171   1596 14:51 2:28:27   St. John's
 2775 2337  Jenna Luke             2:32:15 LF25-29  217/222   1597 15:00 2:29:52   St. John's
 2776 2336  Arlene McCann          2:32:17 LF60-64   46/56    1598 15:00 2:29:54   Doha
 2777 1970  Alison Piercey         2:32:37 LF45-49  194/206   1599 14:56 2:29:19   St. John's
 2778 2028  David Hancock          2:32:44 LM50-54  140/145   1179 14:56 2:29:18   St. John's
 2779 1928  Kelly White            2:33:37 LF40-44  223/227   1600 15:03 2:30:21   St. John's
 2780 2107  James Kean             2:34:07 LM50-54  141/145   1180 15:07 2:31:08   mountpearl
 2781 2085  Neta Kean              2:34:07 LF50-54  155/171   1601 15:07 2:31:08   mountpearl
 2782 2742  William Nurse          2:34:33 LM65-69   30/30    1181 15:28 2:34:33   St. John's
 2783 545   G. Dawn Howse          2:34:43 LF55-59   89/96    1602 15:11 2:31:48   St. John's
 2784 2030  Amy Hancock            2:34:50 LF20-24  118/119   1603 15:09 2:31:23   St. John's
 2785 952   Colette Le Carduner    2:34:55 LF55-59   90/96    1604 15:13 2:32:07   Saint Pierre
 2786 953   Laurence Le Carduner   2:34:56 LF20-24  119/119   1605 15:13 2:32:06   Saint Pierre
 2787 2728  Beverley Park          2:35:32 LF50-54  156/171   1606 15:21 2:33:25   Paradise
 2788 1095  Marilyn Colbourne      2:35:57 LF60-64   47/56    1607 15:18 2:32:57   Beaumont
 2789 580   Krista Forristall      2:36:03 LF30-34  245/248   1608 15:20 2:33:18   Conception Bay
 2790 318   Judy Andrews           2:36:06 LF45-49  195/206   1609 15:18 2:32:57   CBS
 2791 2297  Patricia Williams      2:36:08 LF45-49  196/206   1610 15:21 2:33:22   St.John's
 2792 1438  Tina Pretty            2:36:14 LF50-54  157/171   1611 15:21 2:33:26   St. John's
 2793 1479  Donna Shugarue         2:36:14 LF60-64   48/56    1612 15:21 2:33:25   St. John's
 2794 500   Anne Godin             2:36:29 LF45-49  197/206   1613 15:21 2:33:25   St. John's
 2795 2148  Darlene Witherall      2:36:32 LF50-54  158/171   1614 15:20 2:33:15   St. John's
 2796 2781  Lori Bailey            2:36:32 LF50-54  159/171   1615 15:20 2:33:15   St. John's
 2797 228   Alison Cass            2:37:38 LF45-49  198/206   1616 15:29 2:34:43   Toronto
 2798 235   Alan Cass              2:37:39 LM70-74   12/13    1182 15:29 2:34:43   HARBOUR GRACE
 2799 1481  Kevin Pender           2:38:49 LM40-44  133/134   1183 15:34 2:35:38   Shea Heights
 2800 1482  Rhoda Pender           2:38:50 LF40-44  224/227   1617 15:34 2:35:39   Shea Heights
 2801 544   Paula Gidge            2:39:10 LF45-49  199/206   1618 15:38 2:36:19   Mount Pearl
 2802 2347  Jeannette Blackwood    2:39:19 LF55-59   91/96    1619 15:37 2:36:07   St. John's
 2803 1178  Breda Kurth            2:39:20 LF50-54  160/171   1620 15:37 2:36:10   St. John's
 2804 1167  Mary Mulrooney         2:39:20 LF45-49  200/206   1621 15:37 2:36:10   St. John's
 2805 1884  Vyvyenne Bruce         2:39:32 LF55-59   92/96    1622 15:39 2:36:21   St John's
 2806 698   David Mercer           2:39:32 LM60-64   66/68    1184 15:38 2:36:20   st john's
 2807 857   Noel Shuell            2:39:36 LM75-79    3/3     1185 15:46 2:37:35   St. John's
 2808 2847  Sandra Gould           2:39:55 LF-19     41/42    1623 15:39 2:36:25   Mount Pearl
 2809 1230  Linda Green            2:40:02 LF55-59   93/96    1624 15:41 2:36:44   Carbonear
 2810 2539  Paul Patey             2:40:21 LM70-74   13/13    1186 15:43 2:37:08   St. John's
 2811 2036  Exie Dove              2:40:24 LF45-49  201/206   1625 15:46 2:37:37   St. John's
 2812 1096  Michelle Rideout       2:40:26 LF25-29  218/222   1626 15:43 2:37:04   CBS
 2813 2862  Doreen Moyst           2:41:02 LF50-54  161/171   1627 15:49 2:38:05   St. John's
 2814 927   Patricia E Lacey       2:41:15 LF65-69    9/11    1628 15:51 2:38:28   Torbay
 2815 1097  Glenys Porter          2:41:19 LF60-64   49/56    1629 15:48 2:37:56   CBS
 2816 2750  Linda Pippy            2:41:34 LF60-64   50/56    1630 15:49 2:38:08   St. John's
 2817 1658  Jeff White             2:42:09 LM50-54  142/145   1187 15:58 2:39:32   St. John's
 2818 1666  Diane White            2:42:09 LF50-54  162/171   1631 15:58 2:39:32   St. John's
 2819 3000  Glenn Carroll          2:42:38 LM35-39  189/189   1188 15:56 2:39:18   Mount Pearl
 2820 3052  Carol Ann Dale         2:44:07 LF50-54  163/171   1632 16:06 2:40:58   St. John's
 2821 1786  Diana House            2:44:18 LF45-49  202/206   1633 16:06 2:40:56   St. John's
 2822 1269  Karen Power            2:44:45 LF55-59   94/96    1634 16:10 2:41:40   CBS
 2823 1915  Janet Williams         2:44:49 LF45-49  203/206   1635 16:09 2:41:29   Paradise
 2824 1706  Samantha Hallett       2:44:49 LF-19     42/42    1636 16:09 2:41:29   Paradise
 2825 1701  Melanie Hallett        2:44:49 LF35-39  267/268   1637 16:09 2:41:29   Paradise
 2826 1227  Rosalind Power         2:44:49 LF60-64   51/56    1638 16:10 2:41:31   Mt. Pearl
 2827 114   Hazel Jefford          2:44:52 LF65-69   10/11    1639 16:11 2:41:49   CONCEPTION BAY
 2828 1356  Selma Rowe             2:44:52 LF60-64   52/56    1640 16:11 2:41:43   cbs
 2829 2516  Victoria Dyke          2:46:16 LF25-29  219/222   1641 16:18 2:42:56   St. John's
 2830 1460  Valerie Mitchelmore    2:46:33 LF45-49  204/206   1642 16:20 2:43:19   Mount Pearl
 2831 3007  Annette Morgan         2:46:33 LF40-44  225/227   1643 16:20 2:43:19   CBS
 2832 1508  Mabel Tilley           2:46:33 LF40-44  226/227   1644 16:20 2:43:18   Conception Bay
 2833 2124  Norma Regular          2:47:21 LF75-79    1/1     1645 16:27 2:44:23   Gander
 2834 719   Tracy Walzthoni        2:47:33 LF45-49  205/206   1646 16:27 2:44:21   Conception Bay
 2835 1678  Linda Babstock         2:47:39 LF55-59   95/96    1647 16:29 2:44:45   St. John's
 2836 1677  Vicki Gill             2:47:39 LF50-54  164/171   1648 16:29 2:44:45   St. John's
 2837 2740  Darlene Scott          2:50:31 LF55-59   96/96    1649 16:46 2:47:32   St. John's
 2838 652   Lisa Bailey            2:50:35 LF30-34  246/248   1650 16:44 2:47:12   Paradise
 2839 2837  Jacqueline Hutchings   2:50:35 LF50-54  165/171   1651 16:44 2:47:12   Whitbourne
 2840 653   Irene Bailey           2:50:35 LF50-54  166/171   1652 16:44 2:47:12   Paradise
 2841 2723  Donna Howell           2:51:29 LF50-54  167/171   1653 16:57 2:49:26   Paradise
 2842 1382  John Williams          2:51:30 LM60-64   67/68    1189 16:57 2:49:30   Mount Pearl
 2843 2722  Harold Howell          2:51:34 LM55-59  117/117   1190 16:58 2:49:32   Paradise
 2844 341   Charlene Branton       2:54:28 LF25-29  220/222   1654 17:07 2:51:01   Mount Pearl
 2845 335   Susan Holden           2:54:28 LF25-29  221/222   1655 17:07 2:51:03   Mount Pearl
 2846 1494  Sharon Tucker          2:54:29 LF25-29  222/222   1656 17:07 2:51:04   Portugal Cove-S
 2847 508   Stephen Nolan          2:55:35 LM40-44  134/134   1191 17:18 2:52:51   St. John's
 2848 1870  Ruby Hardiman          2:56:18 LF60-64   53/56    1657 17:19 2:53:03   Mount Pearl
 2849 956   Debbie Puddester       2:57:44 LF50-54  168/171   1658 17:26 2:54:14   bay bulls
 2850 1043  Cassy Ward             2:57:44 LF50-54  169/171   1659 17:26 2:54:14   petty harbor
 2851 902   Dorothy Goodyear       2:58:26 LF60-64   54/56    1660 17:31 2:55:07   Mt Pearl
 2852 1530  Ruth Foster            2:58:26 LF60-64   55/56    1661 17:31 2:55:07   Mount Pearl
 2853 2932  Louise Banks           2:59:50 LF60-64   56/56    1662 17:38 2:56:18   CBS
 2854 2933  Heather Banks          2:59:52 LF35-39  268/268   1663 17:38 2:56:20   St. John's
 2855 1353  Gary Evans             3:00:35 LM50-54  143/145   1192 17:46 2:57:36   St. John's
 2856 2220  Jim Meaney             3:00:36 LM50-54  144/145   1193 17:46 2:57:36   St. John's
 2857 491   Lucy Meaney            3:01:04 LF70-74    4/4     1664 17:56 2:59:11   Kilbride
 2858 2034  Tracy Smith            3:02:34 LF45-49  206/206   1665 17:57 2:59:24   Mt. Pearl
 2859 746   Michelle Reid          3:03:27 LF50-54  170/171   1666 18:05 3:00:45   Conception Bay
 2860 504   Squires Elizabeth      3:03:57 LF65-69   11/11    1667 18:08 3:01:14   St. John's
 2861 2474  Kelly Silver           3:03:57 LF40-44  227/227   1668 18:08 3:01:17   Mount Pearl
 2862 2265  Wayne Dawe             3:04:03 LM60-64   68/68    1194 18:05 3:00:50   St. John's
 2863 1419  Michelle Gilbert       3:04:04 LF30-34  247/248   1669 18:06 3:00:51   St. John's
 2864 2578  Karen Fung-Kee-Fung    3:04:42 LF50-54  171/171   1670 18:09 3:01:23   Ottawa
 2865 2580  Joseph Carew           3:04:42 LM80+      2/2     1195 18:08 3:01:18   St.John's
 2866 2579  Konner Fung-Kee-Fung   3:04:42 LM-19     50/50    1196 18:08 3:01:19   Ottawa
 2867 957   Kevin Grady            3:07:29 LM50-54  145/145   1197 18:24 3:03:58   grimsby
 2868 2375  Krista Legge           3:23:13 LF30-34  248/248   1671 20:00 3:19:51   St. John's

Return to Results